<?xml version="1.0" encoding="UTF-8" standalone="no"?>
<gpx xmlns="http://www.topografix.com/GPX/1/1" creator="GPS TrackMaker" version="1.1" xmlns:xsi="http://www.w3.org/2001/XMLSchema-instance" xsi:schemaLocation="http://www.topografix.com/GPX/1/1 http://www.topografix.com/GPX/1/1/gpx.xsd"><metadata><link href="http://www.gpstm.com"><text>Geo Studio Tecnology Ltd</text></link><time>2010-09-17T13:48:53Z</time><bounds minlat="42.210523" minlon="-1.530627" maxlat="42.271676" maxlon="-1.468400"/></metadata><trk><name>Peñaflor-Barranco Grande</name><trkseg><trkpt lat="42.209429753" lon="-1.515405066"><ele>294.300800</ele><time>2010-09-10T08:56:39Z</time></trkpt><trkpt lat="42.209537041" lon="-1.515447981"><ele>295.742700</ele><time>2010-09-10T08:56:50Z</time></trkpt><trkpt lat="42.209665787" lon="-1.515276320"><ele>296.704100</ele><time>2010-09-10T08:57:01Z</time></trkpt><trkpt lat="42.209665787" lon="-1.515254862"><ele>296.704100</ele><time>2010-09-10T08:57:02Z</time></trkpt><trkpt lat="42.209708703" lon="-1.515190489"><ele>296.704100</ele><time>2010-09-10T08:57:06Z</time></trkpt><trkpt lat="42.209730160" lon="-1.515169032"><ele>296.223500</ele><time>2010-09-10T08:57:08Z</time></trkpt><trkpt lat="42.209730160" lon="-1.515104659"><ele>296.704100</ele><time>2010-09-10T08:57:11Z</time></trkpt><trkpt lat="42.209730160" lon="-1.515104659"><ele>296.704100</ele><time>2010-09-10T08:57:12Z</time></trkpt><trkpt lat="42.209794533" lon="-1.514997370"><ele>296.704100</ele><time>2010-09-10T08:57:18Z</time></trkpt><trkpt lat="42.209966195" lon="-1.514825709"><ele>296.223500</ele><time>2010-09-10T08:57:28Z</time></trkpt><trkpt lat="42.210009110" lon="-1.514761336"><ele>296.223500</ele><time>2010-09-10T08:57:32Z</time></trkpt><trkpt lat="42.210030568" lon="-1.514718421"><ele>296.704100</ele><time>2010-09-10T08:57:34Z</time></trkpt><trkpt lat="42.210094941" lon="-1.514632590"><ele>296.704100</ele><time>2010-09-10T08:57:38Z</time></trkpt><trkpt lat="42.210245144" lon="-1.514375098"><ele>295.742700</ele><time>2010-09-10T08:57:49Z</time></trkpt><trkpt lat="42.210309517" lon="-1.514203436"><ele>295.742700</ele><time>2010-09-10T08:57:57Z</time></trkpt><trkpt lat="42.210309517" lon="-1.514181979"><ele>296.704100</ele><time>2010-09-10T08:57:58Z</time></trkpt><trkpt lat="42.210481179" lon="-1.513924487"><ele>297.184700</ele><time>2010-09-10T08:58:09Z</time></trkpt><trkpt lat="42.210609925" lon="-1.513709910"><ele>297.184700</ele><time>2010-09-10T08:58:17Z</time></trkpt><trkpt lat="42.210631383" lon="-1.513645537"><ele>295.742700</ele><time>2010-09-10T08:58:19Z</time></trkpt><trkpt lat="42.210996163" lon="-1.513001807"><ele>296.704100</ele><time>2010-09-10T08:58:40Z</time></trkpt><trkpt lat="42.211167824" lon="-1.512851603"><ele>297.665400</ele><time>2010-09-10T08:58:48Z</time></trkpt><trkpt lat="42.211275113" lon="-1.512808688"><ele>298.626700</ele><time>2010-09-10T08:58:52Z</time></trkpt><trkpt lat="42.211403859" lon="-1.512765772"><ele>295.742700</ele><time>2010-09-10T08:58:56Z</time></trkpt><trkpt lat="42.212004674" lon="-1.512894518"><ele>292.858800</ele><time>2010-09-10T08:59:12Z</time></trkpt><trkpt lat="42.212412369" lon="-1.513023264"><ele>289.494100</ele><time>2010-09-10T08:59:19Z</time></trkpt><trkpt lat="42.213013184" lon="-1.513087637"><ele>286.610200</ele><time>2010-09-10T08:59:27Z</time></trkpt><trkpt lat="42.213613999" lon="-1.512851603"><ele>286.610200</ele><time>2010-09-10T08:59:40Z</time></trkpt><trkpt lat="42.213656914" lon="-1.512851603"><ele>286.610200</ele><time>2010-09-10T08:59:41Z</time></trkpt><trkpt lat="42.213914406" lon="-1.512808688"><ele>289.494100</ele><time>2010-09-10T08:59:49Z</time></trkpt><trkpt lat="42.214064610" lon="-1.512808688"><ele>291.416700</ele><time>2010-09-10T08:59:54Z</time></trkpt><trkpt lat="42.214107525" lon="-1.512787230"><ele>291.416700</ele><time>2010-09-10T08:59:56Z</time></trkpt><trkpt lat="42.214322102" lon="-1.512787230"><ele>292.858800</ele><time>2010-09-10T09:00:04Z</time></trkpt><trkpt lat="42.214429391" lon="-1.512765772"><ele>293.339400</ele><time>2010-09-10T09:00:08Z</time></trkpt><trkpt lat="42.214622510" lon="-1.512658484"><ele>293.820100</ele><time>2010-09-10T09:00:15Z</time></trkpt><trkpt lat="42.214686883" lon="-1.512615569"><ele>293.339400</ele><time>2010-09-10T09:00:18Z</time></trkpt><trkpt lat="42.214751256" lon="-1.512551196"><ele>293.820100</ele><time>2010-09-10T09:00:21Z</time></trkpt><trkpt lat="42.215373528" lon="-1.511886008"><ele>293.339400</ele><time>2010-09-10T09:00:47Z</time></trkpt><trkpt lat="42.215952885" lon="-1.511220820"><ele>293.820100</ele><time>2010-09-10T09:01:10Z</time></trkpt><trkpt lat="42.216618073" lon="-1.510469801"><ele>294.300800</ele><time>2010-09-10T09:01:34Z</time></trkpt><trkpt lat="42.216682446" lon="-1.510405428"><ele>294.300800</ele><time>2010-09-10T09:01:37Z</time></trkpt><trkpt lat="42.217326176" lon="-1.509675868"><ele>294.781400</ele><time>2010-09-10T09:02:00Z</time></trkpt><trkpt lat="42.217841160" lon="-1.509096510"><ele>295.262000</ele><time>2010-09-10T09:02:18Z</time></trkpt><trkpt lat="42.217905533" lon="-1.509032137"><ele>295.262000</ele><time>2010-09-10T09:02:20Z</time></trkpt><trkpt lat="42.218463433" lon="-1.508388407"><ele>294.781400</ele><time>2010-09-10T09:02:41Z</time></trkpt><trkpt lat="42.218549264" lon="-1.508302577"><ele>296.223500</ele><time>2010-09-10T09:02:44Z</time></trkpt><trkpt lat="42.218849671" lon="-1.507980712"><ele>296.223500</ele><time>2010-09-10T09:02:57Z</time></trkpt><trkpt lat="42.218935502" lon="-1.508066542"><ele>297.184700</ele><time>2010-09-10T09:03:04Z</time></trkpt><trkpt lat="42.218935502" lon="-1.508088000"><ele>296.223500</ele><time>2010-09-10T09:03:05Z</time></trkpt><trkpt lat="42.218956959" lon="-1.508366950"><ele>296.704100</ele><time>2010-09-10T09:03:17Z</time></trkpt><trkpt lat="42.218956959" lon="-1.508431323"><ele>296.223500</ele><time>2010-09-10T09:03:19Z</time></trkpt><trkpt lat="42.218914044" lon="-1.509354003"><ele>295.742700</ele><time>2010-09-10T09:03:40Z</time></trkpt><trkpt lat="42.218871129" lon="-1.509804614"><ele>294.781400</ele><time>2010-09-10T09:03:50Z</time></trkpt><trkpt lat="42.218892586" lon="-1.509911902"><ele>294.781400</ele><time>2010-09-10T09:03:53Z</time></trkpt><trkpt lat="42.218914044" lon="-1.510169394"><ele>294.300800</ele><time>2010-09-10T09:04:01Z</time></trkpt><trkpt lat="42.218956959" lon="-1.510276682"><ele>294.300800</ele><time>2010-09-10T09:04:04Z</time></trkpt><trkpt lat="42.218999875" lon="-1.510426886"><ele>294.300800</ele><time>2010-09-10T09:04:09Z</time></trkpt><trkpt lat="42.219021332" lon="-1.510512717"><ele>294.300800</ele><time>2010-09-10T09:04:11Z</time></trkpt><trkpt lat="42.219042790" lon="-1.510641463"><ele>293.820100</ele><time>2010-09-10T09:04:14Z</time></trkpt><trkpt lat="42.219042790" lon="-1.510963328"><ele>290.455600</ele><time>2010-09-10T09:04:21Z</time></trkpt><trkpt lat="42.219042790" lon="-1.510984786"><ele>289.494100</ele><time>2010-09-10T09:04:22Z</time></trkpt><trkpt lat="42.219021332" lon="-1.511113532"><ele>287.090800</ele><time>2010-09-10T09:04:25Z</time></trkpt><trkpt lat="42.218999875" lon="-1.511156447"><ele>286.610200</ele><time>2010-09-10T09:04:26Z</time></trkpt><trkpt lat="42.218785298" lon="-1.511371024"><ele>285.648800</ele><time>2010-09-10T09:04:31Z</time></trkpt><trkpt lat="42.218699467" lon="-1.511456854"><ele>284.206900</ele><time>2010-09-10T09:04:33Z</time></trkpt><trkpt lat="42.218420518" lon="-1.511692889"><ele>283.726200</ele><time>2010-09-10T09:04:41Z</time></trkpt><trkpt lat="42.218377602" lon="-1.511757262"><ele>283.726200</ele><time>2010-09-10T09:04:45Z</time></trkpt><trkpt lat="42.218334687" lon="-1.511778719"><ele>283.726200</ele><time>2010-09-10T09:04:48Z</time></trkpt><trkpt lat="42.218334687" lon="-1.511778719"><ele>283.245600</ele><time>2010-09-10T09:04:49Z</time></trkpt><trkpt lat="42.218313229" lon="-1.511800177"><ele>283.245600</ele><time>2010-09-10T09:04:54Z</time></trkpt><trkpt lat="42.218270314" lon="-1.511821635"><ele>283.726200</ele><time>2010-09-10T09:05:00Z</time></trkpt><trkpt lat="42.218227398" lon="-1.511821635"><ele>283.245600</ele><time>2010-09-10T09:05:04Z</time></trkpt><trkpt lat="42.218227398" lon="-1.511843092"><ele>283.245600</ele><time>2010-09-10T09:05:05Z</time></trkpt><trkpt lat="42.218205941" lon="-1.511843092"><ele>283.245600</ele><time>2010-09-10T09:05:08Z</time></trkpt><trkpt lat="42.218184483" lon="-1.511864550"><ele>283.245600</ele><time>2010-09-10T09:05:14Z</time></trkpt><trkpt lat="42.218184483" lon="-1.511864550"><ele>282.765000</ele><time>2010-09-10T09:05:17Z</time></trkpt><trkpt lat="42.218205941" lon="-1.511886008"><ele>283.245600</ele><time>2010-09-10T09:05:22Z</time></trkpt><trkpt lat="42.218205941" lon="-1.511907466"><ele>284.206900</ele><time>2010-09-10T09:05:23Z</time></trkpt><trkpt lat="42.218270314" lon="-1.511993296"><ele>284.687600</ele><time>2010-09-10T09:05:35Z</time></trkpt><trkpt lat="42.218270314" lon="-1.511971839"><ele>284.687600</ele><time>2010-09-10T09:06:04Z</time></trkpt><trkpt lat="42.218270314" lon="-1.511993296"><ele>284.687600</ele><time>2010-09-10T09:06:07Z</time></trkpt><trkpt lat="42.218270314" lon="-1.511993296"><ele>284.206900</ele><time>2010-09-10T09:06:31Z</time></trkpt><trkpt lat="42.218227398" lon="-1.512164958"><ele>285.168200</ele><time>2010-09-10T09:06:38Z</time></trkpt><trkpt lat="42.218163025" lon="-1.512336619"><ele>284.687600</ele><time>2010-09-10T09:06:43Z</time></trkpt><trkpt lat="42.218313229" lon="-1.512572653"><ele>285.648800</ele><time>2010-09-10T09:06:55Z</time></trkpt><trkpt lat="42.218377602" lon="-1.512529738"><ele>287.571400</ele><time>2010-09-10T09:06:59Z</time></trkpt><trkpt lat="42.218420518" lon="-1.512508280"><ele>288.052200</ele><time>2010-09-10T09:07:01Z</time></trkpt><trkpt lat="42.218484891" lon="-1.512443907"><ele>289.494100</ele><time>2010-09-10T09:07:05Z</time></trkpt><trkpt lat="42.218527806" lon="-1.512422450"><ele>290.455600</ele><time>2010-09-10T09:07:08Z</time></trkpt><trkpt lat="42.218527806" lon="-1.512400992"><ele>290.936200</ele><time>2010-09-10T09:07:09Z</time></trkpt><trkpt lat="42.218570721" lon="-1.512358077"><ele>291.897500</ele><time>2010-09-10T09:07:12Z</time></trkpt><trkpt lat="42.218592179" lon="-1.512336619"><ele>292.378200</ele><time>2010-09-10T09:07:14Z</time></trkpt><trkpt lat="42.218699467" lon="-1.512229331"><ele>293.820100</ele><time>2010-09-10T09:07:22Z</time></trkpt><trkpt lat="42.218956959" lon="-1.512079127"><ele>295.262000</ele><time>2010-09-10T09:07:37Z</time></trkpt><trkpt lat="42.218999875" lon="-1.512036212"><ele>295.262000</ele><time>2010-09-10T09:07:40Z</time></trkpt><trkpt lat="42.219085705" lon="-1.511993296"><ele>295.742700</ele><time>2010-09-10T09:07:44Z</time></trkpt><trkpt lat="42.219643605" lon="-1.511478312"><ele>295.262000</ele><time>2010-09-10T09:08:10Z</time></trkpt><trkpt lat="42.219879639" lon="-1.511349566"><ele>295.742700</ele><time>2010-09-10T09:08:19Z</time></trkpt><trkpt lat="42.220051301" lon="-1.511220820"><ele>295.262000</ele><time>2010-09-10T09:08:25Z</time></trkpt><trkpt lat="42.220115674" lon="-1.511156447"><ele>295.262000</ele><time>2010-09-10T09:08:28Z</time></trkpt><trkpt lat="42.220265877" lon="-1.511113532"><ele>294.781400</ele><time>2010-09-10T09:08:33Z</time></trkpt><trkpt lat="42.220287335" lon="-1.511113532"><ele>294.781400</ele><time>2010-09-10T09:08:34Z</time></trkpt><trkpt lat="42.220373166" lon="-1.511156447"><ele>294.781400</ele><time>2010-09-10T09:08:37Z</time></trkpt><trkpt lat="42.220544827" lon="-1.511285193"><ele>294.781400</ele><time>2010-09-10T09:08:43Z</time></trkpt><trkpt lat="42.220630658" lon="-1.511328108"><ele>294.781400</ele><time>2010-09-10T09:08:47Z</time></trkpt><trkpt lat="42.220737946" lon="-1.511392481"><ele>296.223500</ele><time>2010-09-10T09:08:52Z</time></trkpt><trkpt lat="42.220931065" lon="-1.511478312"><ele>295.742700</ele><time>2010-09-10T09:09:02Z</time></trkpt><trkpt lat="42.220973981" lon="-1.511478312"><ele>295.742700</ele><time>2010-09-10T09:09:04Z</time></trkpt><trkpt lat="42.221081269" lon="-1.511499770"><ele>295.742700</ele><time>2010-09-10T09:09:09Z</time></trkpt><trkpt lat="42.221145642" lon="-1.511499770"><ele>295.262000</ele><time>2010-09-10T09:09:12Z</time></trkpt><trkpt lat="42.221210015" lon="-1.511521227"><ele>295.262000</ele><time>2010-09-10T09:09:15Z</time></trkpt><trkpt lat="42.221317303" lon="-1.511521227"><ele>295.262000</ele><time>2010-09-10T09:09:20Z</time></trkpt><trkpt lat="42.221424592" lon="-1.511499770"><ele>294.781400</ele><time>2010-09-10T09:09:24Z</time></trkpt><trkpt lat="42.221510422" lon="-1.511478312"><ele>294.781400</ele><time>2010-09-10T09:09:27Z</time></trkpt><trkpt lat="42.221574795" lon="-1.511456854"><ele>294.781400</ele><time>2010-09-10T09:09:30Z</time></trkpt><trkpt lat="42.221832287" lon="-1.511413939"><ele>295.262000</ele><time>2010-09-10T09:09:40Z</time></trkpt><trkpt lat="42.221875203" lon="-1.511435397"><ele>295.262000</ele><time>2010-09-10T09:09:42Z</time></trkpt><trkpt lat="42.221982491" lon="-1.511521227"><ele>295.742700</ele><time>2010-09-10T09:09:47Z</time></trkpt><trkpt lat="42.222175610" lon="-1.511757262"><ele>295.742700</ele><time>2010-09-10T09:09:57Z</time></trkpt><trkpt lat="42.222261441" lon="-1.511843092"><ele>295.742700</ele><time>2010-09-10T09:10:01Z</time></trkpt><trkpt lat="42.222368729" lon="-1.511993296"><ele>296.704100</ele><time>2010-09-10T09:10:06Z</time></trkpt><trkpt lat="42.222476018" lon="-1.512164958"><ele>297.665400</ele><time>2010-09-10T09:10:12Z</time></trkpt><trkpt lat="42.222583306" lon="-1.512400992"><ele>297.184700</ele><time>2010-09-10T09:10:20Z</time></trkpt><trkpt lat="42.222797883" lon="-1.513388045"><ele>297.665400</ele><time>2010-09-10T09:10:44Z</time></trkpt><trkpt lat="42.222883713" lon="-1.513860114"><ele>297.665400</ele><time>2010-09-10T09:10:55Z</time></trkpt><trkpt lat="42.222883713" lon="-1.513903029"><ele>297.184700</ele><time>2010-09-10T09:10:56Z</time></trkpt><trkpt lat="42.222883713" lon="-1.514031775"><ele>298.146100</ele><time>2010-09-10T09:10:59Z</time></trkpt><trkpt lat="42.222797883" lon="-1.514975913"><ele>298.146100</ele><time>2010-09-10T09:11:20Z</time></trkpt><trkpt lat="42.222819340" lon="-1.515962966"><ele>299.107300</ele><time>2010-09-10T09:11:43Z</time></trkpt><trkpt lat="42.223033917" lon="-1.516907103"><ele>301.510600</ele><time>2010-09-10T09:12:08Z</time></trkpt><trkpt lat="42.223184121" lon="-1.517293341"><ele>301.510600</ele><time>2010-09-10T09:12:19Z</time></trkpt><trkpt lat="42.223398697" lon="-1.517765410"><ele>302.952500</ele><time>2010-09-10T09:12:34Z</time></trkpt><trkpt lat="42.223591817" lon="-1.518065817"><ele>303.913900</ele><time>2010-09-10T09:12:45Z</time></trkpt><trkpt lat="42.223699105" lon="-1.518151648"><ele>304.394700</ele><time>2010-09-10T09:12:50Z</time></trkpt><trkpt lat="42.223784936" lon="-1.518173106"><ele>304.394700</ele><time>2010-09-10T09:12:53Z</time></trkpt><trkpt lat="42.224042428" lon="-1.518216021"><ele>305.356000</ele><time>2010-09-10T09:13:03Z</time></trkpt><trkpt lat="42.224257004" lon="-1.518237479"><ele>304.394700</ele><time>2010-09-10T09:13:11Z</time></trkpt><trkpt lat="42.224471581" lon="-1.517958529"><ele>303.913900</ele><time>2010-09-10T09:13:17Z</time></trkpt><trkpt lat="42.224578869" lon="-1.517808325"><ele>302.471900</ele><time>2010-09-10T09:13:19Z</time></trkpt><trkpt lat="42.224771988" lon="-1.517722495"><ele>301.029900</ele><time>2010-09-10T09:13:22Z</time></trkpt><trkpt lat="42.225008023" lon="-1.517808325"><ele>301.029900</ele><time>2010-09-10T09:13:26Z</time></trkpt><trkpt lat="42.225759041" lon="-1.518216021"><ele>301.510600</ele><time>2010-09-10T09:13:45Z</time></trkpt><trkpt lat="42.226467145" lon="-1.518323309"><ele>299.588000</ele><time>2010-09-10T09:14:04Z</time></trkpt><trkpt lat="42.226939213" lon="-1.518173106"><ele>299.107300</ele><time>2010-09-10T09:14:17Z</time></trkpt><trkpt lat="42.227110875" lon="-1.517636664"><ele>296.704100</ele><time>2010-09-10T09:14:27Z</time></trkpt><trkpt lat="42.227346909" lon="-1.517357714"><ele>293.339400</ele><time>2010-09-10T09:14:34Z</time></trkpt><trkpt lat="42.227368367" lon="-1.517336257"><ele>293.339400</ele><time>2010-09-10T09:14:35Z</time></trkpt><trkpt lat="42.227475655" lon="-1.517271884"><ele>291.416700</ele><time>2010-09-10T09:14:39Z</time></trkpt><trkpt lat="42.227561486" lon="-1.517228968"><ele>291.897500</ele><time>2010-09-10T09:14:42Z</time></trkpt><trkpt lat="42.227582944" lon="-1.517228968"><ele>291.416700</ele><time>2010-09-10T09:14:43Z</time></trkpt><trkpt lat="42.227690232" lon="-1.517207511"><ele>292.378200</ele><time>2010-09-10T09:14:47Z</time></trkpt><trkpt lat="42.227969182" lon="-1.517100222"><ele>293.820100</ele><time>2010-09-10T09:14:57Z</time></trkpt><trkpt lat="42.228012097" lon="-1.517057307"><ele>294.781400</ele><time>2010-09-10T09:14:59Z</time></trkpt><trkpt lat="42.228055012" lon="-1.517014391"><ele>294.781400</ele><time>2010-09-10T09:15:01Z</time></trkpt><trkpt lat="42.228183758" lon="-1.516821272"><ele>295.742700</ele><time>2010-09-10T09:15:09Z</time></trkpt><trkpt lat="42.228291047" lon="-1.516671069"><ele>297.665400</ele><time>2010-09-10T09:15:15Z</time></trkpt><trkpt lat="42.228291047" lon="-1.516649611"><ele>297.184700</ele><time>2010-09-10T09:15:16Z</time></trkpt><trkpt lat="42.228333962" lon="-1.516585238"><ele>297.665400</ele><time>2010-09-10T09:15:19Z</time></trkpt><trkpt lat="42.228419793" lon="-1.516477950"><ele>298.146100</ele><time>2010-09-10T09:15:24Z</time></trkpt><trkpt lat="42.228484166" lon="-1.516435034"><ele>300.068700</ele><time>2010-09-10T09:15:27Z</time></trkpt><trkpt lat="42.228527081" lon="-1.516392119"><ele>299.588000</ele><time>2010-09-10T09:15:29Z</time></trkpt><trkpt lat="42.229278100" lon="-1.516091712"><ele>299.588000</ele><time>2010-09-10T09:15:54Z</time></trkpt><trkpt lat="42.230114949" lon="-1.515748389"><ele>300.068700</ele><time>2010-09-10T09:16:21Z</time></trkpt><trkpt lat="42.230522645" lon="-1.515512354"><ele>300.068700</ele><time>2010-09-10T09:16:34Z</time></trkpt><trkpt lat="42.230672848" lon="-1.515383608"><ele>301.029900</ele><time>2010-09-10T09:16:40Z</time></trkpt><trkpt lat="42.231016171" lon="-1.515040286"><ele>303.913900</ele><time>2010-09-10T09:16:54Z</time></trkpt><trkpt lat="42.231187832" lon="-1.514761336"><ele>306.797900</ele><time>2010-09-10T09:17:04Z</time></trkpt><trkpt lat="42.231252205" lon="-1.514718421"><ele>306.797900</ele><time>2010-09-10T09:17:07Z</time></trkpt><trkpt lat="42.231316578" lon="-1.514675505"><ele>307.278600</ele><time>2010-09-10T09:17:09Z</time></trkpt><trkpt lat="42.231359494" lon="-1.514654048"><ele>307.278600</ele><time>2010-09-10T09:17:11Z</time></trkpt><trkpt lat="42.231552613" lon="-1.514611132"><ele>307.759300</ele><time>2010-09-10T09:17:19Z</time></trkpt><trkpt lat="42.231616986" lon="-1.514589675"><ele>310.162500</ele><time>2010-09-10T09:17:21Z</time></trkpt><trkpt lat="42.231638444" lon="-1.514589675"><ele>309.681900</ele><time>2010-09-10T09:17:22Z</time></trkpt><trkpt lat="42.231810105" lon="-1.514568217"><ele>310.162500</ele><time>2010-09-10T09:17:29Z</time></trkpt><trkpt lat="42.232131970" lon="-1.514482386"><ele>310.162500</ele><time>2010-09-10T09:17:41Z</time></trkpt><trkpt lat="42.232882989" lon="-1.514439471"><ele>309.681900</ele><time>2010-09-10T09:18:07Z</time></trkpt><trkpt lat="42.233676922" lon="-1.514332182"><ele>308.720500</ele><time>2010-09-10T09:18:33Z</time></trkpt><trkpt lat="42.233741295" lon="-1.514332182"><ele>308.720500</ele><time>2010-09-10T09:18:35Z</time></trkpt><trkpt lat="42.234427941" lon="-1.514246352"><ele>310.162500</ele><time>2010-09-10T09:18:56Z</time></trkpt><trkpt lat="42.234642518" lon="-1.514224894"><ele>310.162500</ele><time>2010-09-10T09:19:03Z</time></trkpt><trkpt lat="42.235307705" lon="-1.514160521"><ele>309.681900</ele><time>2010-09-10T09:19:25Z</time></trkpt><trkpt lat="42.236058724" lon="-1.514139063"><ele>309.681900</ele><time>2010-09-10T09:19:51Z</time></trkpt><trkpt lat="42.236573708" lon="-1.514139063"><ele>311.123800</ele><time>2010-09-10T09:20:09Z</time></trkpt><trkpt lat="42.236723912" lon="-1.514139063"><ele>310.162500</ele><time>2010-09-10T09:20:14Z</time></trkpt><trkpt lat="42.237453473" lon="-1.514181979"><ele>312.565800</ele><time>2010-09-10T09:20:39Z</time></trkpt><trkpt lat="42.238032830" lon="-1.514224894"><ele>312.565800</ele><time>2010-09-10T09:21:00Z</time></trkpt><trkpt lat="42.238376153" lon="-1.514289267"><ele>314.007800</ele><time>2010-09-10T09:21:12Z</time></trkpt><trkpt lat="42.238440526" lon="-1.514289267"><ele>314.488400</ele><time>2010-09-10T09:21:15Z</time></trkpt><trkpt lat="42.238526356" lon="-1.514310725"><ele>314.488400</ele><time>2010-09-10T09:21:18Z</time></trkpt><trkpt lat="42.238848221" lon="-1.514375098"><ele>313.527200</ele><time>2010-09-10T09:21:31Z</time></trkpt><trkpt lat="42.239320290" lon="-1.514611132"><ele>313.046500</ele><time>2010-09-10T09:21:46Z</time></trkpt><trkpt lat="42.239449036" lon="-1.514847167"><ele>312.565800</ele><time>2010-09-10T09:21:52Z</time></trkpt><trkpt lat="42.239813817" lon="-1.515576727"><ele>312.565800</ele><time>2010-09-10T09:22:11Z</time></trkpt><trkpt lat="42.240006936" lon="-1.515855677"><ele>312.565800</ele><time>2010-09-10T09:22:20Z</time></trkpt><trkpt lat="42.240264428" lon="-1.516134627"><ele>312.565800</ele><time>2010-09-10T09:22:30Z</time></trkpt><trkpt lat="42.240843785" lon="-1.516649611"><ele>312.565800</ele><time>2010-09-10T09:22:53Z</time></trkpt><trkpt lat="42.241444600" lon="-1.517271884"><ele>313.046500</ele><time>2010-09-10T09:23:19Z</time></trkpt><trkpt lat="42.242023957" lon="-1.517786868"><ele>313.527200</ele><time>2010-09-10T09:23:43Z</time></trkpt><trkpt lat="42.242302907" lon="-1.517894156"><ele>313.046500</ele><time>2010-09-10T09:23:53Z</time></trkpt><trkpt lat="42.242367280" lon="-1.517937071"><ele>313.046500</ele><time>2010-09-10T09:23:55Z</time></trkpt><trkpt lat="42.242453110" lon="-1.518022902"><ele>314.007800</ele><time>2010-09-10T09:23:59Z</time></trkpt><trkpt lat="42.242517483" lon="-1.518430598"><ele>313.527200</ele><time>2010-09-10T09:24:09Z</time></trkpt><trkpt lat="42.242538941" lon="-1.518816836"><ele>313.046500</ele><time>2010-09-10T09:24:18Z</time></trkpt><trkpt lat="42.242560399" lon="-1.518945582"><ele>312.565800</ele><time>2010-09-10T09:24:21Z</time></trkpt><trkpt lat="42.242560399" lon="-1.519138701"><ele>312.085200</ele><time>2010-09-10T09:24:25Z</time></trkpt><trkpt lat="42.242538941" lon="-1.519331820"><ele>313.046500</ele><time>2010-09-10T09:24:29Z</time></trkpt><trkpt lat="42.242560399" lon="-1.519524939"><ele>313.046500</ele><time>2010-09-10T09:24:33Z</time></trkpt><trkpt lat="42.242581856" lon="-1.519675143"><ele>312.565800</ele><time>2010-09-10T09:24:36Z</time></trkpt><trkpt lat="42.242624772" lon="-1.519868262"><ele>313.046500</ele><time>2010-09-10T09:24:40Z</time></trkpt><trkpt lat="42.242453110" lon="-1.520233042"><ele>311.604500</ele><time>2010-09-10T09:24:49Z</time></trkpt><trkpt lat="42.242410195" lon="-1.520318873"><ele>311.123800</ele><time>2010-09-10T09:24:51Z</time></trkpt><trkpt lat="42.242517483" lon="-1.520640738"><ele>311.123800</ele><time>2010-09-10T09:25:00Z</time></trkpt><trkpt lat="42.242517483" lon="-1.520726569"><ele>310.643100</ele><time>2010-09-10T09:25:02Z</time></trkpt><trkpt lat="42.242453110" lon="-1.521048434"><ele>311.123800</ele><time>2010-09-10T09:25:11Z</time></trkpt><trkpt lat="42.242431653" lon="-1.521091349"><ele>311.123800</ele><time>2010-09-10T09:25:13Z</time></trkpt><trkpt lat="42.242345822" lon="-1.521134265"><ele>310.162500</ele><time>2010-09-10T09:25:17Z</time></trkpt><trkpt lat="42.242324364" lon="-1.521134265"><ele>310.643100</ele><time>2010-09-10T09:25:18Z</time></trkpt><trkpt lat="42.242302907" lon="-1.521134265"><ele>310.643100</ele><time>2010-09-10T09:25:21Z</time></trkpt><trkpt lat="42.242302907" lon="-1.521134265"><ele>310.162500</ele><time>2010-09-10T09:25:22Z</time></trkpt><trkpt lat="42.242302907" lon="-1.521112807"><ele>309.681900</ele><time>2010-09-10T09:25:56Z</time></trkpt><trkpt lat="42.242367280" lon="-1.521155722"><ele>310.162500</ele><time>2010-09-10T09:26:05Z</time></trkpt><trkpt lat="42.242474568" lon="-1.521413214"><ele>308.720500</ele><time>2010-09-10T09:26:17Z</time></trkpt><trkpt lat="42.242474568" lon="-1.521456130"><ele>309.681900</ele><time>2010-09-10T09:26:18Z</time></trkpt><trkpt lat="42.242496026" lon="-1.521563418"><ele>309.201200</ele><time>2010-09-10T09:26:22Z</time></trkpt><trkpt lat="42.242538941" lon="-1.521670706"><ele>309.681900</ele><time>2010-09-10T09:26:26Z</time></trkpt><trkpt lat="42.242732060" lon="-1.522035487"><ele>309.681900</ele><time>2010-09-10T09:26:38Z</time></trkpt><trkpt lat="42.242774975" lon="-1.522185690"><ele>309.201200</ele><time>2010-09-10T09:26:42Z</time></trkpt><trkpt lat="42.242903721" lon="-1.522464640"><ele>309.201200</ele><time>2010-09-10T09:26:50Z</time></trkpt><trkpt lat="42.243354333" lon="-1.523280032"><ele>310.162500</ele><time>2010-09-10T09:27:15Z</time></trkpt><trkpt lat="42.243483079" lon="-1.523537524"><ele>309.681900</ele><time>2010-09-10T09:27:23Z</time></trkpt><trkpt lat="42.243461621" lon="-1.523795016"><ele>310.162500</ele><time>2010-09-10T09:27:29Z</time></trkpt><trkpt lat="42.243440163" lon="-1.523816474"><ele>310.162500</ele><time>2010-09-10T09:27:30Z</time></trkpt><trkpt lat="42.243397248" lon="-1.523902304"><ele>310.643100</ele><time>2010-09-10T09:27:33Z</time></trkpt><trkpt lat="42.243354333" lon="-1.523988135"><ele>310.643100</ele><time>2010-09-10T09:27:36Z</time></trkpt><trkpt lat="42.243247044" lon="-1.524245627"><ele>310.643100</ele><time>2010-09-10T09:27:44Z</time></trkpt><trkpt lat="42.243225586" lon="-1.524245627"><ele>311.123800</ele><time>2010-09-10T09:27:48Z</time></trkpt><trkpt lat="42.243225586" lon="-1.524245627"><ele>311.604500</ele><time>2010-09-10T09:27:52Z</time></trkpt><trkpt lat="42.243204129" lon="-1.524310000"><ele>311.604500</ele><time>2010-09-10T09:27:55Z</time></trkpt><trkpt lat="42.243161213" lon="-1.524395831"><ele>311.604500</ele><time>2010-09-10T09:27:59Z</time></trkpt><trkpt lat="42.243161213" lon="-1.524374373"><ele>311.123800</ele><time>2010-09-10T09:28:01Z</time></trkpt><trkpt lat="42.243161213" lon="-1.524374373"><ele>311.604500</ele><time>2010-09-10T09:28:11Z</time></trkpt><trkpt lat="42.243139756" lon="-1.524438746"><ele>311.123800</ele><time>2010-09-10T09:28:14Z</time></trkpt><trkpt lat="42.242968094" lon="-1.524717696"><ele>311.123800</ele><time>2010-09-10T09:28:22Z</time></trkpt><trkpt lat="42.242796433" lon="-1.524932272"><ele>311.123800</ele><time>2010-09-10T09:28:31Z</time></trkpt><trkpt lat="42.242732060" lon="-1.524975188"><ele>311.123800</ele><time>2010-09-10T09:28:34Z</time></trkpt><trkpt lat="42.242667687" lon="-1.524996646"><ele>311.604500</ele><time>2010-09-10T09:28:38Z</time></trkpt><trkpt lat="42.242603314" lon="-1.524996646"><ele>310.643100</ele><time>2010-09-10T09:28:42Z</time></trkpt><trkpt lat="42.242474568" lon="-1.524996646"><ele>310.162500</ele><time>2010-09-10T09:28:47Z</time></trkpt><trkpt lat="42.242410195" lon="-1.525018103"><ele>311.123800</ele><time>2010-09-10T09:28:50Z</time></trkpt><trkpt lat="42.242217076" lon="-1.525018103"><ele>309.681900</ele><time>2010-09-10T09:28:58Z</time></trkpt><trkpt lat="42.242131245" lon="-1.525082476"><ele>309.681900</ele><time>2010-09-10T09:29:02Z</time></trkpt><trkpt lat="42.242088330" lon="-1.525125392"><ele>310.162500</ele><time>2010-09-10T09:29:04Z</time></trkpt><trkpt lat="42.242045415" lon="-1.525211222"><ele>310.643100</ele><time>2010-09-10T09:29:08Z</time></trkpt><trkpt lat="42.242045415" lon="-1.525254138"><ele>310.162500</ele><time>2010-09-10T09:29:09Z</time></trkpt><trkpt lat="42.242023957" lon="-1.525297053"><ele>311.123800</ele><time>2010-09-10T09:29:11Z</time></trkpt><trkpt lat="42.241981042" lon="-1.525468714"><ele>311.604500</ele><time>2010-09-10T09:29:17Z</time></trkpt><trkpt lat="42.241873753" lon="-1.525726206"><ele>313.527200</ele><time>2010-09-10T09:29:26Z</time></trkpt><trkpt lat="42.241723549" lon="-1.525962241"><ele>314.488400</ele><time>2010-09-10T09:29:35Z</time></trkpt><trkpt lat="42.241680634" lon="-1.526048071"><ele>314.488400</ele><time>2010-09-10T09:29:38Z</time></trkpt><trkpt lat="42.241659176" lon="-1.526090987"><ele>314.488400</ele><time>2010-09-10T09:29:40Z</time></trkpt><trkpt lat="42.241530430" lon="-1.526176817"><ele>314.488400</ele><time>2010-09-10T09:29:45Z</time></trkpt><trkpt lat="42.241487515" lon="-1.526198275"><ele>314.488400</ele><time>2010-09-10T09:29:46Z</time></trkpt><trkpt lat="42.241144192" lon="-1.526369937"><ele>314.007800</ele><time>2010-09-10T09:29:56Z</time></trkpt><trkpt lat="42.241058362" lon="-1.526477225"><ele>313.046500</ele><time>2010-09-10T09:29:59Z</time></trkpt><trkpt lat="42.241036904" lon="-1.526584513"><ele>312.565800</ele><time>2010-09-10T09:30:02Z</time></trkpt><trkpt lat="42.240993989" lon="-1.526670344"><ele>313.046500</ele><time>2010-09-10T09:30:06Z</time></trkpt><trkpt lat="42.240993989" lon="-1.526756175"><ele>313.046500</ele><time>2010-09-10T09:30:10Z</time></trkpt><trkpt lat="42.240993989" lon="-1.526777632"><ele>313.046500</ele><time>2010-09-10T09:30:11Z</time></trkpt><trkpt lat="42.240993989" lon="-1.526906378"><ele>312.565800</ele><time>2010-09-10T09:30:15Z</time></trkpt><trkpt lat="42.240993989" lon="-1.527850516"><ele>313.046500</ele><time>2010-09-10T09:30:40Z</time></trkpt><trkpt lat="42.241015446" lon="-1.528558619"><ele>312.085200</ele><time>2010-09-10T09:30:58Z</time></trkpt><trkpt lat="42.241058362" lon="-1.528687365"><ele>312.085200</ele><time>2010-09-10T09:31:02Z</time></trkpt><trkpt lat="42.241165650" lon="-1.528859026"><ele>313.046500</ele><time>2010-09-10T09:31:08Z</time></trkpt><trkpt lat="42.241230023" lon="-1.528901942"><ele>313.046500</ele><time>2010-09-10T09:31:11Z</time></trkpt><trkpt lat="42.241272938" lon="-1.528923400"><ele>313.527200</ele><time>2010-09-10T09:31:13Z</time></trkpt><trkpt lat="42.241358769" lon="-1.529030688"><ele>313.527200</ele><time>2010-09-10T09:31:17Z</time></trkpt><trkpt lat="42.241959584" lon="-1.529502757"><ele>314.488400</ele><time>2010-09-10T09:31:42Z</time></trkpt><trkpt lat="42.242259991" lon="-1.529738791"><ele>315.930400</ele><time>2010-09-10T09:31:56Z</time></trkpt><trkpt lat="42.242710602" lon="-1.530361064"><ele>315.930400</ele><time>2010-09-10T09:32:17Z</time></trkpt><trkpt lat="42.242774975" lon="-1.530532725"><ele>316.411000</ele><time>2010-09-10T09:32:22Z</time></trkpt><trkpt lat="42.242946637" lon="-1.530897505"><ele>315.930400</ele><time>2010-09-10T09:32:33Z</time></trkpt><trkpt lat="42.242989552" lon="-1.531004794"><ele>315.930400</ele><time>2010-09-10T09:32:36Z</time></trkpt><trkpt lat="42.243011010" lon="-1.531026251"><ele>316.411000</ele><time>2010-09-10T09:32:37Z</time></trkpt><trkpt lat="42.243161213" lon="-1.531004794"><ele>316.891700</ele><time>2010-09-10T09:32:44Z</time></trkpt><trkpt lat="42.243182671" lon="-1.530983336"><ele>316.891700</ele><time>2010-09-10T09:32:45Z</time></trkpt><trkpt lat="42.243247044" lon="-1.530940421"><ele>316.411000</ele><time>2010-09-10T09:32:48Z</time></trkpt><trkpt lat="42.243354333" lon="-1.530940421"><ele>316.891700</ele><time>2010-09-10T09:32:52Z</time></trkpt><trkpt lat="42.243397248" lon="-1.530961878"><ele>317.372400</ele><time>2010-09-10T09:32:54Z</time></trkpt><trkpt lat="42.243483079" lon="-1.530983336"><ele>317.372400</ele><time>2010-09-10T09:32:57Z</time></trkpt><trkpt lat="42.243847859" lon="-1.531154997"><ele>317.853000</ele><time>2010-09-10T09:33:11Z</time></trkpt><trkpt lat="42.243976605" lon="-1.531262286"><ele>318.333600</ele><time>2010-09-10T09:33:17Z</time></trkpt><trkpt lat="42.244384301" lon="-1.531562693"><ele>318.814300</ele><time>2010-09-10T09:33:34Z</time></trkpt><trkpt lat="42.244620335" lon="-1.531605609"><ele>319.295000</ele><time>2010-09-10T09:33:42Z</time></trkpt><trkpt lat="42.244985116" lon="-1.531669982"><ele>319.295000</ele><time>2010-09-10T09:33:55Z</time></trkpt><trkpt lat="42.245092404" lon="-1.531691439"><ele>319.295000</ele><time>2010-09-10T09:33:59Z</time></trkpt><trkpt lat="42.245500100" lon="-1.531734355"><ele>319.775600</ele><time>2010-09-10T09:34:14Z</time></trkpt><trkpt lat="42.245628846" lon="-1.531712897"><ele>319.775600</ele><time>2010-09-10T09:34:18Z</time></trkpt><trkpt lat="42.246100915" lon="-1.531798728"><ele>320.256300</ele><time>2010-09-10T09:34:36Z</time></trkpt><trkpt lat="42.246165288" lon="-1.531820185"><ele>320.737100</ele><time>2010-09-10T09:34:38Z</time></trkpt><trkpt lat="42.246251118" lon="-1.531841643"><ele>321.217800</ele><time>2010-09-10T09:34:42Z</time></trkpt><trkpt lat="42.246379864" lon="-1.531820185"><ele>320.737100</ele><time>2010-09-10T09:34:46Z</time></trkpt><trkpt lat="42.246894848" lon="-1.531669982"><ele>321.698400</ele><time>2010-09-10T09:35:06Z</time></trkpt><trkpt lat="42.247109425" lon="-1.531627066"><ele>322.179000</ele><time>2010-09-10T09:35:14Z</time></trkpt><trkpt lat="42.247366917" lon="-1.531627066"><ele>322.179000</ele><time>2010-09-10T09:35:23Z</time></trkpt><trkpt lat="42.248053563" lon="-1.531519778"><ele>324.582300</ele><time>2010-09-10T09:35:49Z</time></trkpt><trkpt lat="42.248160851" lon="-1.531498320"><ele>325.063000</ele><time>2010-09-10T09:35:53Z</time></trkpt><trkpt lat="42.248203766" lon="-1.531498320"><ele>326.024200</ele><time>2010-09-10T09:35:55Z</time></trkpt><trkpt lat="42.248225224" lon="-1.531498320"><ele>325.543600</ele><time>2010-09-10T09:35:56Z</time></trkpt><trkpt lat="42.248311055" lon="-1.531476862"><ele>325.543600</ele><time>2010-09-10T09:35:59Z</time></trkpt><trkpt lat="42.248375428" lon="-1.531455405"><ele>325.063000</ele><time>2010-09-10T09:36:02Z</time></trkpt><trkpt lat="42.248461258" lon="-1.531433947"><ele>326.024200</ele><time>2010-09-10T09:36:05Z</time></trkpt><trkpt lat="42.248525632" lon="-1.531391032"><ele>326.504900</ele><time>2010-09-10T09:36:08Z</time></trkpt><trkpt lat="42.248654378" lon="-1.531326659"><ele>326.504900</ele><time>2010-09-10T09:36:13Z</time></trkpt><trkpt lat="42.248697293" lon="-1.531240828"><ele>326.024200</ele><time>2010-09-10T09:36:16Z</time></trkpt><trkpt lat="42.248847497" lon="-1.531047709"><ele>326.985600</ele><time>2010-09-10T09:36:24Z</time></trkpt><trkpt lat="42.249383938" lon="-1.530575640"><ele>327.946800</ele><time>2010-09-10T09:36:48Z</time></trkpt><trkpt lat="42.249469769" lon="-1.530446894"><ele>328.908300</ele><time>2010-09-10T09:36:54Z</time></trkpt><trkpt lat="42.249512684" lon="-1.530339606"><ele>329.869500</ele><time>2010-09-10T09:37:00Z</time></trkpt><trkpt lat="42.249534142" lon="-1.530339606"><ele>329.388900</ele><time>2010-09-10T09:37:16Z</time></trkpt><trkpt lat="42.249534142" lon="-1.530339606"><ele>329.388900</ele><time>2010-09-10T09:38:14Z</time></trkpt><trkpt lat="42.249577057" lon="-1.530318148"><ele>328.908300</ele><time>2010-09-10T09:38:16Z</time></trkpt><trkpt lat="42.249619973" lon="-1.530275233"><ele>329.388900</ele><time>2010-09-10T09:38:19Z</time></trkpt><trkpt lat="42.249662888" lon="-1.530253775"><ele>330.830900</ele><time>2010-09-10T09:38:22Z</time></trkpt><trkpt lat="42.249662888" lon="-1.530253775"><ele>330.830900</ele><time>2010-09-10T09:38:23Z</time></trkpt><trkpt lat="42.249705803" lon="-1.530232318"><ele>329.869500</ele><time>2010-09-10T09:38:26Z</time></trkpt><trkpt lat="42.249748719" lon="-1.530210860"><ele>329.388900</ele><time>2010-09-10T09:38:32Z</time></trkpt><trkpt lat="42.249748719" lon="-1.530210860"><ele>330.350200</ele><time>2010-09-10T09:38:33Z</time></trkpt><trkpt lat="42.249748719" lon="-1.530210860"><ele>330.350200</ele><time>2010-09-10T09:38:35Z</time></trkpt><trkpt lat="42.249748719" lon="-1.530210860"><ele>329.388900</ele><time>2010-09-10T09:38:38Z</time></trkpt><trkpt lat="42.249748719" lon="-1.530210860"><ele>330.350200</ele><time>2010-09-10T09:41:52Z</time></trkpt><trkpt lat="42.249834550" lon="-1.530189402"><ele>330.830900</ele><time>2010-09-10T09:41:57Z</time></trkpt><trkpt lat="42.250242245" lon="-1.529996283"><ele>330.350200</ele><time>2010-09-10T09:42:12Z</time></trkpt><trkpt lat="42.250328076" lon="-1.529996283"><ele>330.830900</ele><time>2010-09-10T09:42:15Z</time></trkpt><trkpt lat="42.250521195" lon="-1.529953368"><ele>331.311500</ele><time>2010-09-10T09:42:22Z</time></trkpt><trkpt lat="42.250585568" lon="-1.529910452"><ele>331.792100</ele><time>2010-09-10T09:42:25Z</time></trkpt><trkpt lat="42.250671399" lon="-1.529888995"><ele>332.753500</ele><time>2010-09-10T09:42:28Z</time></trkpt><trkpt lat="42.250714314" lon="-1.529867537"><ele>332.753500</ele><time>2010-09-10T09:42:30Z</time></trkpt><trkpt lat="42.251207841" lon="-1.529652960"><ele>332.753500</ele><time>2010-09-10T09:42:50Z</time></trkpt><trkpt lat="42.251293671" lon="-1.529610045"><ele>333.234100</ele><time>2010-09-10T09:42:53Z</time></trkpt><trkpt lat="42.251551163" lon="-1.529459841"><ele>334.195400</ele><time>2010-09-10T09:43:03Z</time></trkpt><trkpt lat="42.251722825" lon="-1.529438384"><ele>333.714700</ele><time>2010-09-10T09:43:09Z</time></trkpt><trkpt lat="42.251958859" lon="-1.529331095"><ele>333.714700</ele><time>2010-09-10T09:43:17Z</time></trkpt><trkpt lat="42.252516759" lon="-1.529223807"><ele>334.195400</ele><time>2010-09-10T09:43:36Z</time></trkpt><trkpt lat="42.253203404" lon="-1.529288180"><ele>333.234100</ele><time>2010-09-10T09:43:57Z</time></trkpt><trkpt lat="42.253375065" lon="-1.529116519"><ele>332.272800</ele><time>2010-09-10T09:44:04Z</time></trkpt><trkpt lat="42.253460896" lon="-1.529030688"><ele>332.272800</ele><time>2010-09-10T09:44:08Z</time></trkpt><trkpt lat="42.253503811" lon="-1.528880484"><ele>333.234100</ele><time>2010-09-10T09:44:12Z</time></trkpt><trkpt lat="42.253546727" lon="-1.528773196"><ele>333.234100</ele><time>2010-09-10T09:44:15Z</time></trkpt><trkpt lat="42.253611100" lon="-1.528687365"><ele>332.272800</ele><time>2010-09-10T09:44:18Z</time></trkpt><trkpt lat="42.253632557" lon="-1.528622992"><ele>332.753500</ele><time>2010-09-10T09:44:20Z</time></trkpt><trkpt lat="42.253696930" lon="-1.528494246"><ele>332.272800</ele><time>2010-09-10T09:44:24Z</time></trkpt><trkpt lat="42.253718388" lon="-1.528429873"><ele>332.753500</ele><time>2010-09-10T09:44:26Z</time></trkpt><trkpt lat="42.253782761" lon="-1.528344042"><ele>333.234100</ele><time>2010-09-10T09:44:29Z</time></trkpt><trkpt lat="42.253825677" lon="-1.528215296"><ele>333.234100</ele><time>2010-09-10T09:44:33Z</time></trkpt><trkpt lat="42.253847134" lon="-1.528129466"><ele>333.714700</ele><time>2010-09-10T09:44:35Z</time></trkpt><trkpt lat="42.253847134" lon="-1.528065093"><ele>333.234100</ele><time>2010-09-10T09:44:37Z</time></trkpt><trkpt lat="42.253868592" lon="-1.527893431"><ele>333.714700</ele><time>2010-09-10T09:44:42Z</time></trkpt><trkpt lat="42.253868592" lon="-1.527850516"><ele>334.195400</ele><time>2010-09-10T09:44:44Z</time></trkpt><trkpt lat="42.253890050" lon="-1.527721770"><ele>334.676100</ele><time>2010-09-10T09:44:49Z</time></trkpt><trkpt lat="42.253911507" lon="-1.527593024"><ele>335.156700</ele><time>2010-09-10T09:44:54Z</time></trkpt><trkpt lat="42.253911507" lon="-1.527507193"><ele>335.156700</ele><time>2010-09-10T09:44:57Z</time></trkpt><trkpt lat="42.253932965" lon="-1.527399905"><ele>334.676100</ele><time>2010-09-10T09:45:01Z</time></trkpt><trkpt lat="42.253954423" lon="-1.527271159"><ele>334.676100</ele><time>2010-09-10T09:45:05Z</time></trkpt><trkpt lat="42.253975880" lon="-1.527142413"><ele>335.156700</ele><time>2010-09-10T09:45:09Z</time></trkpt><trkpt lat="42.253954423" lon="-1.527035124"><ele>335.637300</ele><time>2010-09-10T09:45:12Z</time></trkpt><trkpt lat="42.253847134" lon="-1.526112444"><ele>336.118200</ele><time>2010-09-10T09:45:37Z</time></trkpt><trkpt lat="42.253761304" lon="-1.525726206"><ele>336.598900</ele><time>2010-09-10T09:45:48Z</time></trkpt><trkpt lat="42.253675473" lon="-1.525425799"><ele>338.040800</ele><time>2010-09-10T09:45:56Z</time></trkpt><trkpt lat="42.253739846" lon="-1.524867899"><ele>337.079500</ele><time>2010-09-10T09:46:10Z</time></trkpt><trkpt lat="42.253761304" lon="-1.524674780"><ele>337.560100</ele><time>2010-09-10T09:46:15Z</time></trkpt><trkpt lat="42.253804219" lon="-1.524438746"><ele>338.040800</ele><time>2010-09-10T09:46:21Z</time></trkpt><trkpt lat="42.253804219" lon="-1.524374373"><ele>338.521500</ele><time>2010-09-10T09:46:23Z</time></trkpt><trkpt lat="42.253825677" lon="-1.524245627"><ele>338.040800</ele><time>2010-09-10T09:46:26Z</time></trkpt><trkpt lat="42.253997338" lon="-1.523923762"><ele>339.482700</ele><time>2010-09-10T09:46:37Z</time></trkpt><trkpt lat="42.254061711" lon="-1.523859389"><ele>339.482700</ele><time>2010-09-10T09:46:40Z</time></trkpt><trkpt lat="42.254233372" lon="-1.523644812"><ele>339.002100</ele><time>2010-09-10T09:46:48Z</time></trkpt><trkpt lat="42.254276288" lon="-1.523601897"><ele>339.482700</ele><time>2010-09-10T09:46:50Z</time></trkpt><trkpt lat="42.254555237" lon="-1.523237116"><ele>340.924700</ele><time>2010-09-10T09:47:06Z</time></trkpt><trkpt lat="42.254576695" lon="-1.523172743"><ele>340.444100</ele><time>2010-09-10T09:47:08Z</time></trkpt><trkpt lat="42.254598153" lon="-1.523043997"><ele>340.924700</ele><time>2010-09-10T09:47:13Z</time></trkpt><trkpt lat="42.254598153" lon="-1.522979624"><ele>341.405300</ele><time>2010-09-10T09:47:15Z</time></trkpt><trkpt lat="42.254641068" lon="-1.522743590"><ele>341.405300</ele><time>2010-09-10T09:47:24Z</time></trkpt><trkpt lat="42.254641068" lon="-1.522679217"><ele>341.405300</ele><time>2010-09-10T09:47:26Z</time></trkpt><trkpt lat="42.254641068" lon="-1.522636302"><ele>341.886000</ele><time>2010-09-10T09:47:29Z</time></trkpt><trkpt lat="42.254641068" lon="-1.522614844"><ele>340.924700</ele><time>2010-09-10T09:47:30Z</time></trkpt><trkpt lat="42.254791272" lon="-1.522700675"><ele>340.924700</ele><time>2010-09-10T09:47:40Z</time></trkpt><trkpt lat="42.254812729" lon="-1.522765048"><ele>341.886000</ele><time>2010-09-10T09:47:43Z</time></trkpt><trkpt lat="42.254834187" lon="-1.522829421"><ele>341.886000</ele><time>2010-09-10T09:47:46Z</time></trkpt><trkpt lat="42.254877102" lon="-1.522915251"><ele>341.886000</ele><time>2010-09-10T09:47:50Z</time></trkpt><trkpt lat="42.254962933" lon="-1.523022540"><ele>341.886000</ele><time>2010-09-10T09:47:55Z</time></trkpt><trkpt lat="42.254962933" lon="-1.523065455"><ele>341.886000</ele><time>2010-09-10T09:47:56Z</time></trkpt><trkpt lat="42.254984391" lon="-1.523151286"><ele>341.405300</ele><time>2010-09-10T09:47:59Z</time></trkpt><trkpt lat="42.254984391" lon="-1.523194201"><ele>341.886000</ele><time>2010-09-10T09:48:00Z</time></trkpt><trkpt lat="42.255027306" lon="-1.523322947"><ele>341.886000</ele><time>2010-09-10T09:48:05Z</time></trkpt><trkpt lat="42.255070222" lon="-1.523387320"><ele>341.405300</ele><time>2010-09-10T09:48:08Z</time></trkpt><trkpt lat="42.255091679" lon="-1.523451693"><ele>340.924700</ele><time>2010-09-10T09:48:10Z</time></trkpt><trkpt lat="42.255091679" lon="-1.523516066"><ele>341.405300</ele><time>2010-09-10T09:48:14Z</time></trkpt><trkpt lat="42.255070222" lon="-1.523537524"><ele>341.886000</ele><time>2010-09-10T09:48:15Z</time></trkpt><trkpt lat="42.255070222" lon="-1.523623354"><ele>341.405300</ele><time>2010-09-10T09:48:19Z</time></trkpt><trkpt lat="42.255070222" lon="-1.523687728"><ele>341.886000</ele><time>2010-09-10T09:48:23Z</time></trkpt><trkpt lat="42.255070222" lon="-1.523687728"><ele>341.405300</ele><time>2010-09-10T09:48:24Z</time></trkpt><trkpt lat="42.255091679" lon="-1.523687728"><ele>341.405300</ele><time>2010-09-10T09:48:31Z</time></trkpt><trkpt lat="42.255091679" lon="-1.523687728"><ele>341.886000</ele><time>2010-09-10T09:54:16Z</time></trkpt><trkpt lat="42.255091679" lon="-1.523687728"><ele>340.444100</ele><time>2010-09-10T09:55:30Z</time></trkpt><trkpt lat="42.255091679" lon="-1.523687728"><ele>340.924700</ele><time>2010-09-10T09:55:33Z</time></trkpt><trkpt lat="42.255070222" lon="-1.523687728"><ele>341.886000</ele><time>2010-09-10T09:55:42Z</time></trkpt><trkpt lat="42.255091679" lon="-1.523516066"><ele>341.405300</ele><time>2010-09-10T09:55:50Z</time></trkpt><trkpt lat="42.255091679" lon="-1.523473151"><ele>341.405300</ele><time>2010-09-10T09:55:52Z</time></trkpt><trkpt lat="42.255070222" lon="-1.523387320"><ele>340.444100</ele><time>2010-09-10T09:55:55Z</time></trkpt><trkpt lat="42.255027306" lon="-1.523280032"><ele>341.405300</ele><time>2010-09-10T09:55:59Z</time></trkpt><trkpt lat="42.254984391" lon="-1.523194201"><ele>340.924700</ele><time>2010-09-10T09:56:02Z</time></trkpt><trkpt lat="42.254984391" lon="-1.523129828"><ele>341.886000</ele><time>2010-09-10T09:56:04Z</time></trkpt><trkpt lat="42.254941475" lon="-1.522958167"><ele>341.886000</ele><time>2010-09-10T09:56:10Z</time></trkpt><trkpt lat="42.254941475" lon="-1.522936709"><ele>341.405300</ele><time>2010-09-10T09:56:11Z</time></trkpt><trkpt lat="42.254920018" lon="-1.522850878"><ele>340.924700</ele><time>2010-09-10T09:56:14Z</time></trkpt><trkpt lat="42.254898560" lon="-1.522829421"><ele>341.405300</ele><time>2010-09-10T09:56:15Z</time></trkpt><trkpt lat="42.254855645" lon="-1.522765048"><ele>341.886000</ele><time>2010-09-10T09:56:18Z</time></trkpt><trkpt lat="42.254834187" lon="-1.522722132"><ele>341.886000</ele><time>2010-09-10T09:56:20Z</time></trkpt><trkpt lat="42.254812729" lon="-1.522700675"><ele>341.886000</ele><time>2010-09-10T09:56:22Z</time></trkpt><trkpt lat="42.254683983" lon="-1.522529013"><ele>342.366700</ele><time>2010-09-10T09:56:30Z</time></trkpt><trkpt lat="42.254662526" lon="-1.522464640"><ele>342.366700</ele><time>2010-09-10T09:56:33Z</time></trkpt><trkpt lat="42.254641068" lon="-1.522421725"><ele>341.886000</ele><time>2010-09-10T09:56:36Z</time></trkpt><trkpt lat="42.254619610" lon="-1.522378810"><ele>342.366700</ele><time>2010-09-10T09:56:38Z</time></trkpt><trkpt lat="42.254512322" lon="-1.522207148"><ele>341.886000</ele><time>2010-09-10T09:56:46Z</time></trkpt><trkpt lat="42.254469407" lon="-1.522121317"><ele>341.886000</ele><time>2010-09-10T09:56:49Z</time></trkpt><trkpt lat="42.254426491" lon="-1.522035487"><ele>342.366700</ele><time>2010-09-10T09:56:53Z</time></trkpt><trkpt lat="42.254383576" lon="-1.521949656"><ele>343.327900</ele><time>2010-09-10T09:56:57Z</time></trkpt><trkpt lat="42.254383576" lon="-1.521928198"><ele>343.808600</ele><time>2010-09-10T09:56:58Z</time></trkpt><trkpt lat="42.254362118" lon="-1.521842368"><ele>343.808600</ele><time>2010-09-10T09:57:01Z</time></trkpt><trkpt lat="42.254340661" lon="-1.521799452"><ele>343.808600</ele><time>2010-09-10T09:57:03Z</time></trkpt><trkpt lat="42.254340661" lon="-1.521756537"><ele>344.289400</ele><time>2010-09-10T09:57:05Z</time></trkpt><trkpt lat="42.254319203" lon="-1.521649249"><ele>344.289400</ele><time>2010-09-10T09:57:09Z</time></trkpt><trkpt lat="42.254297745" lon="-1.521584876"><ele>344.289400</ele><time>2010-09-10T09:57:11Z</time></trkpt><trkpt lat="42.254276288" lon="-1.521499045"><ele>344.770000</ele><time>2010-09-10T09:57:15Z</time></trkpt><trkpt lat="42.254254830" lon="-1.521413214"><ele>344.770000</ele><time>2010-09-10T09:57:18Z</time></trkpt><trkpt lat="42.254233372" lon="-1.521305926"><ele>344.770000</ele><time>2010-09-10T09:57:22Z</time></trkpt><trkpt lat="42.254233372" lon="-1.521241553"><ele>344.770000</ele><time>2010-09-10T09:57:24Z</time></trkpt><trkpt lat="42.254211915" lon="-1.521198638"><ele>345.250600</ele><time>2010-09-10T09:57:26Z</time></trkpt><trkpt lat="42.254190457" lon="-1.521112807"><ele>345.250600</ele><time>2010-09-10T09:57:29Z</time></trkpt><trkpt lat="42.254147542" lon="-1.521005518"><ele>344.770000</ele><time>2010-09-10T09:57:34Z</time></trkpt><trkpt lat="42.254083169" lon="-1.520919688"><ele>345.250600</ele><time>2010-09-10T09:57:40Z</time></trkpt><trkpt lat="42.254040253" lon="-1.520898230"><ele>345.731300</ele><time>2010-09-10T09:57:43Z</time></trkpt><trkpt lat="42.253997338" lon="-1.520855315"><ele>345.731300</ele><time>2010-09-10T09:57:47Z</time></trkpt><trkpt lat="42.253997338" lon="-1.520855315"><ele>346.212000</ele><time>2010-09-10T09:57:49Z</time></trkpt><trkpt lat="42.254018796" lon="-1.520876772"><ele>345.731300</ele><time>2010-09-10T09:57:53Z</time></trkpt><trkpt lat="42.254018796" lon="-1.520876772"><ele>345.250600</ele><time>2010-09-10T09:57:54Z</time></trkpt><trkpt lat="42.254168999" lon="-1.520790942"><ele>344.770000</ele><time>2010-09-10T09:58:02Z</time></trkpt><trkpt lat="42.254190457" lon="-1.520748026"><ele>344.289400</ele><time>2010-09-10T09:58:03Z</time></trkpt><trkpt lat="42.254233372" lon="-1.520683653"><ele>345.250600</ele><time>2010-09-10T09:58:06Z</time></trkpt><trkpt lat="42.254276288" lon="-1.520597823"><ele>345.250600</ele><time>2010-09-10T09:58:09Z</time></trkpt><trkpt lat="42.254362118" lon="-1.520490534"><ele>345.731300</ele><time>2010-09-10T09:58:14Z</time></trkpt><trkpt lat="42.254447949" lon="-1.520404704"><ele>345.250600</ele><time>2010-09-10T09:58:19Z</time></trkpt><trkpt lat="42.254512322" lon="-1.520340331"><ele>345.250600</ele><time>2010-09-10T09:58:23Z</time></trkpt><trkpt lat="42.254662526" lon="-1.520082839"><ele>345.731300</ele><time>2010-09-10T09:58:35Z</time></trkpt><trkpt lat="42.254683983" lon="-1.520018466"><ele>344.289400</ele><time>2010-09-10T09:58:37Z</time></trkpt><trkpt lat="42.254705441" lon="-1.519911177"><ele>343.808600</ele><time>2010-09-10T09:58:39Z</time></trkpt><trkpt lat="42.254662526" lon="-1.519760974"><ele>343.327900</ele><time>2010-09-10T09:58:42Z</time></trkpt><trkpt lat="42.254619610" lon="-1.519675143"><ele>342.847300</ele><time>2010-09-10T09:58:44Z</time></trkpt><trkpt lat="42.254512322" lon="-1.519396193"><ele>342.847300</ele><time>2010-09-10T09:58:51Z</time></trkpt><trkpt lat="42.254533780" lon="-1.519181616"><ele>341.886000</ele><time>2010-09-10T09:58:59Z</time></trkpt><trkpt lat="42.254533780" lon="-1.519095786"><ele>342.847300</ele><time>2010-09-10T09:59:02Z</time></trkpt><trkpt lat="42.254512322" lon="-1.518988497"><ele>341.886000</ele><time>2010-09-10T09:59:06Z</time></trkpt><trkpt lat="42.254490864" lon="-1.518924124"><ele>341.886000</ele><time>2010-09-10T09:59:09Z</time></trkpt><trkpt lat="42.254447949" lon="-1.518859751"><ele>342.366700</ele><time>2010-09-10T09:59:12Z</time></trkpt><trkpt lat="42.254383576" lon="-1.518816836"><ele>341.405300</ele><time>2010-09-10T09:59:16Z</time></trkpt><trkpt lat="42.254362118" lon="-1.518795378"><ele>342.366700</ele><time>2010-09-10T09:59:18Z</time></trkpt><trkpt lat="42.254340661" lon="-1.518795378"><ele>341.405300</ele><time>2010-09-10T09:59:20Z</time></trkpt><trkpt lat="42.254254830" lon="-1.518752463"><ele>340.924700</ele><time>2010-09-10T09:59:25Z</time></trkpt><trkpt lat="42.254233372" lon="-1.518731005"><ele>341.405300</ele><time>2010-09-10T09:59:28Z</time></trkpt><trkpt lat="42.254190457" lon="-1.518709548"><ele>341.886000</ele><time>2010-09-10T09:59:33Z</time></trkpt><trkpt lat="42.254126084" lon="-1.518623717"><ele>340.924700</ele><time>2010-09-10T09:59:38Z</time></trkpt><trkpt lat="42.254126084" lon="-1.518623717"><ele>340.444100</ele><time>2010-09-10T09:59:39Z</time></trkpt><trkpt lat="42.254083169" lon="-1.518602259"><ele>340.444100</ele><time>2010-09-10T09:59:42Z</time></trkpt><trkpt lat="42.254104626" lon="-1.518580802"><ele>340.924700</ele><time>2010-09-10T10:00:34Z</time></trkpt><trkpt lat="42.254061711" lon="-1.518537886"><ele>340.924700</ele><time>2010-09-10T10:00:37Z</time></trkpt><trkpt lat="42.253975880" lon="-1.518494971"><ele>340.924700</ele><time>2010-09-10T10:00:40Z</time></trkpt><trkpt lat="42.253739846" lon="-1.518494971"><ele>341.405300</ele><time>2010-09-10T10:00:48Z</time></trkpt><trkpt lat="42.253696930" lon="-1.518494971"><ele>341.405300</ele><time>2010-09-10T10:00:49Z</time></trkpt><trkpt lat="42.253503811" lon="-1.518452056"><ele>341.886000</ele><time>2010-09-10T10:00:55Z</time></trkpt><trkpt lat="42.253310692" lon="-1.518516429"><ele>341.886000</ele><time>2010-09-10T10:01:03Z</time></trkpt><trkpt lat="42.253310692" lon="-1.518516429"><ele>341.886000</ele><time>2010-09-10T10:01:04Z</time></trkpt><trkpt lat="42.253267777" lon="-1.518537886"><ele>342.366700</ele><time>2010-09-10T10:01:06Z</time></trkpt><trkpt lat="42.253181946" lon="-1.518559344"><ele>341.405300</ele><time>2010-09-10T10:01:10Z</time></trkpt><trkpt lat="42.253096116" lon="-1.518559344"><ele>341.405300</ele><time>2010-09-10T10:01:14Z</time></trkpt><trkpt lat="42.253010285" lon="-1.518559344"><ele>341.405300</ele><time>2010-09-10T10:01:18Z</time></trkpt><trkpt lat="42.252945912" lon="-1.518516429"><ele>341.886000</ele><time>2010-09-10T10:01:21Z</time></trkpt><trkpt lat="42.252924454" lon="-1.518494971"><ele>342.366700</ele><time>2010-09-10T10:01:22Z</time></trkpt><trkpt lat="42.252838624" lon="-1.518387682"><ele>341.886000</ele><time>2010-09-10T10:01:26Z</time></trkpt><trkpt lat="42.252795708" lon="-1.518344767"><ele>340.924700</ele><time>2010-09-10T10:01:29Z</time></trkpt><trkpt lat="42.252731335" lon="-1.518301852"><ele>341.405300</ele><time>2010-09-10T10:01:32Z</time></trkpt><trkpt lat="42.252688420" lon="-1.518258936"><ele>341.886000</ele><time>2010-09-10T10:01:34Z</time></trkpt><trkpt lat="42.252645505" lon="-1.518194563"><ele>341.405300</ele><time>2010-09-10T10:01:37Z</time></trkpt><trkpt lat="42.252645505" lon="-1.518173106"><ele>340.924700</ele><time>2010-09-10T10:01:38Z</time></trkpt><trkpt lat="42.252624047" lon="-1.518130190"><ele>340.924700</ele><time>2010-09-10T10:01:42Z</time></trkpt><trkpt lat="42.252624047" lon="-1.518130190"><ele>339.963400</ele><time>2010-09-10T10:01:46Z</time></trkpt><trkpt lat="42.252624047" lon="-1.518130190"><ele>339.482700</ele><time>2010-09-10T10:01:47Z</time></trkpt><trkpt lat="42.252624047" lon="-1.518151648"><ele>339.482700</ele><time>2010-09-10T10:03:13Z</time></trkpt><trkpt lat="42.252624047" lon="-1.518173106"><ele>339.482700</ele><time>2010-09-10T10:04:15Z</time></trkpt><trkpt lat="42.252602589" lon="-1.518151648"><ele>339.963400</ele><time>2010-09-10T10:04:26Z</time></trkpt><trkpt lat="42.252602589" lon="-1.518151648"><ele>341.886000</ele><time>2010-09-10T10:04:31Z</time></trkpt><trkpt lat="42.252602589" lon="-1.518173106"><ele>341.405300</ele><time>2010-09-10T10:04:36Z</time></trkpt><trkpt lat="42.252602589" lon="-1.518173106"><ele>341.405300</ele><time>2010-09-10T10:04:52Z</time></trkpt><trkpt lat="42.252602589" lon="-1.518173106"><ele>339.482700</ele><time>2010-09-10T10:05:35Z</time></trkpt><trkpt lat="42.252624047" lon="-1.518173106"><ele>339.482700</ele><time>2010-09-10T10:05:46Z</time></trkpt><trkpt lat="42.252516759" lon="-1.518001444"><ele>339.002100</ele><time>2010-09-10T10:05:56Z</time></trkpt><trkpt lat="42.252430928" lon="-1.517937071"><ele>339.002100</ele><time>2010-09-10T10:06:00Z</time></trkpt><trkpt lat="42.252345097" lon="-1.517872698"><ele>338.040800</ele><time>2010-09-10T10:06:04Z</time></trkpt><trkpt lat="42.252151978" lon="-1.517829783"><ele>338.521500</ele><time>2010-09-10T10:06:12Z</time></trkpt><trkpt lat="42.251958859" lon="-1.517765410"><ele>337.560100</ele><time>2010-09-10T10:06:20Z</time></trkpt><trkpt lat="42.251873028" lon="-1.517765410"><ele>337.079500</ele><time>2010-09-10T10:06:24Z</time></trkpt><trkpt lat="42.251808655" lon="-1.517743952"><ele>338.040800</ele><time>2010-09-10T10:06:27Z</time></trkpt><trkpt lat="42.251765740" lon="-1.517743952"><ele>337.560100</ele><time>2010-09-10T10:06:29Z</time></trkpt><trkpt lat="42.251722825" lon="-1.517765410"><ele>337.560100</ele><time>2010-09-10T10:06:32Z</time></trkpt><trkpt lat="42.251701367" lon="-1.517765410"><ele>337.560100</ele><time>2010-09-10T10:06:33Z</time></trkpt><trkpt lat="42.251701367" lon="-1.517765410"><ele>338.040800</ele><time>2010-09-10T10:06:53Z</time></trkpt><trkpt lat="42.251722825" lon="-1.517765410"><ele>337.560100</ele><time>2010-09-10T10:07:18Z</time></trkpt><trkpt lat="42.251701367" lon="-1.517786868"><ele>337.079500</ele><time>2010-09-10T10:07:21Z</time></trkpt><trkpt lat="42.251701367" lon="-1.517765410"><ele>337.560100</ele><time>2010-09-10T10:07:22Z</time></trkpt><trkpt lat="42.251679909" lon="-1.517743952"><ele>338.040800</ele><time>2010-09-10T10:07:26Z</time></trkpt><trkpt lat="42.251701367" lon="-1.517743952"><ele>340.444100</ele><time>2010-09-10T10:08:29Z</time></trkpt><trkpt lat="42.251701367" lon="-1.517722495"><ele>339.482700</ele><time>2010-09-10T10:08:43Z</time></trkpt><trkpt lat="42.251679909" lon="-1.517722495"><ele>338.040800</ele><time>2010-09-10T10:08:55Z</time></trkpt><trkpt lat="42.251658452" lon="-1.517722495"><ele>338.040800</ele><time>2010-09-10T10:09:01Z</time></trkpt><trkpt lat="42.251508248" lon="-1.517829783"><ele>339.002100</ele><time>2010-09-10T10:09:08Z</time></trkpt><trkpt lat="42.251422417" lon="-1.517894156"><ele>338.040800</ele><time>2010-09-10T10:09:11Z</time></trkpt><trkpt lat="42.251315129" lon="-1.517979987"><ele>337.560100</ele><time>2010-09-10T10:09:16Z</time></trkpt><trkpt lat="42.251229298" lon="-1.518087275"><ele>337.079500</ele><time>2010-09-10T10:09:19Z</time></trkpt><trkpt lat="42.251143468" lon="-1.518173106"><ele>336.598900</ele><time>2010-09-10T10:09:22Z</time></trkpt><trkpt lat="42.251036179" lon="-1.518258936"><ele>336.598900</ele><time>2010-09-10T10:09:27Z</time></trkpt><trkpt lat="42.251014721" lon="-1.518280394"><ele>337.079500</ele><time>2010-09-10T10:09:28Z</time></trkpt><trkpt lat="42.250907433" lon="-1.518452056"><ele>335.156700</ele><time>2010-09-10T10:09:34Z</time></trkpt><trkpt lat="42.250864518" lon="-1.518537886"><ele>336.118200</ele><time>2010-09-10T10:09:37Z</time></trkpt><trkpt lat="42.250821602" lon="-1.518623717"><ele>335.637300</ele><time>2010-09-10T10:09:40Z</time></trkpt><trkpt lat="42.250714314" lon="-1.518859751"><ele>334.195400</ele><time>2010-09-10T10:09:47Z</time></trkpt><trkpt lat="42.250692856" lon="-1.518945582"><ele>333.714700</ele><time>2010-09-10T10:09:49Z</time></trkpt><trkpt lat="42.250692856" lon="-1.519117243"><ele>335.637300</ele><time>2010-09-10T10:09:55Z</time></trkpt><trkpt lat="42.250735772" lon="-1.519160159"><ele>336.118200</ele><time>2010-09-10T10:09:57Z</time></trkpt><trkpt lat="42.250735772" lon="-1.519181616"><ele>335.637300</ele><time>2010-09-10T10:09:58Z</time></trkpt><trkpt lat="42.250800145" lon="-1.519310362"><ele>336.118200</ele><time>2010-09-10T10:10:03Z</time></trkpt><trkpt lat="42.250821602" lon="-1.519396193"><ele>335.156700</ele><time>2010-09-10T10:10:06Z</time></trkpt><trkpt lat="42.250843060" lon="-1.519546397"><ele>336.118200</ele><time>2010-09-10T10:10:09Z</time></trkpt><trkpt lat="42.250800145" lon="-1.519739516"><ele>335.637300</ele><time>2010-09-10T10:10:14Z</time></trkpt><trkpt lat="42.250671399" lon="-1.520039923"><ele>334.195400</ele><time>2010-09-10T10:10:20Z</time></trkpt><trkpt lat="42.250671399" lon="-1.520082839"><ele>333.714700</ele><time>2010-09-10T10:10:21Z</time></trkpt><trkpt lat="42.250564110" lon="-1.520297415"><ele>333.714700</ele><time>2010-09-10T10:10:26Z</time></trkpt><trkpt lat="42.250521195" lon="-1.520383246"><ele>332.753500</ele><time>2010-09-10T10:10:28Z</time></trkpt><trkpt lat="42.250521195" lon="-1.520619280"><ele>333.234100</ele><time>2010-09-10T10:10:36Z</time></trkpt><trkpt lat="42.250542653" lon="-1.520683653"><ele>332.753500</ele><time>2010-09-10T10:10:38Z</time></trkpt><trkpt lat="42.250564110" lon="-1.520876772"><ele>332.753500</ele><time>2010-09-10T10:10:43Z</time></trkpt><trkpt lat="42.250499737" lon="-1.521026976"><ele>332.753500</ele><time>2010-09-10T10:10:48Z</time></trkpt><trkpt lat="42.250499737" lon="-1.521069892"><ele>333.234100</ele><time>2010-09-10T10:10:49Z</time></trkpt><trkpt lat="42.250456822" lon="-1.521155722"><ele>333.234100</ele><time>2010-09-10T10:10:52Z</time></trkpt><trkpt lat="42.250413907" lon="-1.521220095"><ele>333.234100</ele><time>2010-09-10T10:10:55Z</time></trkpt><trkpt lat="42.250263703" lon="-1.521241553"><ele>332.753500</ele><time>2010-09-10T10:11:00Z</time></trkpt><trkpt lat="42.250220788" lon="-1.521241553"><ele>332.272800</ele><time>2010-09-10T10:11:01Z</time></trkpt><trkpt lat="42.250134957" lon="-1.521284468"><ele>332.753500</ele><time>2010-09-10T10:11:04Z</time></trkpt><trkpt lat="42.250070584" lon="-1.521284468"><ele>332.272800</ele><time>2010-09-10T10:11:06Z</time></trkpt><trkpt lat="42.249813092" lon="-1.521348841"><ele>331.792100</ele><time>2010-09-10T10:11:13Z</time></trkpt><trkpt lat="42.249534142" lon="-1.521477587"><ele>331.792100</ele><time>2010-09-10T10:11:22Z</time></trkpt><trkpt lat="42.249383938" lon="-1.521541960"><ele>332.272800</ele><time>2010-09-10T10:11:27Z</time></trkpt><trkpt lat="42.249298108" lon="-1.521649249"><ele>333.234100</ele><time>2010-09-10T10:11:32Z</time></trkpt><trkpt lat="42.249255192" lon="-1.521670706"><ele>333.714700</ele><time>2010-09-10T10:11:34Z</time></trkpt><trkpt lat="42.249190819" lon="-1.521735079"><ele>334.676100</ele><time>2010-09-10T10:11:37Z</time></trkpt><trkpt lat="42.249083531" lon="-1.521777995"><ele>335.637300</ele><time>2010-09-10T10:11:42Z</time></trkpt><trkpt lat="42.249062073" lon="-1.521777995"><ele>336.118200</ele><time>2010-09-10T10:11:43Z</time></trkpt><trkpt lat="42.248976243" lon="-1.521777995"><ele>335.637300</ele><time>2010-09-10T10:11:46Z</time></trkpt><trkpt lat="42.248933327" lon="-1.521777995"><ele>336.118200</ele><time>2010-09-10T10:11:48Z</time></trkpt><trkpt lat="42.248804581" lon="-1.521756537"><ele>336.598900</ele><time>2010-09-10T10:11:53Z</time></trkpt><trkpt lat="42.248675835" lon="-1.521692164"><ele>334.195400</ele><time>2010-09-10T10:11:58Z</time></trkpt><trkpt lat="42.248590005" lon="-1.521606333"><ele>333.714700</ele><time>2010-09-10T10:12:01Z</time></trkpt><trkpt lat="42.248525632" lon="-1.521541960"><ele>333.714700</ele><time>2010-09-10T10:12:03Z</time></trkpt><trkpt lat="42.248311055" lon="-1.521370299"><ele>331.792100</ele><time>2010-09-10T10:12:12Z</time></trkpt><trkpt lat="42.248289597" lon="-1.521370299"><ele>332.272800</ele><time>2010-09-10T10:12:16Z</time></trkpt><trkpt lat="42.248289597" lon="-1.521370299"><ele>331.792100</ele><time>2010-09-10T10:12:19Z</time></trkpt><trkpt lat="42.248289597" lon="-1.521370299"><ele>331.311500</ele><time>2010-09-10T10:12:35Z</time></trkpt><trkpt lat="42.248289597" lon="-1.521348841"><ele>330.830900</ele><time>2010-09-10T10:13:34Z</time></trkpt><trkpt lat="42.248289597" lon="-1.521348841"><ele>330.350200</ele><time>2010-09-10T10:15:27Z</time></trkpt><trkpt lat="42.248289597" lon="-1.521348841"><ele>331.311500</ele><time>2010-09-10T10:15:41Z</time></trkpt><trkpt lat="42.248268139" lon="-1.521348841"><ele>330.830900</ele><time>2010-09-10T10:15:44Z</time></trkpt><trkpt lat="42.248268139" lon="-1.521348841"><ele>331.311500</ele><time>2010-09-10T10:15:45Z</time></trkpt><trkpt lat="42.248203766" lon="-1.521327384"><ele>330.830900</ele><time>2010-09-10T10:15:48Z</time></trkpt><trkpt lat="42.248139393" lon="-1.521305926"><ele>330.830900</ele><time>2010-09-10T10:15:51Z</time></trkpt><trkpt lat="42.248075020" lon="-1.521263011"><ele>330.350200</ele><time>2010-09-10T10:15:53Z</time></trkpt><trkpt lat="42.248010647" lon="-1.521241553"><ele>329.869500</ele><time>2010-09-10T10:15:56Z</time></trkpt><trkpt lat="42.247946274" lon="-1.521198638"><ele>328.908300</ele><time>2010-09-10T10:15:58Z</time></trkpt><trkpt lat="42.247881901" lon="-1.521177180"><ele>328.908300</ele><time>2010-09-10T10:16:02Z</time></trkpt><trkpt lat="42.247860444" lon="-1.521155722"><ele>328.908300</ele><time>2010-09-10T10:16:03Z</time></trkpt><trkpt lat="42.247753155" lon="-1.521069892"><ele>327.946800</ele><time>2010-09-10T10:16:09Z</time></trkpt><trkpt lat="42.247753155" lon="-1.521048434"><ele>327.466200</ele><time>2010-09-10T10:16:10Z</time></trkpt><trkpt lat="42.247710240" lon="-1.520984061"><ele>327.466200</ele><time>2010-09-10T10:16:12Z</time></trkpt><trkpt lat="42.247667325" lon="-1.520919688"><ele>326.985600</ele><time>2010-09-10T10:16:15Z</time></trkpt><trkpt lat="42.247602952" lon="-1.520769484"><ele>326.504900</ele><time>2010-09-10T10:16:20Z</time></trkpt><trkpt lat="42.247581494" lon="-1.520662196"><ele>325.543600</ele><time>2010-09-10T10:16:23Z</time></trkpt><trkpt lat="42.247538579" lon="-1.520576365"><ele>325.543600</ele><time>2010-09-10T10:16:26Z</time></trkpt><trkpt lat="42.247495663" lon="-1.520533450"><ele>325.063000</ele><time>2010-09-10T10:16:28Z</time></trkpt><trkpt lat="42.247431290" lon="-1.520469077"><ele>325.063000</ele><time>2010-09-10T10:16:31Z</time></trkpt><trkpt lat="42.247388375" lon="-1.520404704"><ele>324.582300</ele><time>2010-09-10T10:16:34Z</time></trkpt><trkpt lat="42.247345460" lon="-1.520340331"><ele>325.063000</ele><time>2010-09-10T10:16:37Z</time></trkpt><trkpt lat="42.247281087" lon="-1.520318873"><ele>324.582300</ele><time>2010-09-10T10:16:41Z</time></trkpt><trkpt lat="42.247281087" lon="-1.520318873"><ele>324.101600</ele><time>2010-09-10T10:16:42Z</time></trkpt><trkpt lat="42.247216714" lon="-1.520340331"><ele>323.140400</ele><time>2010-09-10T10:16:49Z</time></trkpt><trkpt lat="42.247195256" lon="-1.520340331"><ele>322.659700</ele><time>2010-09-10T10:16:50Z</time></trkpt><trkpt lat="42.247173798" lon="-1.520297415"><ele>321.217800</ele><time>2010-09-10T10:16:53Z</time></trkpt><trkpt lat="42.247173798" lon="-1.520233042"><ele>320.256300</ele><time>2010-09-10T10:16:56Z</time></trkpt><trkpt lat="42.247173798" lon="-1.520233042"><ele>320.256300</ele><time>2010-09-10T10:16:57Z</time></trkpt><trkpt lat="42.247216714" lon="-1.519997008"><ele>321.217800</ele><time>2010-09-10T10:17:06Z</time></trkpt><trkpt lat="42.247238171" lon="-1.519975550"><ele>321.698400</ele><time>2010-09-10T10:17:07Z</time></trkpt><trkpt lat="42.247238171" lon="-1.519911177"><ele>324.101600</ele><time>2010-09-10T10:17:10Z</time></trkpt><trkpt lat="42.247238171" lon="-1.519889720"><ele>324.582300</ele><time>2010-09-10T10:17:11Z</time></trkpt><trkpt lat="42.247238171" lon="-1.519846804"><ele>325.543600</ele><time>2010-09-10T10:17:13Z</time></trkpt><trkpt lat="42.247216714" lon="-1.519803889"><ele>325.543600</ele><time>2010-09-10T10:17:15Z</time></trkpt><trkpt lat="42.247195256" lon="-1.519782431"><ele>326.024200</ele><time>2010-09-10T10:17:19Z</time></trkpt><trkpt lat="42.247195256" lon="-1.519782431"><ele>326.024200</ele><time>2010-09-10T10:17:20Z</time></trkpt><trkpt lat="42.247173798" lon="-1.519782431"><ele>324.582300</ele><time>2010-09-10T10:17:23Z</time></trkpt><trkpt lat="42.247195256" lon="-1.519760974"><ele>323.140400</ele><time>2010-09-10T10:19:00Z</time></trkpt><trkpt lat="42.247195256" lon="-1.519760974"><ele>323.621000</ele><time>2010-09-10T10:19:04Z</time></trkpt><trkpt lat="42.247109425" lon="-1.519675143"><ele>323.140400</ele><time>2010-09-10T10:19:09Z</time></trkpt><trkpt lat="42.247002137" lon="-1.519632227"><ele>323.140400</ele><time>2010-09-10T10:19:13Z</time></trkpt><trkpt lat="42.246937764" lon="-1.519610770"><ele>322.179000</ele><time>2010-09-10T10:19:15Z</time></trkpt><trkpt lat="42.246830475" lon="-1.519567854"><ele>322.659700</ele><time>2010-09-10T10:19:18Z</time></trkpt><trkpt lat="42.246766102" lon="-1.519546397"><ele>322.659700</ele><time>2010-09-10T10:19:20Z</time></trkpt><trkpt lat="42.246294034" lon="-1.519482024"><ele>322.659700</ele><time>2010-09-10T10:19:30Z</time></trkpt><trkpt lat="42.245993626" lon="-1.519439108"><ele>322.179000</ele><time>2010-09-10T10:19:36Z</time></trkpt><trkpt lat="42.245457184" lon="-1.519524939"><ele>318.333600</ele><time>2010-09-10T10:19:46Z</time></trkpt><trkpt lat="42.245178235" lon="-1.519439108"><ele>317.853000</ele><time>2010-09-10T10:19:52Z</time></trkpt><trkpt lat="42.245092404" lon="-1.519396193"><ele>317.372400</ele><time>2010-09-10T10:19:54Z</time></trkpt><trkpt lat="42.244598878" lon="-1.519267447"><ele>316.411000</ele><time>2010-09-10T10:20:05Z</time></trkpt><trkpt lat="42.244148266" lon="-1.519203074"><ele>315.930400</ele><time>2010-09-10T10:20:15Z</time></trkpt><trkpt lat="42.244019520" lon="-1.519138701"><ele>315.930400</ele><time>2010-09-10T10:20:18Z</time></trkpt><trkpt lat="42.243976605" lon="-1.519117243"><ele>315.930400</ele><time>2010-09-10T10:20:19Z</time></trkpt><trkpt lat="42.243890774" lon="-1.519052870"><ele>314.969100</ele><time>2010-09-10T10:20:21Z</time></trkpt><trkpt lat="42.243762028" lon="-1.518816836"><ele>314.007800</ele><time>2010-09-10T10:20:26Z</time></trkpt><trkpt lat="42.243740571" lon="-1.518752463"><ele>314.969100</ele><time>2010-09-10T10:20:27Z</time></trkpt><trkpt lat="42.243332875" lon="-1.518688090"><ele>313.527200</ele><time>2010-09-10T10:20:36Z</time></trkpt><trkpt lat="42.242732060" lon="-1.518902667"><ele>313.046500</ele><time>2010-09-10T10:20:51Z</time></trkpt><trkpt lat="42.242603314" lon="-1.518902667"><ele>313.046500</ele><time>2010-09-10T10:20:54Z</time></trkpt><trkpt lat="42.242517483" lon="-1.518666632"><ele>313.046500</ele><time>2010-09-10T10:21:00Z</time></trkpt><trkpt lat="42.242517483" lon="-1.518516429"><ele>313.046500</ele><time>2010-09-10T10:21:03Z</time></trkpt><trkpt lat="42.242603314" lon="-1.517829783"><ele>314.007800</ele><time>2010-09-10T10:21:18Z</time></trkpt><trkpt lat="42.242710602" lon="-1.517615206"><ele>313.527200</ele><time>2010-09-10T10:21:23Z</time></trkpt><trkpt lat="42.242839348" lon="-1.517443545"><ele>314.007800</ele><time>2010-09-10T10:21:28Z</time></trkpt><trkpt lat="42.243332875" lon="-1.517164595"><ele>314.969100</ele><time>2010-09-10T10:21:44Z</time></trkpt><trkpt lat="42.243547452" lon="-1.517121680"><ele>315.930400</ele><time>2010-09-10T10:21:51Z</time></trkpt><trkpt lat="42.243676198" lon="-1.517014391"><ele>315.930400</ele><time>2010-09-10T10:21:56Z</time></trkpt><trkpt lat="42.243719113" lon="-1.516928561"><ele>316.891700</ele><time>2010-09-10T10:21:58Z</time></trkpt><trkpt lat="42.243762028" lon="-1.516628153"><ele>316.891700</ele><time>2010-09-10T10:22:05Z</time></trkpt><trkpt lat="42.244105351" lon="-1.515641100"><ele>317.853000</ele><time>2010-09-10T10:22:28Z</time></trkpt><trkpt lat="42.244513047" lon="-1.514503844"><ele>318.333600</ele><time>2010-09-10T10:22:53Z</time></trkpt><trkpt lat="42.244727624" lon="-1.514096148"><ele>319.775600</ele><time>2010-09-10T10:23:04Z</time></trkpt><trkpt lat="42.244813454" lon="-1.514053233"><ele>319.775600</ele><time>2010-09-10T10:23:07Z</time></trkpt><trkpt lat="42.244877827" lon="-1.514010317"><ele>319.295000</ele><time>2010-09-10T10:23:09Z</time></trkpt><trkpt lat="42.244985116" lon="-1.513988860"><ele>319.295000</ele><time>2010-09-10T10:23:13Z</time></trkpt><trkpt lat="42.245135319" lon="-1.514031775"><ele>319.775600</ele><time>2010-09-10T10:23:18Z</time></trkpt><trkpt lat="42.245392811" lon="-1.514074690"><ele>322.179000</ele><time>2010-09-10T10:23:28Z</time></trkpt><trkpt lat="42.245457184" lon="-1.514096148"><ele>322.179000</ele><time>2010-09-10T10:23:31Z</time></trkpt><trkpt lat="42.246165288" lon="-1.513967402"><ele>323.621000</ele><time>2010-09-10T10:23:58Z</time></trkpt><trkpt lat="42.246508610" lon="-1.513881571"><ele>326.024200</ele><time>2010-09-10T10:24:14Z</time></trkpt><trkpt lat="42.246658814" lon="-1.513752825"><ele>327.466200</ele><time>2010-09-10T10:24:23Z</time></trkpt><trkpt lat="42.246873391" lon="-1.513559706"><ele>328.908300</ele><time>2010-09-10T10:24:36Z</time></trkpt><trkpt lat="42.246959221" lon="-1.513495333"><ele>329.869500</ele><time>2010-09-10T10:24:41Z</time></trkpt><trkpt lat="42.247087967" lon="-1.513430960"><ele>331.311500</ele><time>2010-09-10T10:24:48Z</time></trkpt><trkpt lat="42.247130883" lon="-1.513409503"><ele>331.311500</ele><time>2010-09-10T10:24:50Z</time></trkpt><trkpt lat="42.247173798" lon="-1.513388045"><ele>332.272800</ele><time>2010-09-10T10:24:53Z</time></trkpt><trkpt lat="42.247259629" lon="-1.513345130"><ele>333.234100</ele><time>2010-09-10T10:24:58Z</time></trkpt><trkpt lat="42.247366917" lon="-1.513302214"><ele>333.234100</ele><time>2010-09-10T10:25:05Z</time></trkpt><trkpt lat="42.247409833" lon="-1.513280757"><ele>334.195400</ele><time>2010-09-10T10:25:07Z</time></trkpt><trkpt lat="42.247452748" lon="-1.513259299"><ele>336.118200</ele><time>2010-09-10T10:25:10Z</time></trkpt><trkpt lat="42.247517121" lon="-1.513237841"><ele>337.079500</ele><time>2010-09-10T10:25:13Z</time></trkpt><trkpt lat="42.247538579" lon="-1.513237841"><ele>337.079500</ele><time>2010-09-10T10:25:14Z</time></trkpt><trkpt lat="42.247581494" lon="-1.513216384"><ele>338.040800</ele><time>2010-09-10T10:25:17Z</time></trkpt><trkpt lat="42.247602952" lon="-1.513216384"><ele>338.040800</ele><time>2010-09-10T10:25:18Z</time></trkpt><trkpt lat="42.247667325" lon="-1.513194926"><ele>338.040800</ele><time>2010-09-10T10:25:22Z</time></trkpt><trkpt lat="42.247731698" lon="-1.513173468"><ele>337.560100</ele><time>2010-09-10T10:25:26Z</time></trkpt><trkpt lat="42.247753155" lon="-1.513152010"><ele>338.040800</ele><time>2010-09-10T10:25:27Z</time></trkpt><trkpt lat="42.247989190" lon="-1.513023264"><ele>340.924700</ele><time>2010-09-10T10:25:42Z</time></trkpt><trkpt lat="42.248096478" lon="-1.512873061"><ele>343.327900</ele><time>2010-09-10T10:25:51Z</time></trkpt><trkpt lat="42.248160851" lon="-1.512722857"><ele>344.770000</ele><time>2010-09-10T10:25:58Z</time></trkpt><trkpt lat="42.248225224" lon="-1.512615569"><ele>345.250600</ele><time>2010-09-10T10:26:03Z</time></trkpt><trkpt lat="42.248289597" lon="-1.512508280"><ele>346.692600</ele><time>2010-09-10T10:26:09Z</time></trkpt><trkpt lat="42.248311055" lon="-1.512486823"><ele>346.212000</ele><time>2010-09-10T10:26:11Z</time></trkpt><trkpt lat="42.248396885" lon="-1.512443907"><ele>347.653900</ele><time>2010-09-10T10:26:16Z</time></trkpt><trkpt lat="42.248525632" lon="-1.512379534"><ele>349.095800</ele><time>2010-09-10T10:26:24Z</time></trkpt><trkpt lat="42.248590005" lon="-1.512379534"><ele>349.095800</ele><time>2010-09-10T10:26:28Z</time></trkpt><trkpt lat="42.248675835" lon="-1.512379534"><ele>349.576500</ele><time>2010-09-10T10:26:33Z</time></trkpt><trkpt lat="42.248847497" lon="-1.512379534"><ele>350.057300</ele><time>2010-09-10T10:26:41Z</time></trkpt><trkpt lat="42.248890412" lon="-1.512400992"><ele>350.537800</ele><time>2010-09-10T10:26:44Z</time></trkpt><trkpt lat="42.248933327" lon="-1.512400992"><ele>351.018400</ele><time>2010-09-10T10:26:46Z</time></trkpt><trkpt lat="42.248997700" lon="-1.512400992"><ele>351.018400</ele><time>2010-09-10T10:26:49Z</time></trkpt><trkpt lat="42.249062073" lon="-1.512422450"><ele>351.499100</ele><time>2010-09-10T10:26:53Z</time></trkpt><trkpt lat="42.249126446" lon="-1.512422450"><ele>351.979900</ele><time>2010-09-10T10:26:56Z</time></trkpt><trkpt lat="42.249233735" lon="-1.512443907"><ele>352.460600</ele><time>2010-09-10T10:27:02Z</time></trkpt><trkpt lat="42.249362481" lon="-1.512486823"><ele>354.383200</ele><time>2010-09-10T10:27:09Z</time></trkpt><trkpt lat="42.249534142" lon="-1.512529738"><ele>355.344500</ele><time>2010-09-10T10:27:18Z</time></trkpt><trkpt lat="42.249598515" lon="-1.512551196"><ele>356.305800</ele><time>2010-09-10T10:27:22Z</time></trkpt><trkpt lat="42.249619973" lon="-1.512572653"><ele>356.305800</ele><time>2010-09-10T10:27:24Z</time></trkpt><trkpt lat="42.249684346" lon="-1.512572653"><ele>356.305800</ele><time>2010-09-10T10:27:27Z</time></trkpt><trkpt lat="42.249748719" lon="-1.512615569"><ele>357.267100</ele><time>2010-09-10T10:27:31Z</time></trkpt><trkpt lat="42.249813092" lon="-1.512615569"><ele>358.228400</ele><time>2010-09-10T10:27:35Z</time></trkpt><trkpt lat="42.249856007" lon="-1.512658484"><ele>359.189700</ele><time>2010-09-10T10:27:38Z</time></trkpt><trkpt lat="42.249898923" lon="-1.512679942"><ele>359.670400</ele><time>2010-09-10T10:27:41Z</time></trkpt><trkpt lat="42.249963296" lon="-1.512722857"><ele>360.631700</ele><time>2010-09-10T10:27:44Z</time></trkpt><trkpt lat="42.249984753" lon="-1.512744315"><ele>361.593100</ele><time>2010-09-10T10:27:46Z</time></trkpt><trkpt lat="42.250049126" lon="-1.512787230"><ele>361.593100</ele><time>2010-09-10T10:27:50Z</time></trkpt><trkpt lat="42.250134957" lon="-1.512851603"><ele>362.073700</ele><time>2010-09-10T10:27:55Z</time></trkpt><trkpt lat="42.250156415" lon="-1.512873061"><ele>362.554300</ele><time>2010-09-10T10:27:57Z</time></trkpt><trkpt lat="42.250220788" lon="-1.512915976"><ele>362.554300</ele><time>2010-09-10T10:28:01Z</time></trkpt><trkpt lat="42.250285161" lon="-1.512980349"><ele>363.035000</ele><time>2010-09-10T10:28:05Z</time></trkpt><trkpt lat="42.250349534" lon="-1.513023264"><ele>363.035000</ele><time>2010-09-10T10:28:08Z</time></trkpt><trkpt lat="42.250692856" lon="-1.513237841"><ele>365.438400</ele><time>2010-09-10T10:28:28Z</time></trkpt><trkpt lat="42.250800145" lon="-1.513280757"><ele>366.399500</ele><time>2010-09-10T10:28:34Z</time></trkpt><trkpt lat="42.250971806" lon="-1.513366587"><ele>368.322300</ele><time>2010-09-10T10:28:45Z</time></trkpt><trkpt lat="42.251036179" lon="-1.513388045"><ele>369.764300</ele><time>2010-09-10T10:28:49Z</time></trkpt><trkpt lat="42.251079094" lon="-1.513409503"><ele>369.283700</ele><time>2010-09-10T10:28:51Z</time></trkpt><trkpt lat="42.251122010" lon="-1.513409503"><ele>371.206300</ele><time>2010-09-10T10:28:54Z</time></trkpt><trkpt lat="42.251143468" lon="-1.513430960"><ele>371.206300</ele><time>2010-09-10T10:28:55Z</time></trkpt><trkpt lat="42.251207841" lon="-1.513452418"><ele>371.686900</ele><time>2010-09-10T10:28:58Z</time></trkpt><trkpt lat="42.251229298" lon="-1.513452418"><ele>371.206300</ele><time>2010-09-10T10:29:00Z</time></trkpt><trkpt lat="42.251293671" lon="-1.513473876"><ele>372.648200</ele><time>2010-09-10T10:29:03Z</time></trkpt><trkpt lat="42.251315129" lon="-1.513473876"><ele>373.128900</ele><time>2010-09-10T10:29:04Z</time></trkpt><trkpt lat="42.251336587" lon="-1.513473876"><ele>374.090100</ele><time>2010-09-10T10:29:06Z</time></trkpt><trkpt lat="42.251422417" lon="-1.513495333"><ele>374.570800</ele><time>2010-09-10T10:29:11Z</time></trkpt><trkpt lat="42.251572621" lon="-1.513538249"><ele>376.012800</ele><time>2010-09-10T10:29:19Z</time></trkpt><trkpt lat="42.251787198" lon="-1.513602622"><ele>376.493500</ele><time>2010-09-10T10:29:31Z</time></trkpt><trkpt lat="42.251851571" lon="-1.513624079"><ele>376.974200</ele><time>2010-09-10T10:29:34Z</time></trkpt><trkpt lat="42.251958859" lon="-1.513645537"><ele>377.935400</ele><time>2010-09-10T10:29:40Z</time></trkpt><trkpt lat="42.252066147" lon="-1.513688452"><ele>379.377400</ele><time>2010-09-10T10:29:47Z</time></trkpt><trkpt lat="42.252151978" lon="-1.513688452"><ele>379.377400</ele><time>2010-09-10T10:29:51Z</time></trkpt><trkpt lat="42.252173436" lon="-1.513688452"><ele>378.896900</ele><time>2010-09-10T10:29:52Z</time></trkpt><trkpt lat="42.252216351" lon="-1.513666995"><ele>380.338700</ele><time>2010-09-10T10:29:55Z</time></trkpt><trkpt lat="42.252302182" lon="-1.513645537"><ele>380.819500</ele><time>2010-09-10T10:30:00Z</time></trkpt><trkpt lat="42.252366555" lon="-1.513624079"><ele>381.300000</ele><time>2010-09-10T10:30:03Z</time></trkpt><trkpt lat="42.252473843" lon="-1.513624079"><ele>383.222700</ele><time>2010-09-10T10:30:09Z</time></trkpt><trkpt lat="42.252495301" lon="-1.513624079"><ele>384.184100</ele><time>2010-09-10T10:30:11Z</time></trkpt><trkpt lat="42.252538216" lon="-1.513624079"><ele>383.703200</ele><time>2010-09-10T10:30:13Z</time></trkpt><trkpt lat="42.252645505" lon="-1.513581164"><ele>384.664800</ele><time>2010-09-10T10:30:20Z</time></trkpt><trkpt lat="42.252666962" lon="-1.513581164"><ele>384.664800</ele><time>2010-09-10T10:30:21Z</time></trkpt><trkpt lat="42.252860081" lon="-1.513581164"><ele>387.068000</ele><time>2010-09-10T10:30:31Z</time></trkpt><trkpt lat="42.252924454" lon="-1.513581164"><ele>387.548600</ele><time>2010-09-10T10:30:34Z</time></trkpt><trkpt lat="42.252945912" lon="-1.513581164"><ele>387.068000</ele><time>2010-09-10T10:30:36Z</time></trkpt><trkpt lat="42.252988827" lon="-1.513602622"><ele>388.510000</ele><time>2010-09-10T10:30:38Z</time></trkpt><trkpt lat="42.253053200" lon="-1.513602622"><ele>388.029300</ele><time>2010-09-10T10:30:41Z</time></trkpt><trkpt lat="42.253160489" lon="-1.513645537"><ele>389.471200</ele><time>2010-09-10T10:30:47Z</time></trkpt><trkpt lat="42.253246319" lon="-1.513666995"><ele>389.951900</ele><time>2010-09-10T10:30:53Z</time></trkpt><trkpt lat="42.253353608" lon="-1.513688452"><ele>390.913200</ele><time>2010-09-10T10:30:59Z</time></trkpt><trkpt lat="42.253439438" lon="-1.513688452"><ele>390.913200</ele><time>2010-09-10T10:31:03Z</time></trkpt><trkpt lat="42.253482354" lon="-1.513688452"><ele>391.393800</ele><time>2010-09-10T10:31:06Z</time></trkpt><trkpt lat="42.253568184" lon="-1.513688452"><ele>392.355300</ele><time>2010-09-10T10:31:10Z</time></trkpt><trkpt lat="42.253611100" lon="-1.513688452"><ele>393.316500</ele><time>2010-09-10T10:31:13Z</time></trkpt><trkpt lat="42.253675473" lon="-1.513688452"><ele>394.758500</ele><time>2010-09-10T10:31:16Z</time></trkpt><trkpt lat="42.253696930" lon="-1.513688452"><ele>395.719800</ele><time>2010-09-10T10:31:18Z</time></trkpt><trkpt lat="42.253761304" lon="-1.513688452"><ele>395.719800</ele><time>2010-09-10T10:31:21Z</time></trkpt><trkpt lat="42.253782761" lon="-1.513666995"><ele>395.239100</ele><time>2010-09-10T10:31:22Z</time></trkpt><trkpt lat="42.253868592" lon="-1.513666995"><ele>396.681200</ele><time>2010-09-10T10:31:27Z</time></trkpt><trkpt lat="42.253890050" lon="-1.513666995"><ele>396.681200</ele><time>2010-09-10T10:31:28Z</time></trkpt><trkpt lat="42.253932965" lon="-1.513645537"><ele>397.642500</ele><time>2010-09-10T10:31:31Z</time></trkpt><trkpt lat="42.253997338" lon="-1.513624079"><ele>398.603800</ele><time>2010-09-10T10:31:35Z</time></trkpt><trkpt lat="42.254040253" lon="-1.513624079"><ele>399.084400</ele><time>2010-09-10T10:31:39Z</time></trkpt><trkpt lat="42.254061711" lon="-1.513624079"><ele>399.084400</ele><time>2010-09-10T10:31:40Z</time></trkpt><trkpt lat="42.254104626" lon="-1.513624079"><ele>398.603800</ele><time>2010-09-10T10:31:47Z</time></trkpt><trkpt lat="42.254104626" lon="-1.513624079"><ele>398.603800</ele><time>2010-09-10T10:31:48Z</time></trkpt><trkpt lat="42.254147542" lon="-1.513624079"><ele>399.084400</ele><time>2010-09-10T10:34:17Z</time></trkpt><trkpt lat="42.254147542" lon="-1.513624079"><ele>401.968500</ele><time>2010-09-10T10:34:36Z</time></trkpt><trkpt lat="42.254147542" lon="-1.513624079"><ele>401.487800</ele><time>2010-09-10T10:34:37Z</time></trkpt><trkpt lat="42.254126084" lon="-1.513624079"><ele>400.526500</ele><time>2010-09-10T10:34:54Z</time></trkpt><trkpt lat="42.254126084" lon="-1.513624079"><ele>400.526500</ele><time>2010-09-10T10:34:56Z</time></trkpt><trkpt lat="42.254126084" lon="-1.513602622"><ele>400.526500</ele><time>2010-09-10T10:35:09Z</time></trkpt><trkpt lat="42.254190457" lon="-1.513559706"><ele>400.045900</ele><time>2010-09-10T10:35:15Z</time></trkpt><trkpt lat="42.254211915" lon="-1.513559706"><ele>400.526500</ele><time>2010-09-10T10:35:17Z</time></trkpt><trkpt lat="42.254319203" lon="-1.513516791"><ele>401.007100</ele><time>2010-09-10T10:35:23Z</time></trkpt><trkpt lat="42.254362118" lon="-1.513495333"><ele>401.487800</ele><time>2010-09-10T10:35:26Z</time></trkpt><trkpt lat="42.254405034" lon="-1.513495333"><ele>401.487800</ele><time>2010-09-10T10:35:28Z</time></trkpt><trkpt lat="42.254447949" lon="-1.513473876"><ele>401.487800</ele><time>2010-09-10T10:35:31Z</time></trkpt><trkpt lat="42.254576695" lon="-1.513430960"><ele>402.929700</ele><time>2010-09-10T10:35:38Z</time></trkpt><trkpt lat="42.254619610" lon="-1.513409503"><ele>402.449100</ele><time>2010-09-10T10:35:40Z</time></trkpt><trkpt lat="42.254662526" lon="-1.513409503"><ele>403.410400</ele><time>2010-09-10T10:35:43Z</time></trkpt><trkpt lat="42.254705441" lon="-1.513388045"><ele>402.449100</ele><time>2010-09-10T10:35:45Z</time></trkpt><trkpt lat="42.254812729" lon="-1.513366587"><ele>403.891100</ele><time>2010-09-10T10:35:51Z</time></trkpt><trkpt lat="42.254855645" lon="-1.513366587"><ele>404.371700</ele><time>2010-09-10T10:35:54Z</time></trkpt><trkpt lat="42.254941475" lon="-1.513345130"><ele>404.852300</ele><time>2010-09-10T10:35:59Z</time></trkpt><trkpt lat="42.255005848" lon="-1.513323672"><ele>405.333000</ele><time>2010-09-10T10:36:02Z</time></trkpt><trkpt lat="42.255156052" lon="-1.513302214"><ele>406.294300</ele><time>2010-09-10T10:36:10Z</time></trkpt><trkpt lat="42.255198968" lon="-1.513280757"><ele>406.774900</ele><time>2010-09-10T10:36:13Z</time></trkpt><trkpt lat="42.255284798" lon="-1.513259299"><ele>406.774900</ele><time>2010-09-10T10:36:17Z</time></trkpt><trkpt lat="42.255306256" lon="-1.513259299"><ele>406.774900</ele><time>2010-09-10T10:36:19Z</time></trkpt><trkpt lat="42.255370629" lon="-1.513237841"><ele>407.736300</ele><time>2010-09-10T10:36:22Z</time></trkpt><trkpt lat="42.255456460" lon="-1.513237841"><ele>407.255600</ele><time>2010-09-10T10:36:26Z</time></trkpt><trkpt lat="42.255585206" lon="-1.513194926"><ele>408.217000</ele><time>2010-09-10T10:36:32Z</time></trkpt><trkpt lat="42.255671036" lon="-1.513173468"><ele>409.178300</ele><time>2010-09-10T10:36:37Z</time></trkpt><trkpt lat="42.255735409" lon="-1.513173468"><ele>409.659100</ele><time>2010-09-10T10:36:40Z</time></trkpt><trkpt lat="42.255799782" lon="-1.513130553"><ele>409.659100</ele><time>2010-09-10T10:36:44Z</time></trkpt><trkpt lat="42.255842698" lon="-1.513130553"><ele>410.139600</ele><time>2010-09-10T10:36:46Z</time></trkpt><trkpt lat="42.255907071" lon="-1.513109095"><ele>410.620200</ele><time>2010-09-10T10:36:50Z</time></trkpt><trkpt lat="42.255949986" lon="-1.513109095"><ele>411.101000</ele><time>2010-09-10T10:36:52Z</time></trkpt><trkpt lat="42.255992901" lon="-1.513109095"><ele>411.101000</ele><time>2010-09-10T10:36:55Z</time></trkpt><trkpt lat="42.256100190" lon="-1.513087637"><ele>410.620200</ele><time>2010-09-10T10:37:00Z</time></trkpt><trkpt lat="42.256186020" lon="-1.513087637"><ele>412.062300</ele><time>2010-09-10T10:37:04Z</time></trkpt><trkpt lat="42.256271851" lon="-1.513087637"><ele>412.062300</ele><time>2010-09-10T10:37:09Z</time></trkpt><trkpt lat="42.256572259" lon="-1.513109095"><ele>413.023600</ele><time>2010-09-10T10:37:23Z</time></trkpt><trkpt lat="42.256743920" lon="-1.513173468"><ele>413.023600</ele><time>2010-09-10T10:37:32Z</time></trkpt><trkpt lat="42.256829751" lon="-1.513216384"><ele>413.023600</ele><time>2010-09-10T10:37:37Z</time></trkpt><trkpt lat="42.256872666" lon="-1.513237841"><ele>413.504300</ele><time>2010-09-10T10:37:39Z</time></trkpt><trkpt lat="42.256937039" lon="-1.513280757"><ele>413.504300</ele><time>2010-09-10T10:37:43Z</time></trkpt><trkpt lat="42.257001412" lon="-1.513323672"><ele>414.465500</ele><time>2010-09-10T10:37:47Z</time></trkpt><trkpt lat="42.257065785" lon="-1.513345130"><ele>415.426900</ele><time>2010-09-10T10:37:50Z</time></trkpt><trkpt lat="42.257151616" lon="-1.513366587"><ele>416.868900</ele><time>2010-09-10T10:37:55Z</time></trkpt><trkpt lat="42.257258904" lon="-1.513366587"><ele>418.310800</ele><time>2010-09-10T10:38:01Z</time></trkpt><trkpt lat="42.257280362" lon="-1.513366587"><ele>419.272200</ele><time>2010-09-10T10:38:03Z</time></trkpt><trkpt lat="42.257366192" lon="-1.513388045"><ele>419.272200</ele><time>2010-09-10T10:38:09Z</time></trkpt><trkpt lat="42.257409108" lon="-1.513388045"><ele>419.752800</ele><time>2010-09-10T10:38:12Z</time></trkpt><trkpt lat="42.257452023" lon="-1.513388045"><ele>419.752800</ele><time>2010-09-10T10:38:15Z</time></trkpt><trkpt lat="42.257473481" lon="-1.513409503"><ele>420.233400</ele><time>2010-09-10T10:38:18Z</time></trkpt><trkpt lat="42.257473481" lon="-1.513409503"><ele>419.752800</ele><time>2010-09-10T10:38:41Z</time></trkpt><trkpt lat="42.257473481" lon="-1.513409503"><ele>419.752800</ele><time>2010-09-10T10:39:13Z</time></trkpt><trkpt lat="42.257473481" lon="-1.513409503"><ele>420.233400</ele><time>2010-09-10T10:39:17Z</time></trkpt><trkpt lat="42.257580769" lon="-1.513452418"><ele>420.714100</ele><time>2010-09-10T10:39:24Z</time></trkpt><trkpt lat="42.257602227" lon="-1.513495333"><ele>421.675400</ele><time>2010-09-10T10:39:26Z</time></trkpt><trkpt lat="42.257645142" lon="-1.513559706"><ele>421.194800</ele><time>2010-09-10T10:39:29Z</time></trkpt><trkpt lat="42.257688058" lon="-1.513624079"><ele>423.117400</ele><time>2010-09-10T10:39:33Z</time></trkpt><trkpt lat="42.257688058" lon="-1.513666995"><ele>423.117400</ele><time>2010-09-10T10:39:34Z</time></trkpt><trkpt lat="42.257730973" lon="-1.513795741"><ele>426.482100</ele><time>2010-09-10T10:39:40Z</time></trkpt><trkpt lat="42.257730973" lon="-1.513817198"><ele>426.482100</ele><time>2010-09-10T10:39:41Z</time></trkpt><trkpt lat="42.257816804" lon="-1.514139063"><ele>429.366000</ele><time>2010-09-10T10:39:54Z</time></trkpt><trkpt lat="42.257838261" lon="-1.514332182"><ele>431.288600</ele><time>2010-09-10T10:40:02Z</time></trkpt><trkpt lat="42.257859719" lon="-1.514396555"><ele>431.288600</ele><time>2010-09-10T10:40:05Z</time></trkpt><trkpt lat="42.257881177" lon="-1.514503844"><ele>431.769200</ele><time>2010-09-10T10:40:10Z</time></trkpt><trkpt lat="42.257902634" lon="-1.514696963"><ele>432.250000</ele><time>2010-09-10T10:40:19Z</time></trkpt><trkpt lat="42.257902634" lon="-1.514739878"><ele>432.730700</ele><time>2010-09-10T10:40:21Z</time></trkpt><trkpt lat="42.257924092" lon="-1.514890082"><ele>434.172600</ele><time>2010-09-10T10:40:27Z</time></trkpt><trkpt lat="42.257945550" lon="-1.514954455"><ele>434.653300</ele><time>2010-09-10T10:40:30Z</time></trkpt><trkpt lat="42.258009923" lon="-1.515083201"><ele>435.133900</ele><time>2010-09-10T10:40:37Z</time></trkpt><trkpt lat="42.258031380" lon="-1.515147574"><ele>435.614500</ele><time>2010-09-10T10:40:40Z</time></trkpt><trkpt lat="42.258074296" lon="-1.515254862"><ele>436.575900</ele><time>2010-09-10T10:40:45Z</time></trkpt><trkpt lat="42.258138669" lon="-1.515362151"><ele>438.498500</ele><time>2010-09-10T10:40:51Z</time></trkpt><trkpt lat="42.258160126" lon="-1.515426524"><ele>439.459700</ele><time>2010-09-10T10:40:54Z</time></trkpt><trkpt lat="42.258181584" lon="-1.515469439"><ele>438.979100</ele><time>2010-09-10T10:40:56Z</time></trkpt><trkpt lat="42.258224499" lon="-1.515598185"><ele>439.459700</ele><time>2010-09-10T10:41:01Z</time></trkpt><trkpt lat="42.258245957" lon="-1.515641100"><ele>438.979100</ele><time>2010-09-10T10:41:03Z</time></trkpt><trkpt lat="42.258267415" lon="-1.515748389"><ele>439.940400</ele><time>2010-09-10T10:41:07Z</time></trkpt><trkpt lat="42.258288872" lon="-1.515812762"><ele>439.940400</ele><time>2010-09-10T10:41:10Z</time></trkpt><trkpt lat="42.258331788" lon="-1.515898593"><ele>441.382400</ele><time>2010-09-10T10:41:14Z</time></trkpt><trkpt lat="42.258374703" lon="-1.515984423"><ele>441.382400</ele><time>2010-09-10T10:41:18Z</time></trkpt><trkpt lat="42.258460534" lon="-1.516134627"><ele>441.863200</ele><time>2010-09-10T10:41:26Z</time></trkpt><trkpt lat="42.258481991" lon="-1.516199000"><ele>442.343900</ele><time>2010-09-10T10:41:31Z</time></trkpt><trkpt lat="42.258481991" lon="-1.516220458"><ele>441.863200</ele><time>2010-09-10T10:41:32Z</time></trkpt><trkpt lat="42.258503449" lon="-1.516392119"><ele>441.863200</ele><time>2010-09-10T10:41:39Z</time></trkpt><trkpt lat="42.258503449" lon="-1.516435034"><ele>441.863200</ele><time>2010-09-10T10:41:40Z</time></trkpt><trkpt lat="42.258503449" lon="-1.516671069"><ele>441.382400</ele><time>2010-09-10T10:41:48Z</time></trkpt><trkpt lat="42.258503449" lon="-1.516799815"><ele>441.382400</ele><time>2010-09-10T10:41:52Z</time></trkpt><trkpt lat="42.258524907" lon="-1.516864188"><ele>441.382400</ele><time>2010-09-10T10:41:55Z</time></trkpt><trkpt lat="42.258524907" lon="-1.516907103"><ele>441.382400</ele><time>2010-09-10T10:41:57Z</time></trkpt><trkpt lat="42.258546364" lon="-1.516971476"><ele>440.901900</ele><time>2010-09-10T10:42:05Z</time></trkpt><trkpt lat="42.258546364" lon="-1.516971476"><ele>439.940400</ele><time>2010-09-10T10:46:08Z</time></trkpt><trkpt lat="42.258546364" lon="-1.516950018"><ele>440.421300</ele><time>2010-09-10T10:46:11Z</time></trkpt><trkpt lat="42.258546364" lon="-1.516950018"><ele>440.901900</ele><time>2010-09-10T10:46:25Z</time></trkpt><trkpt lat="42.258546364" lon="-1.516950018"><ele>440.421300</ele><time>2010-09-10T10:46:33Z</time></trkpt><trkpt lat="42.258589280" lon="-1.517035849"><ele>440.421300</ele><time>2010-09-10T10:46:41Z</time></trkpt><trkpt lat="42.258632195" lon="-1.517100222"><ele>440.421300</ele><time>2010-09-10T10:46:43Z</time></trkpt><trkpt lat="42.258696568" lon="-1.517186053"><ele>439.459700</ele><time>2010-09-10T10:46:46Z</time></trkpt><trkpt lat="42.258782399" lon="-1.517293341"><ele>439.940400</ele><time>2010-09-10T10:46:50Z</time></trkpt><trkpt lat="42.258868229" lon="-1.517336257"><ele>439.459700</ele><time>2010-09-10T10:46:55Z</time></trkpt><trkpt lat="42.258889687" lon="-1.517357714"><ele>439.940400</ele><time>2010-09-10T10:46:56Z</time></trkpt><trkpt lat="42.258868229" lon="-1.517379172"><ele>439.459700</ele><time>2010-09-10T10:47:01Z</time></trkpt><trkpt lat="42.258868229" lon="-1.517379172"><ele>439.940400</ele><time>2010-09-10T10:47:02Z</time></trkpt><trkpt lat="42.259018433" lon="-1.517357714"><ele>439.940400</ele><time>2010-09-10T10:47:13Z</time></trkpt><trkpt lat="42.259061349" lon="-1.517336257"><ele>439.459700</ele><time>2010-09-10T10:47:16Z</time></trkpt><trkpt lat="42.259168637" lon="-1.517250426"><ele>438.498500</ele><time>2010-09-10T10:47:21Z</time></trkpt><trkpt lat="42.259254468" lon="-1.517143138"><ele>439.459700</ele><time>2010-09-10T10:47:25Z</time></trkpt><trkpt lat="42.259297383" lon="-1.517100222"><ele>439.459700</ele><time>2010-09-10T10:47:28Z</time></trkpt><trkpt lat="42.259318841" lon="-1.517078764"><ele>439.459700</ele><time>2010-09-10T10:47:30Z</time></trkpt><trkpt lat="42.259383214" lon="-1.517057307"><ele>438.498500</ele><time>2010-09-10T10:47:33Z</time></trkpt><trkpt lat="42.259426129" lon="-1.516992934"><ele>438.498500</ele><time>2010-09-10T10:47:36Z</time></trkpt><trkpt lat="42.259426129" lon="-1.516992934"><ele>438.979100</ele><time>2010-09-10T10:47:48Z</time></trkpt><trkpt lat="42.259511960" lon="-1.516907103"><ele>435.614500</ele><time>2010-09-10T10:47:54Z</time></trkpt><trkpt lat="42.259511960" lon="-1.516907103"><ele>435.614500</ele><time>2010-09-10T10:47:55Z</time></trkpt><trkpt lat="42.259576333" lon="-1.516864188"><ele>434.653300</ele><time>2010-09-10T10:47:57Z</time></trkpt><trkpt lat="42.259619248" lon="-1.516842730"><ele>434.172600</ele><time>2010-09-10T10:47:58Z</time></trkpt><trkpt lat="42.259662163" lon="-1.516821272"><ele>436.095200</ele><time>2010-09-10T10:48:01Z</time></trkpt><trkpt lat="42.259683621" lon="-1.516821272"><ele>436.095200</ele><time>2010-09-10T10:48:02Z</time></trkpt><trkpt lat="42.259769452" lon="-1.516885645"><ele>436.575900</ele><time>2010-09-10T10:48:07Z</time></trkpt><trkpt lat="42.259769452" lon="-1.516885645"><ele>436.575900</ele><time>2010-09-10T10:48:08Z</time></trkpt><trkpt lat="42.259790909" lon="-1.516928561"><ele>437.537100</ele><time>2010-09-10T10:48:10Z</time></trkpt><trkpt lat="42.260005486" lon="-1.516971476"><ele>439.940400</ele><time>2010-09-10T10:48:23Z</time></trkpt><trkpt lat="42.260026944" lon="-1.516971476"><ele>439.940400</ele><time>2010-09-10T10:48:24Z</time></trkpt><trkpt lat="42.260091317" lon="-1.516928561"><ele>440.421300</ele><time>2010-09-10T10:48:28Z</time></trkpt><trkpt lat="42.260112774" lon="-1.516907103"><ele>440.421300</ele><time>2010-09-10T10:48:29Z</time></trkpt><trkpt lat="42.260155690" lon="-1.516864188"><ele>440.901900</ele><time>2010-09-10T10:48:32Z</time></trkpt><trkpt lat="42.260198605" lon="-1.516821272"><ele>441.382400</ele><time>2010-09-10T10:48:36Z</time></trkpt><trkpt lat="42.260241520" lon="-1.516778357"><ele>441.382400</ele><time>2010-09-10T10:48:38Z</time></trkpt><trkpt lat="42.260305894" lon="-1.516713984"><ele>442.343900</ele><time>2010-09-10T10:48:44Z</time></trkpt><trkpt lat="42.260305894" lon="-1.516735442"><ele>442.343900</ele><time>2010-09-10T10:48:45Z</time></trkpt><trkpt lat="42.260305894" lon="-1.516713984"><ele>442.343900</ele><time>2010-09-10T10:48:48Z</time></trkpt><trkpt lat="42.260370267" lon="-1.516585238"><ele>442.343900</ele><time>2010-09-10T10:49:01Z</time></trkpt><trkpt lat="42.260370267" lon="-1.516563780"><ele>442.824500</ele><time>2010-09-10T10:49:02Z</time></trkpt><trkpt lat="42.260370267" lon="-1.516542323"><ele>442.343900</ele><time>2010-09-10T10:49:05Z</time></trkpt><trkpt lat="42.260370267" lon="-1.516520865"><ele>443.305100</ele><time>2010-09-10T10:49:06Z</time></trkpt><trkpt lat="42.260499013" lon="-1.516585238"><ele>442.343900</ele><time>2010-09-10T10:49:14Z</time></trkpt><trkpt lat="42.260541928" lon="-1.516628153"><ele>441.382400</ele><time>2010-09-10T10:49:17Z</time></trkpt><trkpt lat="42.260627759" lon="-1.516649611"><ele>441.863200</ele><time>2010-09-10T10:49:22Z</time></trkpt><trkpt lat="42.260670674" lon="-1.516649611"><ele>442.343900</ele><time>2010-09-10T10:49:25Z</time></trkpt><trkpt lat="42.260735047" lon="-1.516713984"><ele>441.863200</ele><time>2010-09-10T10:49:30Z</time></trkpt><trkpt lat="42.260756505" lon="-1.516713984"><ele>441.863200</ele><time>2010-09-10T10:49:31Z</time></trkpt><trkpt lat="42.260799420" lon="-1.516756899"><ele>440.901900</ele><time>2010-09-10T10:49:35Z</time></trkpt><trkpt lat="42.260842335" lon="-1.516778357"><ele>441.863200</ele><time>2010-09-10T10:49:37Z</time></trkpt><trkpt lat="42.260971081" lon="-1.516864188"><ele>441.863200</ele><time>2010-09-10T10:49:46Z</time></trkpt><trkpt lat="42.261056912" lon="-1.516907103"><ele>441.382400</ele><time>2010-09-10T10:49:50Z</time></trkpt><trkpt lat="42.261142743" lon="-1.516928561"><ele>441.863200</ele><time>2010-09-10T10:49:54Z</time></trkpt><trkpt lat="42.261271489" lon="-1.516971476"><ele>441.382400</ele><time>2010-09-10T10:49:59Z</time></trkpt><trkpt lat="42.261872304" lon="-1.516950018"><ele>440.901900</ele><time>2010-09-10T10:50:22Z</time></trkpt><trkpt lat="42.262644780" lon="-1.517035849"><ele>441.382400</ele><time>2010-09-10T10:50:50Z</time></trkpt><trkpt lat="42.263567460" lon="-1.517314799"><ele>442.343900</ele><time>2010-09-10T10:51:20Z</time></trkpt><trkpt lat="42.264318478" lon="-1.517615206"><ele>442.824500</ele><time>2010-09-10T10:51:44Z</time></trkpt><trkpt lat="42.264404309" lon="-1.517636664"><ele>442.343900</ele><time>2010-09-10T10:51:46Z</time></trkpt><trkpt lat="42.265155327" lon="-1.517722495"><ele>440.901900</ele><time>2010-09-10T10:52:08Z</time></trkpt><trkpt lat="42.266035092" lon="-1.518087275"><ele>441.382400</ele><time>2010-09-10T10:52:33Z</time></trkpt><trkpt lat="42.266335499" lon="-1.518151648"><ele>440.421300</ele><time>2010-09-10T10:52:42Z</time></trkpt><trkpt lat="42.266914857" lon="-1.518387682"><ele>440.421300</ele><time>2010-09-10T10:52:59Z</time></trkpt><trkpt lat="42.267236722" lon="-1.518494971"><ele>440.901900</ele><time>2010-09-10T10:53:08Z</time></trkpt><trkpt lat="42.267451298" lon="-1.518537886"><ele>439.940400</ele><time>2010-09-10T10:53:14Z</time></trkpt><trkpt lat="42.267622960" lon="-1.518602259"><ele>438.979100</ele><time>2010-09-10T10:53:19Z</time></trkpt><trkpt lat="42.268438351" lon="-1.519288905"><ele>440.421300</ele><time>2010-09-10T10:53:47Z</time></trkpt><trkpt lat="42.269124997" lon="-1.519675143"><ele>440.421300</ele><time>2010-09-10T10:54:09Z</time></trkpt><trkpt lat="42.269983304" lon="-1.519696600"><ele>440.901900</ele><time>2010-09-10T10:54:35Z</time></trkpt><trkpt lat="42.270219338" lon="-1.519675143"><ele>441.382400</ele><time>2010-09-10T10:54:42Z</time></trkpt><trkpt lat="42.270519745" lon="-1.519782431"><ele>440.901900</ele><time>2010-09-10T10:54:52Z</time></trkpt><trkpt lat="42.270562661" lon="-1.519610770"><ele>439.940400</ele><time>2010-09-10T10:55:00Z</time></trkpt><trkpt lat="42.270519745" lon="-1.519482024"><ele>438.979100</ele><time>2010-09-10T10:55:05Z</time></trkpt><trkpt lat="42.270176423" lon="-1.518537886"><ele>439.459700</ele><time>2010-09-10T10:55:29Z</time></trkpt><trkpt lat="42.269768727" lon="-1.517658122"><ele>440.421300</ele><time>2010-09-10T10:55:51Z</time></trkpt><trkpt lat="42.269446862" lon="-1.516971476"><ele>441.382400</ele><time>2010-09-10T10:56:09Z</time></trkpt><trkpt lat="42.269318116" lon="-1.516349204"><ele>441.382400</ele><time>2010-09-10T10:56:22Z</time></trkpt><trkpt lat="42.268803132" lon="-1.515555270"><ele>442.343900</ele><time>2010-09-10T10:56:43Z</time></trkpt><trkpt lat="42.268610013" lon="-1.515362151"><ele>443.305100</ele><time>2010-09-10T10:56:50Z</time></trkpt><trkpt lat="42.268030655" lon="-1.514482386"><ele>443.305100</ele><time>2010-09-10T10:57:13Z</time></trkpt><trkpt lat="42.267515671" lon="-1.513774283"><ele>443.785800</ele><time>2010-09-10T10:57:33Z</time></trkpt><trkpt lat="42.267022145" lon="-1.512679942"><ele>444.266500</ele><time>2010-09-10T10:57:59Z</time></trkpt><trkpt lat="42.266957772" lon="-1.512529738"><ele>444.747100</ele><time>2010-09-10T10:58:04Z</time></trkpt><trkpt lat="42.266893399" lon="-1.512508280"><ele>445.227700</ele><time>2010-09-10T10:58:08Z</time></trkpt><trkpt lat="42.266893399" lon="-1.512508280"><ele>445.708400</ele><time>2010-09-10T10:58:09Z</time></trkpt><trkpt lat="42.266893399" lon="-1.512486823"><ele>446.189100</ele><time>2010-09-10T10:58:15Z</time></trkpt><trkpt lat="42.266893399" lon="-1.512486823"><ele>445.708400</ele><time>2010-09-10T10:58:20Z</time></trkpt><trkpt lat="42.266893399" lon="-1.512465365"><ele>444.747100</ele><time>2010-09-10T10:58:25Z</time></trkpt><trkpt lat="42.266893399" lon="-1.512486823"><ele>444.266500</ele><time>2010-09-10T11:00:13Z</time></trkpt><trkpt lat="42.266871941" lon="-1.512486823"><ele>447.631000</ele><time>2010-09-10T11:43:36Z</time></trkpt><trkpt lat="42.266914857" lon="-1.512508280"><ele>448.111800</ele><time>2010-09-10T12:01:26Z</time></trkpt><trkpt lat="42.266893399" lon="-1.512486823"><ele>447.631000</ele><time>2010-09-10T12:01:54Z</time></trkpt><trkpt lat="42.266914857" lon="-1.512486823"><ele>447.631000</ele><time>2010-09-10T12:02:00Z</time></trkpt><trkpt lat="42.266914857" lon="-1.512486823"><ele>447.631000</ele><time>2010-09-10T12:02:25Z</time></trkpt><trkpt lat="42.266914857" lon="-1.512486823"><ele>448.111800</ele><time>2010-09-10T12:02:35Z</time></trkpt><trkpt lat="42.266893399" lon="-1.512465365"><ele>448.111800</ele><time>2010-09-10T12:02:40Z</time></trkpt><trkpt lat="42.266893399" lon="-1.512465365"><ele>448.111800</ele><time>2010-09-10T12:02:43Z</time></trkpt><trkpt lat="42.266893399" lon="-1.512443907"><ele>447.150300</ele><time>2010-09-10T12:02:45Z</time></trkpt><trkpt lat="42.266614449" lon="-1.512100585"><ele>448.111800</ele><time>2010-09-10T12:03:01Z</time></trkpt><trkpt lat="42.266464245" lon="-1.511907466"><ele>448.111800</ele><time>2010-09-10T12:03:08Z</time></trkpt><trkpt lat="42.266056550" lon="-1.511263735"><ele>448.111800</ele><time>2010-09-10T12:03:29Z</time></trkpt><trkpt lat="42.265777600" lon="-1.510770209"><ele>448.111800</ele><time>2010-09-10T12:03:44Z</time></trkpt><trkpt lat="42.265412819" lon="-1.510083563"><ele>448.592400</ele><time>2010-09-10T12:04:04Z</time></trkpt><trkpt lat="42.265391362" lon="-1.510040648"><ele>448.111800</ele><time>2010-09-10T12:04:05Z</time></trkpt><trkpt lat="42.265005124" lon="-1.509246714"><ele>449.073000</ele><time>2010-09-10T12:04:26Z</time></trkpt><trkpt lat="42.264554513" lon="-1.508366950"><ele>450.995600</ele><time>2010-09-10T12:04:50Z</time></trkpt><trkpt lat="42.264060986" lon="-1.507251151"><ele>450.995600</ele><time>2010-09-10T12:05:18Z</time></trkpt><trkpt lat="42.263696206" lon="-1.506264098"><ele>454.360200</ele><time>2010-09-10T12:05:42Z</time></trkpt><trkpt lat="42.263481629" lon="-1.505191214"><ele>454.840800</ele><time>2010-09-10T12:06:05Z</time></trkpt><trkpt lat="42.262923729" lon="-1.503968127"><ele>455.321500</ele><time>2010-09-10T12:06:35Z</time></trkpt><trkpt lat="42.262365830" lon="-1.502959616"><ele>458.205600</ele><time>2010-09-10T12:07:02Z</time></trkpt><trkpt lat="42.261936677" lon="-1.501800902"><ele>458.686200</ele><time>2010-09-10T12:07:29Z</time></trkpt><trkpt lat="42.261421692" lon="-1.500706561"><ele>459.166900</ele><time>2010-09-10T12:07:57Z</time></trkpt><trkpt lat="42.260735047" lon="-1.499955542"><ele>460.128200</ele><time>2010-09-10T12:08:21Z</time></trkpt><trkpt lat="42.260112774" lon="-1.499247439"><ele>459.647600</ele><time>2010-09-10T12:08:42Z</time></trkpt><trkpt lat="42.259190095" lon="-1.498217471"><ele>461.089500</ele><time>2010-09-10T12:09:12Z</time></trkpt><trkpt lat="42.258825314" lon="-1.497294791"><ele>461.570200</ele><time>2010-09-10T12:09:32Z</time></trkpt><trkpt lat="42.258803856" lon="-1.497123129"><ele>462.531400</ele><time>2010-09-10T12:09:35Z</time></trkpt><trkpt lat="42.258760941" lon="-1.496887095"><ele>463.012100</ele><time>2010-09-10T12:09:40Z</time></trkpt><trkpt lat="42.258460534" lon="-1.495835669"><ele>462.531400</ele><time>2010-09-10T12:10:02Z</time></trkpt><trkpt lat="42.258310330" lon="-1.495320685"><ele>463.492800</ele><time>2010-09-10T12:10:19Z</time></trkpt><trkpt lat="42.258267415" lon="-1.495277770"><ele>464.454100</ele><time>2010-09-10T12:10:23Z</time></trkpt><trkpt lat="42.258267415" lon="-1.495256312"><ele>464.454100</ele><time>2010-09-10T12:10:24Z</time></trkpt><trkpt lat="42.258310330" lon="-1.495277770"><ele>463.492800</ele><time>2010-09-10T12:10:28Z</time></trkpt><trkpt lat="42.258310330" lon="-1.495277770"><ele>463.973400</ele><time>2010-09-10T12:10:29Z</time></trkpt><trkpt lat="42.258331788" lon="-1.495342143"><ele>464.454100</ele><time>2010-09-10T12:10:37Z</time></trkpt><trkpt lat="42.258331788" lon="-1.495320685"><ele>464.454100</ele><time>2010-09-10T12:11:03Z</time></trkpt><trkpt lat="42.258267415" lon="-1.495234854"><ele>464.454100</ele><time>2010-09-10T12:11:08Z</time></trkpt><trkpt lat="42.258245957" lon="-1.495191939"><ele>464.454100</ele><time>2010-09-10T12:11:10Z</time></trkpt><trkpt lat="42.258181584" lon="-1.495084651"><ele>464.454100</ele><time>2010-09-10T12:11:14Z</time></trkpt><trkpt lat="42.258117211" lon="-1.494912989"><ele>463.973400</ele><time>2010-09-10T12:11:22Z</time></trkpt><trkpt lat="42.258031380" lon="-1.494762785"><ele>463.492800</ele><time>2010-09-10T12:11:30Z</time></trkpt><trkpt lat="42.258009923" lon="-1.494719870"><ele>462.531400</ele><time>2010-09-10T12:11:32Z</time></trkpt><trkpt lat="42.257945550" lon="-1.494548209"><ele>462.531400</ele><time>2010-09-10T12:11:37Z</time></trkpt><trkpt lat="42.257902634" lon="-1.494376547"><ele>463.012100</ele><time>2010-09-10T12:11:42Z</time></trkpt><trkpt lat="42.257838261" lon="-1.494161971"><ele>462.531400</ele><time>2010-09-10T12:11:49Z</time></trkpt><trkpt lat="42.257816804" lon="-1.494076140"><ele>463.012100</ele><time>2010-09-10T12:11:52Z</time></trkpt><trkpt lat="42.257752431" lon="-1.493947394"><ele>463.492800</ele><time>2010-09-10T12:11:56Z</time></trkpt><trkpt lat="42.257215989" lon="-1.493282206"><ele>463.973400</ele><time>2010-09-10T12:12:18Z</time></trkpt><trkpt lat="42.257194531" lon="-1.493260748"><ele>463.492800</ele><time>2010-09-10T12:12:19Z</time></trkpt><trkpt lat="42.256979954" lon="-1.492938883"><ele>463.973400</ele><time>2010-09-10T12:12:29Z</time></trkpt><trkpt lat="42.256915581" lon="-1.492788680"><ele>463.973400</ele><time>2010-09-10T12:12:33Z</time></trkpt><trkpt lat="42.256701005" lon="-1.492402442"><ele>465.415500</ele><time>2010-09-10T12:12:44Z</time></trkpt><trkpt lat="42.256400597" lon="-1.491844542"><ele>466.376700</ele><time>2010-09-10T12:13:00Z</time></trkpt><trkpt lat="42.256057274" lon="-1.490900405"><ele>464.934800</ele><time>2010-09-10T12:13:25Z</time></trkpt><trkpt lat="42.255735409" lon="-1.490063555"><ele>465.415500</ele><time>2010-09-10T12:13:49Z</time></trkpt><trkpt lat="42.255456460" lon="-1.489376910"><ele>466.376700</ele><time>2010-09-10T12:14:10Z</time></trkpt><trkpt lat="42.255392087" lon="-1.489119418"><ele>467.338100</ele><time>2010-09-10T12:14:19Z</time></trkpt><trkpt lat="42.255370629" lon="-1.489076502"><ele>467.818700</ele><time>2010-09-10T12:14:22Z</time></trkpt><trkpt lat="42.255370629" lon="-1.489012129"><ele>468.299300</ele><time>2010-09-10T12:14:26Z</time></trkpt><trkpt lat="42.255370629" lon="-1.488947756"><ele>467.818700</ele><time>2010-09-10T12:14:29Z</time></trkpt><trkpt lat="42.255349171" lon="-1.488840468"><ele>467.338100</ele><time>2010-09-10T12:14:35Z</time></trkpt><trkpt lat="42.255349171" lon="-1.488754637"><ele>467.338100</ele><time>2010-09-10T12:14:40Z</time></trkpt><trkpt lat="42.255349171" lon="-1.488733180"><ele>467.338100</ele><time>2010-09-10T12:14:42Z</time></trkpt><trkpt lat="42.255349171" lon="-1.488711722"><ele>465.415500</ele><time>2010-09-10T12:15:02Z</time></trkpt><trkpt lat="42.255349171" lon="-1.488711722"><ele>465.415500</ele><time>2010-09-10T12:20:39Z</time></trkpt><trkpt lat="42.255370629" lon="-1.488711722"><ele>465.415500</ele><time>2010-09-10T12:20:48Z</time></trkpt><trkpt lat="42.255370629" lon="-1.488861926"><ele>464.934800</ele><time>2010-09-10T12:20:57Z</time></trkpt><trkpt lat="42.255370629" lon="-1.488883383"><ele>464.934800</ele><time>2010-09-10T12:20:58Z</time></trkpt><trkpt lat="42.255370629" lon="-1.488926299"><ele>465.415500</ele><time>2010-09-10T12:21:00Z</time></trkpt><trkpt lat="42.255370629" lon="-1.488990672"><ele>464.934800</ele><time>2010-09-10T12:21:02Z</time></trkpt><trkpt lat="42.255392087" lon="-1.489140875"><ele>465.415500</ele><time>2010-09-10T12:21:07Z</time></trkpt><trkpt lat="42.255413544" lon="-1.489226706"><ele>464.934800</ele><time>2010-09-10T12:21:10Z</time></trkpt><trkpt lat="42.255435002" lon="-1.489355452"><ele>464.934800</ele><time>2010-09-10T12:21:14Z</time></trkpt><trkpt lat="42.255606663" lon="-1.489806063"><ele>464.934800</ele><time>2010-09-10T12:21:28Z</time></trkpt><trkpt lat="42.255649579" lon="-1.489891894"><ele>464.934800</ele><time>2010-09-10T12:21:31Z</time></trkpt><trkpt lat="42.255907071" lon="-1.490557082"><ele>465.415500</ele><time>2010-09-10T12:21:50Z</time></trkpt><trkpt lat="42.255907071" lon="-1.490578539"><ele>465.415500</ele><time>2010-09-10T12:21:51Z</time></trkpt><trkpt lat="42.256035817" lon="-1.490857489"><ele>465.896100</ele><time>2010-09-10T12:22:00Z</time></trkpt><trkpt lat="42.256250393" lon="-1.491522677"><ele>465.896100</ele><time>2010-09-10T12:22:19Z</time></trkpt><trkpt lat="42.256615174" lon="-1.492273696"><ele>465.896100</ele><time>2010-09-10T12:22:40Z</time></trkpt><trkpt lat="42.256658089" lon="-1.492338069"><ele>465.896100</ele><time>2010-09-10T12:22:42Z</time></trkpt><trkpt lat="42.257044327" lon="-1.493003256"><ele>464.454100</ele><time>2010-09-10T12:23:03Z</time></trkpt><trkpt lat="42.257494938" lon="-1.493496783"><ele>463.973400</ele><time>2010-09-10T12:23:21Z</time></trkpt><trkpt lat="42.257924092" lon="-1.494355090"><ele>463.492800</ele><time>2010-09-10T12:23:44Z</time></trkpt><trkpt lat="42.257945550" lon="-1.494419463"><ele>463.012100</ele><time>2010-09-10T12:23:45Z</time></trkpt><trkpt lat="42.258009923" lon="-1.494676955"><ele>463.012100</ele><time>2010-09-10T12:23:49Z</time></trkpt><trkpt lat="42.258117211" lon="-1.494848616"><ele>463.492800</ele><time>2010-09-10T12:23:54Z</time></trkpt><trkpt lat="42.258181584" lon="-1.494977362"><ele>463.012100</ele><time>2010-09-10T12:23:58Z</time></trkpt><trkpt lat="42.258224499" lon="-1.495084651"><ele>463.492800</ele><time>2010-09-10T12:24:02Z</time></trkpt><trkpt lat="42.258267415" lon="-1.495234854"><ele>463.492800</ele><time>2010-09-10T12:24:07Z</time></trkpt><trkpt lat="42.258267415" lon="-1.494977362"><ele>462.050800</ele><time>2010-09-10T12:24:14Z</time></trkpt><trkpt lat="42.258245957" lon="-1.494870074"><ele>461.570200</ele><time>2010-09-10T12:24:16Z</time></trkpt><trkpt lat="42.258224499" lon="-1.494741328"><ele>460.128200</ele><time>2010-09-10T12:24:18Z</time></trkpt><trkpt lat="42.258203042" lon="-1.494526751"><ele>457.244300</ele><time>2010-09-10T12:24:21Z</time></trkpt><trkpt lat="42.258181584" lon="-1.494161971"><ele>451.957000</ele><time>2010-09-10T12:24:25Z</time></trkpt><trkpt lat="42.258160126" lon="-1.494033225"><ele>450.515000</ele><time>2010-09-10T12:24:27Z</time></trkpt><trkpt lat="42.258160126" lon="-1.493883021"><ele>449.073000</ele><time>2010-09-10T12:24:29Z</time></trkpt><trkpt lat="42.258095753" lon="-1.493646987"><ele>445.708400</ele><time>2010-09-10T12:24:32Z</time></trkpt><trkpt lat="42.258009923" lon="-1.493325121"><ele>441.863200</ele><time>2010-09-10T12:24:36Z</time></trkpt><trkpt lat="42.257988465" lon="-1.493174918"><ele>439.459700</ele><time>2010-09-10T12:24:38Z</time></trkpt><trkpt lat="42.257902634" lon="-1.492810137"><ele>435.133900</ele><time>2010-09-10T12:24:42Z</time></trkpt><trkpt lat="42.257838261" lon="-1.492488272"><ele>431.769200</ele><time>2010-09-10T12:24:45Z</time></trkpt><trkpt lat="42.257752431" lon="-1.492295153"><ele>428.885400</ele><time>2010-09-10T12:24:47Z</time></trkpt><trkpt lat="42.257645142" lon="-1.492080576"><ele>425.520800</ele><time>2010-09-10T12:24:49Z</time></trkpt><trkpt lat="42.257580769" lon="-1.491973288"><ele>425.040200</ele><time>2010-09-10T12:24:50Z</time></trkpt><trkpt lat="42.257473481" lon="-1.491780169"><ele>422.156000</ele><time>2010-09-10T12:24:52Z</time></trkpt><trkpt lat="42.257387650" lon="-1.491565592"><ele>418.791500</ele><time>2010-09-10T12:24:54Z</time></trkpt><trkpt lat="42.257344735" lon="-1.491458304"><ele>418.791500</ele><time>2010-09-10T12:24:55Z</time></trkpt><trkpt lat="42.257323277" lon="-1.491114981"><ele>415.426900</ele><time>2010-09-10T12:24:58Z</time></trkpt><trkpt lat="42.257409108" lon="-1.490814574"><ele>413.984900</ele><time>2010-09-10T12:25:01Z</time></trkpt><trkpt lat="42.257688058" lon="-1.490514166"><ele>411.101000</ele><time>2010-09-10T12:25:06Z</time></trkpt><trkpt lat="42.257795346" lon="-1.490428336"><ele>409.659100</ele><time>2010-09-10T12:25:08Z</time></trkpt><trkpt lat="42.257859719" lon="-1.490363963"><ele>408.217000</ele><time>2010-09-10T12:25:10Z</time></trkpt><trkpt lat="42.257902634" lon="-1.490342505"><ele>407.736300</ele><time>2010-09-10T12:25:11Z</time></trkpt><trkpt lat="42.258052838" lon="-1.490256674"><ele>406.294300</ele><time>2010-09-10T12:25:14Z</time></trkpt><trkpt lat="42.258095753" lon="-1.490213759"><ele>406.294300</ele><time>2010-09-10T12:25:15Z</time></trkpt><trkpt lat="42.258331788" lon="-1.489999182"><ele>401.007100</ele><time>2010-09-10T12:25:20Z</time></trkpt><trkpt lat="42.258460534" lon="-1.489870436"><ele>397.161700</ele><time>2010-09-10T12:25:23Z</time></trkpt><trkpt lat="42.258503449" lon="-1.489827521"><ele>396.681200</ele><time>2010-09-10T12:25:24Z</time></trkpt><trkpt lat="42.258632195" lon="-1.489763148"><ele>392.835900</ele><time>2010-09-10T12:25:26Z</time></trkpt><trkpt lat="42.258675110" lon="-1.489720233"><ele>392.355300</ele><time>2010-09-10T12:25:27Z</time></trkpt><trkpt lat="42.258932602" lon="-1.489612944"><ele>388.990600</ele><time>2010-09-10T12:25:31Z</time></trkpt><trkpt lat="42.259039891" lon="-1.489570029"><ele>386.106700</ele><time>2010-09-10T12:25:33Z</time></trkpt><trkpt lat="42.259233010" lon="-1.489484198"><ele>382.742100</ele><time>2010-09-10T12:25:36Z</time></trkpt><trkpt lat="42.259469044" lon="-1.489376910"><ele>378.896900</ele><time>2010-09-10T12:25:39Z</time></trkpt><trkpt lat="42.259833825" lon="-1.489119418"><ele>375.532100</ele><time>2010-09-10T12:25:44Z</time></trkpt><trkpt lat="42.260091317" lon="-1.488711722"><ele>373.128900</ele><time>2010-09-10T12:25:49Z</time></trkpt><trkpt lat="42.260241520" lon="-1.488261111"><ele>370.244900</ele><time>2010-09-10T12:25:54Z</time></trkpt><trkpt lat="42.260262978" lon="-1.488175280"><ele>370.244900</ele><time>2010-09-10T12:25:55Z</time></trkpt><trkpt lat="42.260262978" lon="-1.487982161"><ele>368.322300</ele><time>2010-09-10T12:25:57Z</time></trkpt><trkpt lat="42.260241520" lon="-1.487874873"><ele>368.322300</ele><time>2010-09-10T12:25:58Z</time></trkpt><trkpt lat="42.260262978" lon="-1.487681754"><ele>366.399500</ele><time>2010-09-10T12:26:00Z</time></trkpt><trkpt lat="42.260327351" lon="-1.487316973"><ele>362.554300</ele><time>2010-09-10T12:26:03Z</time></trkpt><trkpt lat="42.260413182" lon="-1.486823447"><ele>359.670400</ele><time>2010-09-10T12:26:07Z</time></trkpt><trkpt lat="42.260370267" lon="-1.486565955"><ele>358.709000</ele><time>2010-09-10T12:26:09Z</time></trkpt><trkpt lat="42.260241520" lon="-1.486244090"><ele>356.786400</ele><time>2010-09-10T12:26:13Z</time></trkpt><trkpt lat="42.260155690" lon="-1.486136801"><ele>356.305800</ele><time>2010-09-10T12:26:15Z</time></trkpt><trkpt lat="42.260069859" lon="-1.486029513"><ele>357.747800</ele><time>2010-09-10T12:26:18Z</time></trkpt><trkpt lat="42.260026944" lon="-1.485922225"><ele>356.305800</ele><time>2010-09-10T12:26:21Z</time></trkpt><trkpt lat="42.260026944" lon="-1.485879309"><ele>356.786400</ele><time>2010-09-10T12:26:22Z</time></trkpt><trkpt lat="42.260005486" lon="-1.485814936"><ele>356.786400</ele><time>2010-09-10T12:26:26Z</time></trkpt><trkpt lat="42.260005486" lon="-1.485814936"><ele>357.747800</ele><time>2010-09-10T12:27:41Z</time></trkpt><trkpt lat="42.260005486" lon="-1.485793479"><ele>357.267100</ele><time>2010-09-10T12:27:44Z</time></trkpt><trkpt lat="42.259984028" lon="-1.485814936"><ele>355.825200</ele><time>2010-09-10T12:28:49Z</time></trkpt><trkpt lat="42.259984028" lon="-1.485814936"><ele>359.189700</ele><time>2010-09-10T12:28:54Z</time></trkpt><trkpt lat="42.259984028" lon="-1.485793479"><ele>358.228400</ele><time>2010-09-10T12:29:02Z</time></trkpt><trkpt lat="42.259984028" lon="-1.485793479"><ele>358.709000</ele><time>2010-09-10T12:29:09Z</time></trkpt><trkpt lat="42.259941113" lon="-1.485707648"><ele>358.228400</ele><time>2010-09-10T12:29:14Z</time></trkpt><trkpt lat="42.259919655" lon="-1.485621817"><ele>357.747800</ele><time>2010-09-10T12:29:17Z</time></trkpt><trkpt lat="42.259855282" lon="-1.485428698"><ele>358.709000</ele><time>2010-09-10T12:29:22Z</time></trkpt><trkpt lat="42.259833825" lon="-1.485342867"><ele>359.670400</ele><time>2010-09-10T12:29:24Z</time></trkpt><trkpt lat="42.259833825" lon="-1.485278494"><ele>360.631700</ele><time>2010-09-10T12:29:26Z</time></trkpt><trkpt lat="42.259855282" lon="-1.485128291"><ele>361.112400</ele><time>2010-09-10T12:29:30Z</time></trkpt><trkpt lat="42.259898198" lon="-1.484784968"><ele>360.631700</ele><time>2010-09-10T12:29:38Z</time></trkpt><trkpt lat="42.259919655" lon="-1.484699137"><ele>360.151100</ele><time>2010-09-10T12:29:40Z</time></trkpt><trkpt lat="42.260091317" lon="-1.483712084"><ele>357.267100</ele><time>2010-09-10T12:29:59Z</time></trkpt><trkpt lat="42.260241520" lon="-1.482488997"><ele>353.902600</ele><time>2010-09-10T12:30:18Z</time></trkpt><trkpt lat="42.260348809" lon="-1.481459029"><ele>350.537800</ele><time>2010-09-10T12:30:33Z</time></trkpt><trkpt lat="42.260541928" lon="-1.479656584"><ele>347.173200</ele><time>2010-09-10T12:30:58Z</time></trkpt><trkpt lat="42.260649216" lon="-1.478454955"><ele>344.770000</ele><time>2010-09-10T12:31:13Z</time></trkpt><trkpt lat="42.260563386" lon="-1.478111632"><ele>344.289400</ele><time>2010-09-10T12:31:17Z</time></trkpt><trkpt lat="42.260305894" lon="-1.477360613"><ele>340.444100</ele><time>2010-09-10T12:31:26Z</time></trkpt><trkpt lat="42.260284436" lon="-1.477274783"><ele>339.963400</ele><time>2010-09-10T12:31:27Z</time></trkpt><trkpt lat="42.260477555" lon="-1.476952918"><ele>338.521500</ele><time>2010-09-10T12:31:33Z</time></trkpt><trkpt lat="42.260820878" lon="-1.476652510"><ele>338.521500</ele><time>2010-09-10T12:31:43Z</time></trkpt><trkpt lat="42.260885251" lon="-1.476480849"><ele>337.560100</ele><time>2010-09-10T12:31:48Z</time></trkpt><trkpt lat="42.260992539" lon="-1.476223357"><ele>336.118200</ele><time>2010-09-10T12:31:53Z</time></trkpt><trkpt lat="42.261056912" lon="-1.476094611"><ele>336.118200</ele><time>2010-09-10T12:31:56Z</time></trkpt><trkpt lat="42.261099827" lon="-1.476008780"><ele>335.156700</ele><time>2010-09-10T12:31:58Z</time></trkpt><trkpt lat="42.261121285" lon="-1.475965865"><ele>334.676100</ele><time>2010-09-10T12:31:59Z</time></trkpt><trkpt lat="42.261400235" lon="-1.475450881"><ele>333.714700</ele><time>2010-09-10T12:32:13Z</time></trkpt><trkpt lat="42.261292946" lon="-1.475150473"><ele>334.676100</ele><time>2010-09-10T12:32:23Z</time></trkpt><trkpt lat="42.261228573" lon="-1.475150473"><ele>335.637300</ele><time>2010-09-10T12:32:26Z</time></trkpt><trkpt lat="42.261164200" lon="-1.475150473"><ele>336.118200</ele><time>2010-09-10T12:32:28Z</time></trkpt><trkpt lat="42.261013997" lon="-1.474978812"><ele>335.637300</ele><time>2010-09-10T12:32:36Z</time></trkpt><trkpt lat="42.260971081" lon="-1.474892981"><ele>336.118200</ele><time>2010-09-10T12:32:39Z</time></trkpt><trkpt lat="42.260928166" lon="-1.474656947"><ele>335.637300</ele><time>2010-09-10T12:32:45Z</time></trkpt><trkpt lat="42.260906708" lon="-1.474549658"><ele>337.079500</ele><time>2010-09-10T12:32:48Z</time></trkpt><trkpt lat="42.260842335" lon="-1.474485285"><ele>337.079500</ele><time>2010-09-10T12:32:51Z</time></trkpt><trkpt lat="42.260820878" lon="-1.474442370"><ele>336.598900</ele><time>2010-09-10T12:32:53Z</time></trkpt><trkpt lat="42.260670674" lon="-1.474442370"><ele>337.079500</ele><time>2010-09-10T12:32:59Z</time></trkpt><trkpt lat="42.260627759" lon="-1.474442370"><ele>337.079500</ele><time>2010-09-10T12:33:01Z</time></trkpt><trkpt lat="42.260584843" lon="-1.474485285"><ele>336.598900</ele><time>2010-09-10T12:33:10Z</time></trkpt><trkpt lat="42.260649216" lon="-1.474163420"><ele>335.637300</ele><time>2010-09-10T12:33:23Z</time></trkpt><trkpt lat="42.260627759" lon="-1.474120505"><ele>335.637300</ele><time>2010-09-10T12:33:24Z</time></trkpt><trkpt lat="42.260606301" lon="-1.474077590"><ele>334.195400</ele><time>2010-09-10T12:33:26Z</time></trkpt><trkpt lat="42.260563386" lon="-1.473970301"><ele>334.195400</ele><time>2010-09-10T12:33:29Z</time></trkpt><trkpt lat="42.260541928" lon="-1.473863013"><ele>334.195400</ele><time>2010-09-10T12:33:32Z</time></trkpt><trkpt lat="42.260520470" lon="-1.473755724"><ele>333.714700</ele><time>2010-09-10T12:33:36Z</time></trkpt><trkpt lat="42.260563386" lon="-1.473476775"><ele>332.272800</ele><time>2010-09-10T12:33:46Z</time></trkpt><trkpt lat="42.260584843" lon="-1.473390944"><ele>332.272800</ele><time>2010-09-10T12:33:49Z</time></trkpt><trkpt lat="42.260627759" lon="-1.473348029"><ele>332.272800</ele><time>2010-09-10T12:33:53Z</time></trkpt><trkpt lat="42.260649216" lon="-1.473326571"><ele>331.792100</ele><time>2010-09-10T12:33:54Z</time></trkpt><trkpt lat="42.260670674" lon="-1.473240740"><ele>331.311500</ele><time>2010-09-10T12:33:59Z</time></trkpt><trkpt lat="42.260670674" lon="-1.473240740"><ele>331.311500</ele><time>2010-09-10T12:34:01Z</time></trkpt><trkpt lat="42.260649216" lon="-1.473197825"><ele>330.830900</ele><time>2010-09-10T12:34:05Z</time></trkpt><trkpt lat="42.260649216" lon="-1.473176367"><ele>332.272800</ele><time>2010-09-10T12:34:08Z</time></trkpt><trkpt lat="42.260670674" lon="-1.473133452"><ele>332.272800</ele><time>2010-09-10T12:34:10Z</time></trkpt><trkpt lat="42.260692132" lon="-1.473090537"><ele>332.272800</ele><time>2010-09-10T12:34:14Z</time></trkpt><trkpt lat="42.260692132" lon="-1.473047621"><ele>331.311500</ele><time>2010-09-10T12:34:17Z</time></trkpt><trkpt lat="42.260692132" lon="-1.473026164"><ele>331.311500</ele><time>2010-09-10T12:34:18Z</time></trkpt><trkpt lat="42.260713589" lon="-1.472961791"><ele>331.311500</ele><time>2010-09-10T12:34:22Z</time></trkpt><trkpt lat="42.260713589" lon="-1.472897418"><ele>331.311500</ele><time>2010-09-10T12:34:28Z</time></trkpt><trkpt lat="42.260713589" lon="-1.472897418"><ele>330.830900</ele><time>2010-09-10T12:34:29Z</time></trkpt><trkpt lat="42.260713589" lon="-1.472875960"><ele>331.311500</ele><time>2010-09-10T12:34:33Z</time></trkpt><trkpt lat="42.260756505" lon="-1.472790129"><ele>331.792100</ele><time>2010-09-10T12:34:39Z</time></trkpt><trkpt lat="42.260756505" lon="-1.472768672"><ele>331.792100</ele><time>2010-09-10T12:34:41Z</time></trkpt><trkpt lat="42.260799420" lon="-1.472725756"><ele>332.272800</ele><time>2010-09-10T12:34:44Z</time></trkpt><trkpt lat="42.260885251" lon="-1.472682841"><ele>332.272800</ele><time>2010-09-10T12:34:54Z</time></trkpt><trkpt lat="42.260885251" lon="-1.472682841"><ele>331.311500</ele><time>2010-09-10T12:34:56Z</time></trkpt><trkpt lat="42.260863793" lon="-1.472682841"><ele>331.792100</ele><time>2010-09-10T12:35:00Z</time></trkpt><trkpt lat="42.260885251" lon="-1.472682841"><ele>331.792100</ele><time>2010-09-10T12:35:12Z</time></trkpt><trkpt lat="42.260863793" lon="-1.472682841"><ele>331.792100</ele><time>2010-09-10T12:35:14Z</time></trkpt><trkpt lat="42.260906708" lon="-1.472532637"><ele>330.830900</ele><time>2010-09-10T12:35:19Z</time></trkpt><trkpt lat="42.260949624" lon="-1.472382433"><ele>329.869500</ele><time>2010-09-10T12:35:24Z</time></trkpt><trkpt lat="42.261013997" lon="-1.472296603"><ele>327.466200</ele><time>2010-09-10T12:35:28Z</time></trkpt><trkpt lat="42.261056912" lon="-1.472232230"><ele>326.985600</ele><time>2010-09-10T12:35:30Z</time></trkpt><trkpt lat="42.261078370" lon="-1.472189314"><ele>326.504900</ele><time>2010-09-10T12:35:32Z</time></trkpt><trkpt lat="42.261056912" lon="-1.472039111"><ele>326.024200</ele><time>2010-09-10T12:35:40Z</time></trkpt><trkpt lat="42.260992539" lon="-1.471910365"><ele>326.985600</ele><time>2010-09-10T12:35:45Z</time></trkpt><trkpt lat="42.260992539" lon="-1.471824534"><ele>326.504900</ele><time>2010-09-10T12:35:48Z</time></trkpt><trkpt lat="42.260971081" lon="-1.471674330"><ele>326.504900</ele><time>2010-09-10T12:35:55Z</time></trkpt><trkpt lat="42.260971081" lon="-1.471588500"><ele>326.504900</ele><time>2010-09-10T12:35:59Z</time></trkpt><trkpt lat="42.260971081" lon="-1.471524127"><ele>326.024200</ele><time>2010-09-10T12:36:02Z</time></trkpt><trkpt lat="42.260992539" lon="-1.471502669"><ele>326.024200</ele><time>2010-09-10T12:36:04Z</time></trkpt><trkpt lat="42.261013997" lon="-1.471438296"><ele>326.024200</ele><time>2010-09-10T12:36:07Z</time></trkpt><trkpt lat="42.261056912" lon="-1.471373923"><ele>326.504900</ele><time>2010-09-10T12:36:11Z</time></trkpt><trkpt lat="42.261078370" lon="-1.471331008"><ele>326.504900</ele><time>2010-09-10T12:36:13Z</time></trkpt><trkpt lat="42.261121285" lon="-1.471245177"><ele>326.504900</ele><time>2010-09-10T12:36:17Z</time></trkpt><trkpt lat="42.261121285" lon="-1.471223719"><ele>326.504900</ele><time>2010-09-10T12:36:18Z</time></trkpt><trkpt lat="42.261142743" lon="-1.471180804"><ele>326.504900</ele><time>2010-09-10T12:36:20Z</time></trkpt><trkpt lat="42.261142743" lon="-1.471094973"><ele>326.504900</ele><time>2010-09-10T12:36:24Z</time></trkpt><trkpt lat="42.261142743" lon="-1.471073515"><ele>326.504900</ele><time>2010-09-10T12:36:25Z</time></trkpt><trkpt lat="42.261142743" lon="-1.471030600"><ele>326.504900</ele><time>2010-09-10T12:36:27Z</time></trkpt><trkpt lat="42.261142743" lon="-1.470987685"><ele>326.024200</ele><time>2010-09-10T12:36:30Z</time></trkpt><trkpt lat="42.261142743" lon="-1.470987685"><ele>326.504900</ele><time>2010-09-10T12:36:36Z</time></trkpt><trkpt lat="42.261185658" lon="-1.470901854"><ele>326.024200</ele><time>2010-09-10T12:36:39Z</time></trkpt><trkpt lat="42.261250031" lon="-1.470858939"><ele>326.024200</ele><time>2010-09-10T12:36:44Z</time></trkpt><trkpt lat="42.261271489" lon="-1.470858939"><ele>325.543600</ele><time>2010-09-10T12:36:45Z</time></trkpt><trkpt lat="42.261335862" lon="-1.470773108"><ele>325.543600</ele><time>2010-09-10T12:36:50Z</time></trkpt><trkpt lat="42.261335862" lon="-1.470751650"><ele>326.024200</ele><time>2010-09-10T12:36:51Z</time></trkpt><trkpt lat="42.261314404" lon="-1.470622904"><ele>326.024200</ele><time>2010-09-10T12:36:57Z</time></trkpt><trkpt lat="42.261314404" lon="-1.470601447"><ele>326.024200</ele><time>2010-09-10T12:36:58Z</time></trkpt><trkpt lat="42.261314404" lon="-1.470558531"><ele>326.504900</ele><time>2010-09-10T12:37:00Z</time></trkpt><trkpt lat="42.261292946" lon="-1.470515616"><ele>326.024200</ele><time>2010-09-10T12:37:03Z</time></trkpt><trkpt lat="42.261292946" lon="-1.470515616"><ele>325.543600</ele><time>2010-09-10T12:37:04Z</time></trkpt><trkpt lat="42.261292946" lon="-1.470515616"><ele>326.024200</ele><time>2010-09-10T12:38:21Z</time></trkpt><trkpt lat="42.261292946" lon="-1.470515616"><ele>325.543600</ele><time>2010-09-10T12:38:26Z</time></trkpt><trkpt lat="42.261271489" lon="-1.470451243"><ele>325.543600</ele><time>2010-09-10T12:38:29Z</time></trkpt><trkpt lat="42.261271489" lon="-1.470365412"><ele>325.063000</ele><time>2010-09-10T12:38:32Z</time></trkpt><trkpt lat="42.261271489" lon="-1.470322497"><ele>325.543600</ele><time>2010-09-10T12:38:33Z</time></trkpt><trkpt lat="42.261314404" lon="-1.470258124"><ele>325.543600</ele><time>2010-09-10T12:38:36Z</time></trkpt><trkpt lat="42.261378777" lon="-1.470065005"><ele>323.140400</ele><time>2010-09-10T12:38:44Z</time></trkpt><trkpt lat="42.261400235" lon="-1.470000632"><ele>322.179000</ele><time>2010-09-10T12:38:47Z</time></trkpt><trkpt lat="42.261421692" lon="-1.469957717"><ele>321.217800</ele><time>2010-09-10T12:38:49Z</time></trkpt><trkpt lat="42.261636269" lon="-1.469850428"><ele>319.775600</ele><time>2010-09-10T12:39:00Z</time></trkpt><trkpt lat="42.261636269" lon="-1.469850428"><ele>318.814300</ele><time>2010-09-10T12:39:01Z</time></trkpt><trkpt lat="42.261807931" lon="-1.469786055"><ele>317.853000</ele><time>2010-09-10T12:39:10Z</time></trkpt><trkpt lat="42.261829388" lon="-1.469743140"><ele>317.372400</ele><time>2010-09-10T12:39:12Z</time></trkpt><trkpt lat="42.261829388" lon="-1.469721682"><ele>317.372400</ele><time>2010-09-10T12:39:16Z</time></trkpt><trkpt lat="42.261807931" lon="-1.469764597"><ele>316.891700</ele><time>2010-09-10T12:39:19Z</time></trkpt><trkpt lat="42.261786473" lon="-1.469786055"><ele>316.891700</ele><time>2010-09-10T12:39:23Z</time></trkpt><trkpt lat="42.261765015" lon="-1.469786055"><ele>316.891700</ele><time>2010-09-10T12:39:25Z</time></trkpt><trkpt lat="42.261743558" lon="-1.469807513"><ele>316.891700</ele><time>2010-09-10T12:39:28Z</time></trkpt><trkpt lat="42.261722100" lon="-1.469828970"><ele>317.372400</ele><time>2010-09-10T12:39:30Z</time></trkpt><trkpt lat="42.261679185" lon="-1.469828970"><ele>317.372400</ele><time>2010-09-10T12:39:33Z</time></trkpt><trkpt lat="42.261657727" lon="-1.469850428"><ele>318.333600</ele><time>2010-09-10T12:39:37Z</time></trkpt><trkpt lat="42.261657727" lon="-1.469850428"><ele>318.814300</ele><time>2010-09-10T12:39:38Z</time></trkpt><trkpt lat="42.261657727" lon="-1.469807513"><ele>317.853000</ele><time>2010-09-10T12:39:43Z</time></trkpt><trkpt lat="42.261657727" lon="-1.469807513"><ele>317.853000</ele><time>2010-09-10T12:39:45Z</time></trkpt><trkpt lat="42.261700642" lon="-1.469764597"><ele>314.969100</ele><time>2010-09-10T12:39:53Z</time></trkpt><trkpt lat="42.261679185" lon="-1.469764597"><ele>314.969100</ele><time>2010-09-10T12:39:55Z</time></trkpt><trkpt lat="42.261679185" lon="-1.469743140"><ele>314.007800</ele><time>2010-09-10T12:39:57Z</time></trkpt><trkpt lat="42.261636269" lon="-1.469700224"><ele>313.527200</ele><time>2010-09-10T12:40:01Z</time></trkpt><trkpt lat="42.261614811" lon="-1.469657309"><ele>313.527200</ele><time>2010-09-10T12:40:05Z</time></trkpt><trkpt lat="42.261507523" lon="-1.469635851"><ele>313.527200</ele><time>2010-09-10T12:40:14Z</time></trkpt><trkpt lat="42.261443150" lon="-1.469614394"><ele>314.488400</ele><time>2010-09-10T12:40:18Z</time></trkpt><trkpt lat="42.261400235" lon="-1.469614394"><ele>314.969100</ele><time>2010-09-10T12:40:21Z</time></trkpt><trkpt lat="42.261378777" lon="-1.469635851"><ele>314.488400</ele><time>2010-09-10T12:40:22Z</time></trkpt><trkpt lat="42.261121285" lon="-1.469678767"><ele>314.488400</ele><time>2010-09-10T12:40:36Z</time></trkpt><trkpt lat="42.261121285" lon="-1.469678767"><ele>314.488400</ele><time>2010-09-10T12:40:37Z</time></trkpt><trkpt lat="42.261078370" lon="-1.469700224"><ele>314.969100</ele><time>2010-09-10T12:40:39Z</time></trkpt><trkpt lat="42.260971081" lon="-1.469807513"><ele>314.007800</ele><time>2010-09-10T12:40:49Z</time></trkpt><trkpt lat="42.260971081" lon="-1.469828970"><ele>314.488400</ele><time>2010-09-10T12:40:52Z</time></trkpt><trkpt lat="42.260949624" lon="-1.469828970"><ele>314.969100</ele><time>2010-09-10T12:40:57Z</time></trkpt><trkpt lat="42.260992539" lon="-1.469828970"><ele>314.488400</ele><time>2010-09-10T12:41:03Z</time></trkpt><trkpt lat="42.260949624" lon="-1.469807513"><ele>313.527200</ele><time>2010-09-10T12:42:31Z</time></trkpt><trkpt lat="42.260949624" lon="-1.469828970"><ele>313.527200</ele><time>2010-09-10T12:44:03Z</time></trkpt><trkpt lat="42.260949624" lon="-1.469871886"><ele>314.969100</ele><time>2010-09-10T12:44:05Z</time></trkpt><trkpt lat="42.260928166" lon="-1.469893344"><ele>314.488400</ele><time>2010-09-10T12:44:10Z</time></trkpt><trkpt lat="42.260949624" lon="-1.469893344"><ele>314.488400</ele><time>2010-09-10T12:44:19Z</time></trkpt><trkpt lat="42.260949624" lon="-1.469914801"><ele>314.007800</ele><time>2010-09-10T12:44:21Z</time></trkpt><trkpt lat="42.260949624" lon="-1.469957717"><ele>314.007800</ele><time>2010-09-10T12:44:23Z</time></trkpt><trkpt lat="42.260863793" lon="-1.470150836"><ele>314.969100</ele><time>2010-09-10T12:44:33Z</time></trkpt><trkpt lat="42.260820878" lon="-1.470258124"><ele>313.527200</ele><time>2010-09-10T12:44:37Z</time></trkpt><trkpt lat="42.260799420" lon="-1.470322497"><ele>314.007800</ele><time>2010-09-10T12:44:39Z</time></trkpt><trkpt lat="42.260735047" lon="-1.470408328"><ele>313.046500</ele><time>2010-09-10T12:44:43Z</time></trkpt><trkpt lat="42.260713589" lon="-1.470429785"><ele>313.527200</ele><time>2010-09-10T12:44:44Z</time></trkpt><trkpt lat="42.260563386" lon="-1.470451243"><ele>313.046500</ele><time>2010-09-10T12:44:50Z</time></trkpt><trkpt lat="42.260541928" lon="-1.470451243"><ele>313.527200</ele><time>2010-09-10T12:44:51Z</time></trkpt><trkpt lat="42.260391724" lon="-1.470408328"><ele>313.046500</ele><time>2010-09-10T12:44:57Z</time></trkpt><trkpt lat="42.260284436" lon="-1.470365412"><ele>313.046500</ele><time>2010-09-10T12:45:00Z</time></trkpt><trkpt lat="42.260091317" lon="-1.470279582"><ele>312.085200</ele><time>2010-09-10T12:45:07Z</time></trkpt><trkpt lat="42.260026944" lon="-1.470301039"><ele>312.085200</ele><time>2010-09-10T12:45:11Z</time></trkpt><trkpt lat="42.260005486" lon="-1.470301039"><ele>312.085200</ele><time>2010-09-10T12:45:12Z</time></trkpt><trkpt lat="42.259941113" lon="-1.470301039"><ele>311.604500</ele><time>2010-09-10T12:45:15Z</time></trkpt><trkpt lat="42.259833825" lon="-1.470279582"><ele>311.604500</ele><time>2010-09-10T12:45:20Z</time></trkpt><trkpt lat="42.259747994" lon="-1.470279582"><ele>312.085200</ele><time>2010-09-10T12:45:27Z</time></trkpt><trkpt lat="42.259705079" lon="-1.470279582"><ele>311.604500</ele><time>2010-09-10T12:45:30Z</time></trkpt><trkpt lat="42.259640706" lon="-1.470172293"><ele>309.201200</ele><time>2010-09-10T12:45:36Z</time></trkpt><trkpt lat="42.259619248" lon="-1.470150836"><ele>308.720500</ele><time>2010-09-10T12:45:37Z</time></trkpt><trkpt lat="42.259554875" lon="-1.470236666"><ele>309.201200</ele><time>2010-09-10T12:45:42Z</time></trkpt><trkpt lat="42.259533417" lon="-1.470236666"><ele>309.201200</ele><time>2010-09-10T12:45:43Z</time></trkpt><trkpt lat="42.259490502" lon="-1.470301039"><ele>309.201200</ele><time>2010-09-10T12:45:46Z</time></trkpt><trkpt lat="42.259469044" lon="-1.470301039"><ele>309.201200</ele><time>2010-09-10T12:45:47Z</time></trkpt><trkpt lat="42.259426129" lon="-1.470322497"><ele>309.201200</ele><time>2010-09-10T12:45:50Z</time></trkpt><trkpt lat="42.259361756" lon="-1.470365412"><ele>309.681900</ele><time>2010-09-10T12:45:54Z</time></trkpt><trkpt lat="42.259297383" lon="-1.470386870"><ele>308.239900</ele><time>2010-09-10T12:45:56Z</time></trkpt><trkpt lat="42.259168637" lon="-1.470429785"><ele>308.720500</ele><time>2010-09-10T12:46:00Z</time></trkpt><trkpt lat="42.259082806" lon="-1.470451243"><ele>309.201200</ele><time>2010-09-10T12:46:04Z</time></trkpt><trkpt lat="42.259018433" lon="-1.470494158"><ele>308.720500</ele><time>2010-09-10T12:46:08Z</time></trkpt><trkpt lat="42.258932602" lon="-1.470601447"><ele>308.720500</ele><time>2010-09-10T12:46:13Z</time></trkpt><trkpt lat="42.258889687" lon="-1.470644362"><ele>308.720500</ele><time>2010-09-10T12:46:16Z</time></trkpt><trkpt lat="42.258825314" lon="-1.470687277"><ele>308.239900</ele><time>2010-09-10T12:46:19Z</time></trkpt><trkpt lat="42.258760941" lon="-1.470794566"><ele>308.720500</ele><time>2010-09-10T12:46:23Z</time></trkpt><trkpt lat="42.258481991" lon="-1.470923312"><ele>308.720500</ele><time>2010-09-10T12:46:36Z</time></trkpt><trkpt lat="42.258460534" lon="-1.470944769"><ele>308.720500</ele><time>2010-09-10T12:46:37Z</time></trkpt><trkpt lat="42.258417618" lon="-1.470944769"><ele>308.239900</ele><time>2010-09-10T12:46:39Z</time></trkpt><trkpt lat="42.258331788" lon="-1.470944769"><ele>308.720500</ele><time>2010-09-10T12:46:42Z</time></trkpt><trkpt lat="42.258267415" lon="-1.470966227"><ele>308.239900</ele><time>2010-09-10T12:46:45Z</time></trkpt><trkpt lat="42.258245957" lon="-1.470987685"><ele>307.759300</ele><time>2010-09-10T12:46:46Z</time></trkpt><trkpt lat="42.258181584" lon="-1.471073515"><ele>309.201200</ele><time>2010-09-10T12:46:50Z</time></trkpt><trkpt lat="42.258074296" lon="-1.471180804"><ele>308.239900</ele><time>2010-09-10T12:46:56Z</time></trkpt><trkpt lat="42.258031380" lon="-1.471266635"><ele>308.239900</ele><time>2010-09-10T12:46:59Z</time></trkpt><trkpt lat="42.257988465" lon="-1.471373923"><ele>308.720500</ele><time>2010-09-10T12:47:03Z</time></trkpt><trkpt lat="42.257945550" lon="-1.471481211"><ele>309.201200</ele><time>2010-09-10T12:47:07Z</time></trkpt><trkpt lat="42.257924092" lon="-1.471545584"><ele>308.720500</ele><time>2010-09-10T12:47:10Z</time></trkpt><trkpt lat="42.257859719" lon="-1.471695788"><ele>309.201200</ele><time>2010-09-10T12:47:15Z</time></trkpt><trkpt lat="42.257838261" lon="-1.471760161"><ele>308.720500</ele><time>2010-09-10T12:47:17Z</time></trkpt><trkpt lat="42.257795346" lon="-1.471845992"><ele>308.720500</ele><time>2010-09-10T12:47:21Z</time></trkpt><trkpt lat="42.257773888" lon="-1.471931822"><ele>308.239900</ele><time>2010-09-10T12:47:24Z</time></trkpt><trkpt lat="42.257752431" lon="-1.472039111"><ele>308.720500</ele><time>2010-09-10T12:47:28Z</time></trkpt><trkpt lat="42.257752431" lon="-1.472060568"><ele>308.239900</ele><time>2010-09-10T12:47:29Z</time></trkpt><trkpt lat="42.257623684" lon="-1.472339518"><ele>308.239900</ele><time>2010-09-10T12:47:40Z</time></trkpt><trkpt lat="42.257602227" lon="-1.472360976"><ele>308.720500</ele><time>2010-09-10T12:47:41Z</time></trkpt><trkpt lat="42.257580769" lon="-1.472403891"><ele>308.239900</ele><time>2010-09-10T12:47:43Z</time></trkpt><trkpt lat="42.257537854" lon="-1.472489722"><ele>308.239900</ele><time>2010-09-10T12:47:46Z</time></trkpt><trkpt lat="42.257494938" lon="-1.472554095"><ele>308.239900</ele><time>2010-09-10T12:47:49Z</time></trkpt><trkpt lat="42.257473481" lon="-1.472639926"><ele>308.720500</ele><time>2010-09-10T12:47:53Z</time></trkpt><trkpt lat="42.257452023" lon="-1.472682841"><ele>307.759300</ele><time>2010-09-10T12:47:57Z</time></trkpt><trkpt lat="42.257430565" lon="-1.472725756"><ele>308.720500</ele><time>2010-09-10T12:48:03Z</time></trkpt><trkpt lat="42.257387650" lon="-1.472768672"><ele>308.720500</ele><time>2010-09-10T12:48:06Z</time></trkpt><trkpt lat="42.257366192" lon="-1.472833045"><ele>308.720500</ele><time>2010-09-10T12:48:09Z</time></trkpt><trkpt lat="42.257301819" lon="-1.472918875"><ele>308.239900</ele><time>2010-09-10T12:48:14Z</time></trkpt><trkpt lat="42.257215989" lon="-1.473004706"><ele>307.278600</ele><time>2010-09-10T12:48:18Z</time></trkpt><trkpt lat="42.257087243" lon="-1.473133452"><ele>307.759300</ele><time>2010-09-10T12:48:25Z</time></trkpt><trkpt lat="42.257065785" lon="-1.473154910"><ele>308.239900</ele><time>2010-09-10T12:48:26Z</time></trkpt><trkpt lat="42.257001412" lon="-1.473240740"><ele>307.759300</ele><time>2010-09-10T12:48:30Z</time></trkpt><trkpt lat="42.256937039" lon="-1.473326571"><ele>307.759300</ele><time>2010-09-10T12:48:34Z</time></trkpt><trkpt lat="42.256894124" lon="-1.473348029"><ele>307.759300</ele><time>2010-09-10T12:48:37Z</time></trkpt><trkpt lat="42.256851208" lon="-1.473369486"><ele>307.759300</ele><time>2010-09-10T12:48:39Z</time></trkpt><trkpt lat="42.256786835" lon="-1.473390944"><ele>307.759300</ele><time>2010-09-10T12:48:42Z</time></trkpt><trkpt lat="42.256765378" lon="-1.473412402"><ele>306.797900</ele><time>2010-09-10T12:48:45Z</time></trkpt><trkpt lat="42.256701005" lon="-1.473390944"><ele>307.278600</ele><time>2010-09-10T12:48:50Z</time></trkpt><trkpt lat="42.256701005" lon="-1.473390944"><ele>307.278600</ele><time>2010-09-10T12:48:51Z</time></trkpt><trkpt lat="42.256615174" lon="-1.473455317"><ele>306.797900</ele><time>2010-09-10T12:48:56Z</time></trkpt><trkpt lat="42.256593716" lon="-1.473476775"><ele>308.239900</ele><time>2010-09-10T12:48:57Z</time></trkpt><trkpt lat="42.256550801" lon="-1.473584063"><ele>307.759300</ele><time>2010-09-10T12:49:02Z</time></trkpt><trkpt lat="42.256486428" lon="-1.473691351"><ele>307.759300</ele><time>2010-09-10T12:49:07Z</time></trkpt><trkpt lat="42.256379140" lon="-1.473734267"><ele>306.797900</ele><time>2010-09-10T12:49:11Z</time></trkpt><trkpt lat="42.256314766" lon="-1.473755724"><ele>306.797900</ele><time>2010-09-10T12:49:13Z</time></trkpt><trkpt lat="42.256250393" lon="-1.473798640"><ele>306.317300</ele><time>2010-09-10T12:49:16Z</time></trkpt><trkpt lat="42.256078732" lon="-1.474034674"><ele>306.797900</ele><time>2010-09-10T12:49:25Z</time></trkpt><trkpt lat="42.256014359" lon="-1.474249251"><ele>306.317300</ele><time>2010-09-10T12:49:31Z</time></trkpt><trkpt lat="42.256014359" lon="-1.474356539"><ele>306.317300</ele><time>2010-09-10T12:49:34Z</time></trkpt><trkpt lat="42.256014359" lon="-1.474571116"><ele>306.797900</ele><time>2010-09-10T12:49:40Z</time></trkpt><trkpt lat="42.256014359" lon="-1.474656947"><ele>307.278600</ele><time>2010-09-10T12:49:43Z</time></trkpt><trkpt lat="42.256035817" lon="-1.474699862"><ele>306.797900</ele><time>2010-09-10T12:50:03Z</time></trkpt><trkpt lat="42.256057274" lon="-1.474785693"><ele>306.797900</ele><time>2010-09-10T12:50:52Z</time></trkpt><trkpt lat="42.255928528" lon="-1.474914439"><ele>308.239900</ele><time>2010-09-10T12:50:58Z</time></trkpt><trkpt lat="42.255864155" lon="-1.474935896"><ele>307.759300</ele><time>2010-09-10T12:51:00Z</time></trkpt><trkpt lat="42.255756867" lon="-1.474978812"><ele>308.239900</ele><time>2010-09-10T12:51:04Z</time></trkpt><trkpt lat="42.255628121" lon="-1.475043185"><ele>308.720500</ele><time>2010-09-10T12:51:09Z</time></trkpt><trkpt lat="42.255606663" lon="-1.475064642"><ele>308.239900</ele><time>2010-09-10T12:51:10Z</time></trkpt><trkpt lat="42.255520833" lon="-1.475086100"><ele>307.278600</ele><time>2010-09-10T12:51:13Z</time></trkpt><trkpt lat="42.255456460" lon="-1.475129016"><ele>307.278600</ele><time>2010-09-10T12:51:16Z</time></trkpt><trkpt lat="42.255370629" lon="-1.475150473"><ele>307.759300</ele><time>2010-09-10T12:51:19Z</time></trkpt><trkpt lat="42.255306256" lon="-1.475236304"><ele>307.278600</ele><time>2010-09-10T12:51:22Z</time></trkpt><trkpt lat="42.255220425" lon="-1.475279219"><ele>307.759300</ele><time>2010-09-10T12:51:25Z</time></trkpt><trkpt lat="42.255134595" lon="-1.475322135"><ele>307.278600</ele><time>2010-09-10T12:51:29Z</time></trkpt><trkpt lat="42.254984391" lon="-1.475407965"><ele>305.836700</ele><time>2010-09-10T12:51:36Z</time></trkpt><trkpt lat="42.254920018" lon="-1.475407965"><ele>306.317300</ele><time>2010-09-10T12:51:39Z</time></trkpt><trkpt lat="42.254705441" lon="-1.475279219"><ele>306.317300</ele><time>2010-09-10T12:51:48Z</time></trkpt><trkpt lat="42.254683983" lon="-1.475257762"><ele>307.278600</ele><time>2010-09-10T12:51:50Z</time></trkpt><trkpt lat="42.254576695" lon="-1.475236304"><ele>306.797900</ele><time>2010-09-10T12:51:55Z</time></trkpt><trkpt lat="42.254512322" lon="-1.475279219"><ele>306.317300</ele><time>2010-09-10T12:51:59Z</time></trkpt><trkpt lat="42.254447949" lon="-1.475300677"><ele>306.797900</ele><time>2010-09-10T12:52:02Z</time></trkpt><trkpt lat="42.254405034" lon="-1.475322135"><ele>307.278600</ele><time>2010-09-10T12:52:04Z</time></trkpt><trkpt lat="42.254190457" lon="-1.475579627"><ele>307.278600</ele><time>2010-09-10T12:52:18Z</time></trkpt><trkpt lat="42.254190457" lon="-1.475686915"><ele>306.797900</ele><time>2010-09-10T12:52:21Z</time></trkpt><trkpt lat="42.254211915" lon="-1.475901492"><ele>306.797900</ele><time>2010-09-10T12:52:28Z</time></trkpt><trkpt lat="42.254254830" lon="-1.475944407"><ele>306.797900</ele><time>2010-09-10T12:52:31Z</time></trkpt><trkpt lat="42.254297745" lon="-1.476008780"><ele>306.317300</ele><time>2010-09-10T12:52:34Z</time></trkpt><trkpt lat="42.254340661" lon="-1.476116068"><ele>306.317300</ele><time>2010-09-10T12:52:39Z</time></trkpt><trkpt lat="42.254362118" lon="-1.476158984"><ele>305.836700</ele><time>2010-09-10T12:52:41Z</time></trkpt><trkpt lat="42.254383576" lon="-1.476223357"><ele>305.356000</ele><time>2010-09-10T12:52:43Z</time></trkpt><trkpt lat="42.254383576" lon="-1.476266272"><ele>305.836700</ele><time>2010-09-10T12:52:45Z</time></trkpt><trkpt lat="42.254405034" lon="-1.476352103"><ele>304.875200</ele><time>2010-09-10T12:52:49Z</time></trkpt><trkpt lat="42.254383576" lon="-1.476416476"><ele>305.356000</ele><time>2010-09-10T12:52:53Z</time></trkpt><trkpt lat="42.254362118" lon="-1.476480849"><ele>305.356000</ele><time>2010-09-10T12:52:56Z</time></trkpt><trkpt lat="42.254362118" lon="-1.476480849"><ele>305.356000</ele><time>2010-09-10T12:52:57Z</time></trkpt><trkpt lat="42.254340661" lon="-1.476523764"><ele>305.836700</ele><time>2010-09-10T12:52:59Z</time></trkpt><trkpt lat="42.254340661" lon="-1.476545222"><ele>305.356000</ele><time>2010-09-10T12:53:02Z</time></trkpt><trkpt lat="42.254340661" lon="-1.476545222"><ele>305.836700</ele><time>2010-09-10T12:53:04Z</time></trkpt><trkpt lat="42.254319203" lon="-1.476545222"><ele>306.317300</ele><time>2010-09-10T12:53:06Z</time></trkpt><trkpt lat="42.254319203" lon="-1.476545222"><ele>306.317300</ele><time>2010-09-10T12:53:08Z</time></trkpt><trkpt lat="42.254276288" lon="-1.476566680"><ele>307.278600</ele><time>2010-09-10T12:53:14Z</time></trkpt><trkpt lat="42.254233372" lon="-1.476588137"><ele>307.278600</ele><time>2010-09-10T12:53:17Z</time></trkpt><trkpt lat="42.254211915" lon="-1.476609595"><ele>307.759300</ele><time>2010-09-10T12:53:18Z</time></trkpt><trkpt lat="42.254104626" lon="-1.476673968"><ele>307.278600</ele><time>2010-09-10T12:53:23Z</time></trkpt><trkpt lat="42.254061711" lon="-1.476738341"><ele>307.278600</ele><time>2010-09-10T12:53:26Z</time></trkpt><trkpt lat="42.254040253" lon="-1.476824172"><ele>307.759300</ele><time>2010-09-10T12:53:29Z</time></trkpt><trkpt lat="42.254018796" lon="-1.476867087"><ele>307.278600</ele><time>2010-09-10T12:53:32Z</time></trkpt><trkpt lat="42.253975880" lon="-1.476910002"><ele>307.278600</ele><time>2010-09-10T12:53:36Z</time></trkpt><trkpt lat="42.253890050" lon="-1.476995833"><ele>306.797900</ele><time>2010-09-10T12:53:41Z</time></trkpt><trkpt lat="42.253825677" lon="-1.477081664"><ele>306.797900</ele><time>2010-09-10T12:53:45Z</time></trkpt><trkpt lat="42.253804219" lon="-1.477146037"><ele>306.317300</ele><time>2010-09-10T12:53:47Z</time></trkpt><trkpt lat="42.253739846" lon="-1.477167494"><ele>306.317300</ele><time>2010-09-10T12:53:50Z</time></trkpt><trkpt lat="42.253718388" lon="-1.477253325"><ele>306.317300</ele><time>2010-09-10T12:53:54Z</time></trkpt><trkpt lat="42.253675473" lon="-1.477317698"><ele>306.317300</ele><time>2010-09-10T12:53:57Z</time></trkpt><trkpt lat="42.253589642" lon="-1.477424986"><ele>305.836700</ele><time>2010-09-10T12:54:02Z</time></trkpt><trkpt lat="42.253568184" lon="-1.477467902"><ele>305.356000</ele><time>2010-09-10T12:54:04Z</time></trkpt><trkpt lat="42.253503811" lon="-1.477575190"><ele>305.836700</ele><time>2010-09-10T12:54:10Z</time></trkpt><trkpt lat="42.253460896" lon="-1.477661021"><ele>306.317300</ele><time>2010-09-10T12:54:14Z</time></trkpt><trkpt lat="42.253417981" lon="-1.477703936"><ele>306.317300</ele><time>2010-09-10T12:54:17Z</time></trkpt><trkpt lat="42.253375065" lon="-1.477811225"><ele>306.797900</ele><time>2010-09-10T12:54:22Z</time></trkpt><trkpt lat="42.253353608" lon="-1.477811225"><ele>306.797900</ele><time>2010-09-10T12:54:36Z</time></trkpt><trkpt lat="42.253310692" lon="-1.477918513"><ele>305.836700</ele><time>2010-09-10T12:54:41Z</time></trkpt><trkpt lat="42.253246319" lon="-1.478004344"><ele>306.797900</ele><time>2010-09-10T12:54:45Z</time></trkpt><trkpt lat="42.253181946" lon="-1.478111632"><ele>306.797900</ele><time>2010-09-10T12:54:49Z</time></trkpt><trkpt lat="42.253160489" lon="-1.478176005"><ele>306.317300</ele><time>2010-09-10T12:54:51Z</time></trkpt><trkpt lat="42.253117573" lon="-1.478218920"><ele>307.278600</ele><time>2010-09-10T12:54:53Z</time></trkpt><trkpt lat="42.252967370" lon="-1.478369124"><ele>306.317300</ele><time>2010-09-10T12:55:01Z</time></trkpt><trkpt lat="42.252924454" lon="-1.478497870"><ele>306.797900</ele><time>2010-09-10T12:55:05Z</time></trkpt><trkpt lat="42.252817166" lon="-1.478626616"><ele>305.836700</ele><time>2010-09-10T12:55:11Z</time></trkpt><trkpt lat="42.252581132" lon="-1.478712447"><ele>305.356000</ele><time>2010-09-10T12:55:22Z</time></trkpt><trkpt lat="42.252516759" lon="-1.478712447"><ele>306.317300</ele><time>2010-09-10T12:55:24Z</time></trkpt><trkpt lat="42.252473843" lon="-1.478712447"><ele>305.836700</ele><time>2010-09-10T12:55:27Z</time></trkpt><trkpt lat="42.252409470" lon="-1.478690989"><ele>305.836700</ele><time>2010-09-10T12:55:30Z</time></trkpt><trkpt lat="42.252216351" lon="-1.478583701"><ele>305.836700</ele><time>2010-09-10T12:55:38Z</time></trkpt><trkpt lat="42.252087605" lon="-1.478454955"><ele>305.356000</ele><time>2010-09-10T12:55:44Z</time></trkpt><trkpt lat="42.251937401" lon="-1.478283293"><ele>305.356000</ele><time>2010-09-10T12:55:52Z</time></trkpt><trkpt lat="42.251873028" lon="-1.478197463"><ele>305.836700</ele><time>2010-09-10T12:55:55Z</time></trkpt><trkpt lat="42.251808655" lon="-1.478133090"><ele>305.356000</ele><time>2010-09-10T12:55:58Z</time></trkpt><trkpt lat="42.251787198" lon="-1.478133090"><ele>305.356000</ele><time>2010-09-10T12:55:59Z</time></trkpt><trkpt lat="42.251701367" lon="-1.478068717"><ele>304.875200</ele><time>2010-09-10T12:56:02Z</time></trkpt><trkpt lat="42.251679909" lon="-1.478068717"><ele>304.875200</ele><time>2010-09-10T12:56:03Z</time></trkpt><trkpt lat="42.251250756" lon="-1.478154547"><ele>304.875200</ele><time>2010-09-10T12:56:21Z</time></trkpt><trkpt lat="42.251186383" lon="-1.478218920"><ele>305.836700</ele><time>2010-09-10T12:56:24Z</time></trkpt><trkpt lat="42.251100552" lon="-1.478218920"><ele>305.836700</ele><time>2010-09-10T12:56:30Z</time></trkpt><trkpt lat="42.251100552" lon="-1.478240378"><ele>306.317300</ele><time>2010-09-10T12:56:40Z</time></trkpt><trkpt lat="42.251100552" lon="-1.478283293"><ele>305.356000</ele><time>2010-09-10T12:56:43Z</time></trkpt><trkpt lat="42.251079094" lon="-1.478304751"><ele>305.836700</ele><time>2010-09-10T12:57:18Z</time></trkpt><trkpt lat="42.251100552" lon="-1.478326209"><ele>305.836700</ele><time>2010-09-10T12:58:25Z</time></trkpt><trkpt lat="42.251057637" lon="-1.478304751"><ele>305.836700</ele><time>2010-09-10T12:58:31Z</time></trkpt><trkpt lat="42.251036179" lon="-1.478304751"><ele>305.836700</ele><time>2010-09-10T12:58:32Z</time></trkpt><trkpt lat="42.250349534" lon="-1.478326209"><ele>302.952500</ele><time>2010-09-10T12:59:02Z</time></trkpt><trkpt lat="42.250907433" lon="-1.477124579"><ele>302.471900</ele><time>2010-09-10T13:00:29Z</time></trkpt><trkpt lat="42.250907433" lon="-1.477081664"><ele>302.471900</ele><time>2010-09-10T13:00:30Z</time></trkpt><trkpt lat="42.250821602" lon="-1.477038748"><ele>302.952500</ele><time>2010-09-10T13:00:32Z</time></trkpt><trkpt lat="42.250843060" lon="-1.477060206"><ele>302.471900</ele><time>2010-09-10T13:00:35Z</time></trkpt><trkpt lat="42.250800145" lon="-1.476995833"><ele>302.471900</ele><time>2010-09-10T13:00:37Z</time></trkpt><trkpt lat="42.250435364" lon="-1.476545222"><ele>303.913900</ele><time>2010-09-10T13:00:56Z</time></trkpt><trkpt lat="42.250413907" lon="-1.476523764"><ele>303.433200</ele><time>2010-09-10T13:00:57Z</time></trkpt><trkpt lat="42.250220788" lon="-1.476395018"><ele>302.952500</ele><time>2010-09-10T13:01:05Z</time></trkpt><trkpt lat="42.250177872" lon="-1.476395018"><ele>303.433200</ele><time>2010-09-10T13:01:07Z</time></trkpt><trkpt lat="42.249941838" lon="-1.476287730"><ele>303.913900</ele><time>2010-09-10T13:01:21Z</time></trkpt><trkpt lat="42.249898923" lon="-1.476244814"><ele>303.433200</ele><time>2010-09-10T13:01:26Z</time></trkpt><trkpt lat="42.249877465" lon="-1.476223357"><ele>303.433200</ele><time>2010-09-10T13:01:27Z</time></trkpt><trkpt lat="42.249770176" lon="-1.476137526"><ele>302.952500</ele><time>2010-09-10T13:01:33Z</time></trkpt><trkpt lat="42.249190819" lon="-1.475944407"><ele>302.471900</ele><time>2010-09-10T13:01:52Z</time></trkpt><trkpt lat="42.248203766" lon="-1.476008780"><ele>303.913900</ele><time>2010-09-10T13:02:24Z</time></trkpt><trkpt lat="42.248160851" lon="-1.476030238"><ele>303.913900</ele><time>2010-09-10T13:02:26Z</time></trkpt><trkpt lat="42.247796071" lon="-1.476845629"><ele>302.471900</ele><time>2010-09-10T13:02:58Z</time></trkpt><trkpt lat="42.247989190" lon="-1.476459391"><ele>301.991300</ele><time>2010-09-10T13:03:21Z</time></trkpt><trkpt lat="42.248117936" lon="-1.476459391"><ele>301.991300</ele><time>2010-09-10T13:03:22Z</time></trkpt><trkpt lat="42.247924817" lon="-1.476652510"><ele>302.952500</ele><time>2010-09-10T13:03:26Z</time></trkpt><trkpt lat="42.247838986" lon="-1.476716883"><ele>302.952500</ele><time>2010-09-10T13:03:27Z</time></trkpt><trkpt lat="42.247731698" lon="-1.476952918"><ele>302.471900</ele><time>2010-09-10T13:03:33Z</time></trkpt><trkpt lat="42.247688782" lon="-1.477038748"><ele>301.510600</ele><time>2010-09-10T13:03:36Z</time></trkpt><trkpt lat="42.247688782" lon="-1.477296240"><ele>301.510600</ele><time>2010-09-10T13:03:45Z</time></trkpt><trkpt lat="42.247753155" lon="-1.477489359"><ele>301.510600</ele><time>2010-09-10T13:03:51Z</time></trkpt><trkpt lat="42.247796071" lon="-1.477939971"><ele>301.029900</ele><time>2010-09-10T13:04:05Z</time></trkpt><trkpt lat="42.247774613" lon="-1.478025801"><ele>301.510600</ele><time>2010-09-10T13:04:08Z</time></trkpt><trkpt lat="42.247753155" lon="-1.478090174"><ele>301.510600</ele><time>2010-09-10T13:04:11Z</time></trkpt><trkpt lat="42.247667325" lon="-1.478261836"><ele>301.029900</ele><time>2010-09-10T13:04:20Z</time></trkpt><trkpt lat="42.247602952" lon="-1.478326209"><ele>301.510600</ele><time>2010-09-10T13:04:24Z</time></trkpt><trkpt lat="42.247431290" lon="-1.478412039"><ele>302.952500</ele><time>2010-09-10T13:04:34Z</time></trkpt><trkpt lat="42.247366917" lon="-1.478412039"><ele>302.471900</ele><time>2010-09-10T13:04:37Z</time></trkpt><trkpt lat="42.247281087" lon="-1.478369124"><ele>302.471900</ele><time>2010-09-10T13:04:41Z</time></trkpt><trkpt lat="42.247216714" lon="-1.478218920"><ele>302.952500</ele><time>2010-09-10T13:04:47Z</time></trkpt><trkpt lat="42.247195256" lon="-1.478197463"><ele>302.471900</ele><time>2010-09-10T13:04:48Z</time></trkpt><trkpt lat="42.247130883" lon="-1.478111632"><ele>302.471900</ele><time>2010-09-10T13:04:51Z</time></trkpt><trkpt lat="42.247109425" lon="-1.478004344"><ele>302.471900</ele><time>2010-09-10T13:04:54Z</time></trkpt><trkpt lat="42.247087967" lon="-1.477961428"><ele>302.471900</ele><time>2010-09-10T13:04:55Z</time></trkpt><trkpt lat="42.247066510" lon="-1.477746852"><ele>301.991300</ele><time>2010-09-10T13:05:01Z</time></trkpt><trkpt lat="42.247023594" lon="-1.477639563"><ele>302.471900</ele><time>2010-09-10T13:05:04Z</time></trkpt><trkpt lat="42.246959221" lon="-1.477532275"><ele>301.991300</ele><time>2010-09-10T13:05:08Z</time></trkpt><trkpt lat="42.246916306" lon="-1.477446444"><ele>301.510600</ele><time>2010-09-10T13:05:11Z</time></trkpt><trkpt lat="42.246873391" lon="-1.477403529"><ele>301.029900</ele><time>2010-09-10T13:05:13Z</time></trkpt><trkpt lat="42.246830475" lon="-1.477360613"><ele>301.029900</ele><time>2010-09-10T13:05:15Z</time></trkpt><trkpt lat="42.246766102" lon="-1.477339156"><ele>300.549300</ele><time>2010-09-10T13:05:18Z</time></trkpt><trkpt lat="42.246766102" lon="-1.477339156"><ele>301.029900</ele><time>2010-09-10T13:05:19Z</time></trkpt><trkpt lat="42.246701729" lon="-1.477274783"><ele>301.510600</ele><time>2010-09-10T13:05:24Z</time></trkpt><trkpt lat="42.246680272" lon="-1.477274783"><ele>301.991300</ele><time>2010-09-10T13:05:28Z</time></trkpt><trkpt lat="42.246701729" lon="-1.477296240"><ele>301.029900</ele><time>2010-09-10T13:06:03Z</time></trkpt><trkpt lat="42.246658814" lon="-1.477296240"><ele>301.991300</ele><time>2010-09-10T13:06:08Z</time></trkpt><trkpt lat="42.246551526" lon="-1.477274783"><ele>301.991300</ele><time>2010-09-10T13:06:13Z</time></trkpt><trkpt lat="42.246358407" lon="-1.477274783"><ele>301.991300</ele><time>2010-09-10T13:06:22Z</time></trkpt><trkpt lat="42.246294034" lon="-1.477339156"><ele>302.471900</ele><time>2010-09-10T13:06:25Z</time></trkpt><trkpt lat="42.246272576" lon="-1.477360613"><ele>301.991300</ele><time>2010-09-10T13:06:26Z</time></trkpt><trkpt lat="42.246165288" lon="-1.477489359"><ele>302.471900</ele><time>2010-09-10T13:06:31Z</time></trkpt><trkpt lat="42.246143830" lon="-1.477510817"><ele>301.991300</ele><time>2010-09-10T13:06:32Z</time></trkpt><trkpt lat="42.246100915" lon="-1.477553732"><ele>301.029900</ele><time>2010-09-10T13:06:34Z</time></trkpt><trkpt lat="42.246057999" lon="-1.477725394"><ele>301.510600</ele><time>2010-09-10T13:06:39Z</time></trkpt><trkpt lat="42.246036542" lon="-1.477875598"><ele>301.510600</ele><time>2010-09-10T13:06:43Z</time></trkpt><trkpt lat="42.246036542" lon="-1.477939971"><ele>301.029900</ele><time>2010-09-10T13:06:45Z</time></trkpt><trkpt lat="42.246036542" lon="-1.478025801"><ele>301.510600</ele><time>2010-09-10T13:06:47Z</time></trkpt><trkpt lat="42.246057999" lon="-1.478133090"><ele>301.510600</ele><time>2010-09-10T13:06:50Z</time></trkpt><trkpt lat="42.246015084" lon="-1.478347666"><ele>301.029900</ele><time>2010-09-10T13:06:56Z</time></trkpt><trkpt lat="42.246015084" lon="-1.478390582"><ele>300.549300</ele><time>2010-09-10T13:06:57Z</time></trkpt><trkpt lat="42.245993626" lon="-1.478605158"><ele>300.068700</ele><time>2010-09-10T13:07:01Z</time></trkpt><trkpt lat="42.245972169" lon="-1.478712447"><ele>299.588000</ele><time>2010-09-10T13:07:03Z</time></trkpt><trkpt lat="42.245993626" lon="-1.478927023"><ele>298.626700</ele><time>2010-09-10T13:07:08Z</time></trkpt><trkpt lat="42.245972169" lon="-1.479291804"><ele>300.068700</ele><time>2010-09-10T13:07:17Z</time></trkpt><trkpt lat="42.245993626" lon="-1.479484923"><ele>299.588000</ele><time>2010-09-10T13:07:23Z</time></trkpt><trkpt lat="42.245993626" lon="-1.479506381"><ele>299.588000</ele><time>2010-09-10T13:07:24Z</time></trkpt><trkpt lat="42.245972169" lon="-1.479592211"><ele>299.107300</ele><time>2010-09-10T13:07:27Z</time></trkpt><trkpt lat="42.245972169" lon="-1.479635127"><ele>300.068700</ele><time>2010-09-10T13:07:28Z</time></trkpt><trkpt lat="42.245950711" lon="-1.479871161"><ele>299.588000</ele><time>2010-09-10T13:07:35Z</time></trkpt><trkpt lat="42.245907796" lon="-1.479978449"><ele>299.588000</ele><time>2010-09-10T13:07:38Z</time></trkpt><trkpt lat="42.245864880" lon="-1.480042822"><ele>299.588000</ele><time>2010-09-10T13:07:40Z</time></trkpt><trkpt lat="42.245864880" lon="-1.480214484"><ele>299.588000</ele><time>2010-09-10T13:07:45Z</time></trkpt><trkpt lat="42.245864880" lon="-1.480321772"><ele>299.588000</ele><time>2010-09-10T13:07:49Z</time></trkpt><trkpt lat="42.245886338" lon="-1.480364687"><ele>299.588000</ele><time>2010-09-10T13:07:51Z</time></trkpt><trkpt lat="42.245886338" lon="-1.480386145"><ele>299.588000</ele><time>2010-09-10T13:07:53Z</time></trkpt><trkpt lat="42.245864880" lon="-1.480429061"><ele>299.588000</ele><time>2010-09-10T13:07:55Z</time></trkpt><trkpt lat="42.245864880" lon="-1.480429061"><ele>296.223500</ele><time>2010-09-10T13:08:36Z</time></trkpt><trkpt lat="42.245864880" lon="-1.480429061"><ele>299.588000</ele><time>2010-09-10T13:09:17Z</time></trkpt><trkpt lat="42.245864880" lon="-1.480450518"><ele>297.665400</ele><time>2010-09-10T13:10:58Z</time></trkpt><trkpt lat="42.245864880" lon="-1.480450518"><ele>299.588000</ele><time>2010-09-10T13:11:02Z</time></trkpt><trkpt lat="42.245821965" lon="-1.480557807"><ele>299.107300</ele><time>2010-09-10T13:11:08Z</time></trkpt><trkpt lat="42.245800507" lon="-1.480622180"><ele>298.626700</ele><time>2010-09-10T13:11:11Z</time></trkpt><trkpt lat="42.245779049" lon="-1.480686553"><ele>298.146100</ele><time>2010-09-10T13:11:14Z</time></trkpt><trkpt lat="42.245714676" lon="-1.480772383"><ele>299.107300</ele><time>2010-09-10T13:11:20Z</time></trkpt><trkpt lat="42.245500100" lon="-1.480793841"><ele>299.588000</ele><time>2010-09-10T13:11:30Z</time></trkpt><trkpt lat="42.245478642" lon="-1.480815299"><ele>299.107300</ele><time>2010-09-10T13:11:31Z</time></trkpt><trkpt lat="42.245285523" lon="-1.480815299"><ele>299.588000</ele><time>2010-09-10T13:11:39Z</time></trkpt><trkpt lat="42.245199692" lon="-1.480815299"><ele>299.107300</ele><time>2010-09-10T13:11:43Z</time></trkpt><trkpt lat="42.245178235" lon="-1.480793841"><ele>299.107300</ele><time>2010-09-10T13:11:44Z</time></trkpt><trkpt lat="42.245006573" lon="-1.480858214"><ele>298.146100</ele><time>2010-09-10T13:11:52Z</time></trkpt><trkpt lat="42.244985116" lon="-1.480879672"><ele>297.665400</ele><time>2010-09-10T13:11:53Z</time></trkpt><trkpt lat="42.244877827" lon="-1.481008418"><ele>297.665400</ele><time>2010-09-10T13:12:01Z</time></trkpt><trkpt lat="42.244899285" lon="-1.481051333"><ele>296.704100</ele><time>2010-09-10T13:12:02Z</time></trkpt><trkpt lat="42.244856370" lon="-1.481094248"><ele>297.665400</ele><time>2010-09-10T13:12:05Z</time></trkpt><trkpt lat="42.244749081" lon="-1.481137164"><ele>295.742700</ele><time>2010-09-10T13:12:10Z</time></trkpt><trkpt lat="42.244706166" lon="-1.481158621"><ele>297.184700</ele><time>2010-09-10T13:12:12Z</time></trkpt><trkpt lat="42.244663251" lon="-1.481180079"><ele>297.665400</ele><time>2010-09-10T13:12:15Z</time></trkpt><trkpt lat="42.244598878" lon="-1.481201537"><ele>296.704100</ele><time>2010-09-10T13:12:18Z</time></trkpt><trkpt lat="42.244555962" lon="-1.481201537"><ele>297.665400</ele><time>2010-09-10T13:12:20Z</time></trkpt><trkpt lat="42.244513047" lon="-1.481180079"><ele>297.184700</ele><time>2010-09-10T13:12:22Z</time></trkpt><trkpt lat="42.244448674" lon="-1.481201537"><ele>298.146100</ele><time>2010-09-10T13:12:25Z</time></trkpt><trkpt lat="42.244427216" lon="-1.481222994"><ele>297.184700</ele><time>2010-09-10T13:12:26Z</time></trkpt><trkpt lat="42.244384301" lon="-1.481244452"><ele>297.184700</ele><time>2010-09-10T13:12:28Z</time></trkpt><trkpt lat="42.244234097" lon="-1.481394656"><ele>297.665400</ele><time>2010-09-10T13:12:36Z</time></trkpt><trkpt lat="42.244148266" lon="-1.481501944"><ele>297.665400</ele><time>2010-09-10T13:12:42Z</time></trkpt><trkpt lat="42.244126809" lon="-1.481544859"><ele>297.665400</ele><time>2010-09-10T13:12:44Z</time></trkpt><trkpt lat="42.244062436" lon="-1.481652148"><ele>297.184700</ele><time>2010-09-10T13:12:47Z</time></trkpt><trkpt lat="42.244040978" lon="-1.481716521"><ele>298.626700</ele><time>2010-09-10T13:12:49Z</time></trkpt><trkpt lat="42.243955147" lon="-1.481888182"><ele>297.184700</ele><time>2010-09-10T13:12:55Z</time></trkpt><trkpt lat="42.243933690" lon="-1.481931098"><ele>297.184700</ele><time>2010-09-10T13:12:56Z</time></trkpt><trkpt lat="42.243847859" lon="-1.482038386"><ele>297.184700</ele><time>2010-09-10T13:13:00Z</time></trkpt><trkpt lat="42.243697655" lon="-1.482317336"><ele>296.223500</ele><time>2010-09-10T13:13:07Z</time></trkpt><trkpt lat="42.243483079" lon="-1.482553370"><ele>295.262000</ele><time>2010-09-10T13:13:18Z</time></trkpt><trkpt lat="42.243375790" lon="-1.482617743"><ele>295.262000</ele><time>2010-09-10T13:13:23Z</time></trkpt><trkpt lat="42.243289960" lon="-1.482703574"><ele>295.742700</ele><time>2010-09-10T13:13:27Z</time></trkpt><trkpt lat="42.243182671" lon="-1.482832320"><ele>296.704100</ele><time>2010-09-10T13:13:32Z</time></trkpt><trkpt lat="42.243053925" lon="-1.482961066"><ele>295.742700</ele><time>2010-09-10T13:13:37Z</time></trkpt><trkpt lat="42.243032467" lon="-1.483068354"><ele>295.262000</ele><time>2010-09-10T13:13:40Z</time></trkpt><trkpt lat="42.242989552" lon="-1.483132727"><ele>295.262000</ele><time>2010-09-10T13:13:43Z</time></trkpt><trkpt lat="42.242689145" lon="-1.483626254"><ele>294.781400</ele><time>2010-09-10T13:14:00Z</time></trkpt><trkpt lat="42.242560399" lon="-1.483862288"><ele>295.262000</ele><time>2010-09-10T13:14:08Z</time></trkpt><trkpt lat="42.242496026" lon="-1.483948119"><ele>295.262000</ele><time>2010-09-10T13:14:11Z</time></trkpt><trkpt lat="42.242453110" lon="-1.484033949"><ele>295.742700</ele><time>2010-09-10T13:14:14Z</time></trkpt><trkpt lat="42.242431653" lon="-1.484098322"><ele>295.742700</ele><time>2010-09-10T13:14:16Z</time></trkpt><trkpt lat="42.242345822" lon="-1.484205611"><ele>295.262000</ele><time>2010-09-10T13:14:20Z</time></trkpt><trkpt lat="42.242302907" lon="-1.484269984"><ele>295.262000</ele><time>2010-09-10T13:14:22Z</time></trkpt><trkpt lat="42.242238534" lon="-1.484334357"><ele>295.742700</ele><time>2010-09-10T13:14:25Z</time></trkpt><trkpt lat="42.242131245" lon="-1.484484561"><ele>295.742700</ele><time>2010-09-10T13:14:30Z</time></trkpt><trkpt lat="42.242088330" lon="-1.484527476"><ele>295.262000</ele><time>2010-09-10T13:14:32Z</time></trkpt><trkpt lat="42.241895211" lon="-1.484570391"><ele>295.262000</ele><time>2010-09-10T13:14:38Z</time></trkpt><trkpt lat="42.241873753" lon="-1.484570391"><ele>294.781400</ele><time>2010-09-10T13:14:39Z</time></trkpt><trkpt lat="42.241852295" lon="-1.484591849"><ele>295.262000</ele><time>2010-09-10T13:14:41Z</time></trkpt><trkpt lat="42.241809380" lon="-1.484613307"><ele>296.223500</ele><time>2010-09-10T13:14:44Z</time></trkpt><trkpt lat="42.241680634" lon="-1.484656222"><ele>296.223500</ele><time>2010-09-10T13:14:49Z</time></trkpt><trkpt lat="42.241594803" lon="-1.484677680"><ele>295.742700</ele><time>2010-09-10T13:14:52Z</time></trkpt><trkpt lat="42.241508973" lon="-1.484656222"><ele>296.223500</ele><time>2010-09-10T13:14:55Z</time></trkpt><trkpt lat="42.241401684" lon="-1.484656222"><ele>295.262000</ele><time>2010-09-10T13:14:58Z</time></trkpt><trkpt lat="42.241358769" lon="-1.484656222"><ele>295.742700</ele><time>2010-09-10T13:14:59Z</time></trkpt><trkpt lat="42.241144192" lon="-1.484677680"><ele>295.262000</ele><time>2010-09-10T13:15:06Z</time></trkpt><trkpt lat="42.241122735" lon="-1.484699137"><ele>295.742700</ele><time>2010-09-10T13:15:08Z</time></trkpt><trkpt lat="42.240993989" lon="-1.484742053"><ele>296.223500</ele><time>2010-09-10T13:15:13Z</time></trkpt><trkpt lat="42.240929616" lon="-1.484763510"><ele>296.223500</ele><time>2010-09-10T13:15:15Z</time></trkpt><trkpt lat="42.240800870" lon="-1.484806426"><ele>296.223500</ele><time>2010-09-10T13:15:20Z</time></trkpt><trkpt lat="42.240650666" lon="-1.484806426"><ele>295.262000</ele><time>2010-09-10T13:15:24Z</time></trkpt><trkpt lat="42.240564835" lon="-1.484849341"><ele>295.742700</ele><time>2010-09-10T13:15:27Z</time></trkpt><trkpt lat="42.240521920" lon="-1.484849341"><ele>294.781400</ele><time>2010-09-10T13:15:28Z</time></trkpt><trkpt lat="42.240285885" lon="-1.485042460"><ele>294.781400</ele><time>2010-09-10T13:15:36Z</time></trkpt><trkpt lat="42.240242970" lon="-1.485063918"><ele>294.300800</ele><time>2010-09-10T13:15:37Z</time></trkpt><trkpt lat="42.239899647" lon="-1.485621817"><ele>294.781400</ele><time>2010-09-10T13:15:57Z</time></trkpt><trkpt lat="42.239835274" lon="-1.485707648"><ele>294.300800</ele><time>2010-09-10T13:16:00Z</time></trkpt><trkpt lat="42.239770901" lon="-1.485879309"><ele>294.300800</ele><time>2010-09-10T13:16:05Z</time></trkpt><trkpt lat="42.239749444" lon="-1.486008055"><ele>294.781400</ele><time>2010-09-10T13:16:09Z</time></trkpt><trkpt lat="42.239663613" lon="-1.486265547"><ele>295.262000</ele><time>2010-09-10T13:16:16Z</time></trkpt><trkpt lat="42.239642155" lon="-1.486351378"><ele>294.781400</ele><time>2010-09-10T13:16:18Z</time></trkpt><trkpt lat="42.239599240" lon="-1.486501582"><ele>294.781400</ele><time>2010-09-10T13:16:22Z</time></trkpt><trkpt lat="42.239577782" lon="-1.486608870"><ele>294.781400</ele><time>2010-09-10T13:16:25Z</time></trkpt><trkpt lat="42.239556325" lon="-1.486716158"><ele>294.781400</ele><time>2010-09-10T13:16:28Z</time></trkpt><trkpt lat="42.239470494" lon="-1.486952193"><ele>294.300800</ele><time>2010-09-10T13:16:34Z</time></trkpt><trkpt lat="42.239320290" lon="-1.487252600"><ele>294.300800</ele><time>2010-09-10T13:16:43Z</time></trkpt><trkpt lat="42.239320290" lon="-1.487381346"><ele>294.300800</ele><time>2010-09-10T13:16:46Z</time></trkpt><trkpt lat="42.239298832" lon="-1.487402804"><ele>293.820100</ele><time>2010-09-10T13:16:47Z</time></trkpt><trkpt lat="42.239255917" lon="-1.487553008"><ele>294.300800</ele><time>2010-09-10T13:16:51Z</time></trkpt><trkpt lat="42.239084256" lon="-1.487939246"><ele>294.781400</ele><time>2010-09-10T13:17:04Z</time></trkpt><trkpt lat="42.239041340" lon="-1.487982161"><ele>294.300800</ele><time>2010-09-10T13:17:06Z</time></trkpt><trkpt lat="42.238976967" lon="-1.487982161"><ele>295.262000</ele><time>2010-09-10T13:17:10Z</time></trkpt><trkpt lat="42.238976967" lon="-1.487982161"><ele>295.262000</ele><time>2010-09-10T13:17:12Z</time></trkpt><trkpt lat="42.238976967" lon="-1.487982161"><ele>295.742700</ele><time>2010-09-10T13:17:14Z</time></trkpt><trkpt lat="42.238976967" lon="-1.487982161"><ele>295.742700</ele><time>2010-09-10T13:17:19Z</time></trkpt><trkpt lat="42.238976967" lon="-1.487960703"><ele>294.781400</ele><time>2010-09-10T13:17:41Z</time></trkpt><trkpt lat="42.238955510" lon="-1.487960703"><ele>294.781400</ele><time>2010-09-10T13:17:43Z</time></trkpt><trkpt lat="42.238955510" lon="-1.487982161"><ele>294.781400</ele><time>2010-09-10T13:17:52Z</time></trkpt><trkpt lat="42.238955510" lon="-1.487960703"><ele>295.742700</ele><time>2010-09-10T13:19:14Z</time></trkpt><trkpt lat="42.238955510" lon="-1.487960703"><ele>295.742700</ele><time>2010-09-10T13:19:17Z</time></trkpt><trkpt lat="42.238955510" lon="-1.487960703"><ele>290.455600</ele><time>2010-09-10T13:19:38Z</time></trkpt><trkpt lat="42.238955510" lon="-1.487960703"><ele>301.991300</ele><time>2010-09-10T13:19:39Z</time></trkpt><trkpt lat="42.238955510" lon="-1.487960703"><ele>294.781400</ele><time>2010-09-10T13:19:40Z</time></trkpt><trkpt lat="42.238955510" lon="-1.487960703"><ele>295.742700</ele><time>2010-09-10T13:20:05Z</time></trkpt><trkpt lat="42.238955510" lon="-1.487960703"><ele>295.262000</ele><time>2010-09-10T13:20:51Z</time></trkpt><trkpt lat="42.238869679" lon="-1.488067992"><ele>295.262000</ele><time>2010-09-10T13:20:57Z</time></trkpt><trkpt lat="42.238848221" lon="-1.488089449"><ele>295.262000</ele><time>2010-09-10T13:20:58Z</time></trkpt><trkpt lat="42.238805306" lon="-1.488132365"><ele>295.262000</ele><time>2010-09-10T13:21:00Z</time></trkpt><trkpt lat="42.238719475" lon="-1.488261111"><ele>294.781400</ele><time>2010-09-10T13:21:05Z</time></trkpt><trkpt lat="42.238612187" lon="-1.488454230"><ele>295.742700</ele><time>2010-09-10T13:21:11Z</time></trkpt><trkpt lat="42.238483441" lon="-1.488540061"><ele>295.262000</ele><time>2010-09-10T13:21:17Z</time></trkpt><trkpt lat="42.238461983" lon="-1.488561518"><ele>295.262000</ele><time>2010-09-10T13:21:18Z</time></trkpt><trkpt lat="42.238290322" lon="-1.488625891"><ele>294.781400</ele><time>2010-09-10T13:21:24Z</time></trkpt><trkpt lat="42.238225949" lon="-1.488690264"><ele>294.300800</ele><time>2010-09-10T13:21:27Z</time></trkpt><trkpt lat="42.238140118" lon="-1.488776095"><ele>294.781400</ele><time>2010-09-10T13:21:31Z</time></trkpt><trkpt lat="42.238075745" lon="-1.488840468"><ele>295.742700</ele><time>2010-09-10T13:21:34Z</time></trkpt><trkpt lat="42.237968457" lon="-1.488947756"><ele>294.781400</ele><time>2010-09-10T13:21:40Z</time></trkpt><trkpt lat="42.237861168" lon="-1.489012129"><ele>294.300800</ele><time>2010-09-10T13:21:44Z</time></trkpt><trkpt lat="42.237818253" lon="-1.489033587"><ele>293.820100</ele><time>2010-09-10T13:21:45Z</time></trkpt><trkpt lat="42.237775338" lon="-1.489055045"><ele>294.300800</ele><time>2010-09-10T13:21:47Z</time></trkpt><trkpt lat="42.237710965" lon="-1.489097960"><ele>294.300800</ele><time>2010-09-10T13:21:50Z</time></trkpt><trkpt lat="42.237668049" lon="-1.489119418"><ele>294.300800</ele><time>2010-09-10T13:21:51Z</time></trkpt><trkpt lat="42.237474930" lon="-1.489333994"><ele>294.781400</ele><time>2010-09-10T13:22:02Z</time></trkpt><trkpt lat="42.237432015" lon="-1.489462740"><ele>295.742700</ele><time>2010-09-10T13:22:07Z</time></trkpt><trkpt lat="42.237410557" lon="-1.489505656"><ele>296.223500</ele><time>2010-09-10T13:22:08Z</time></trkpt><trkpt lat="42.237389100" lon="-1.489698775"><ele>293.820100</ele><time>2010-09-10T13:22:13Z</time></trkpt><trkpt lat="42.237432015" lon="-1.490235217"><ele>292.858800</ele><time>2010-09-10T13:22:24Z</time></trkpt><trkpt lat="42.237496388" lon="-1.490363963"><ele>293.339400</ele><time>2010-09-10T13:22:28Z</time></trkpt><trkpt lat="42.237539303" lon="-1.490471251"><ele>292.858800</ele><time>2010-09-10T13:22:31Z</time></trkpt><trkpt lat="42.237582219" lon="-1.490535624"><ele>293.339400</ele><time>2010-09-10T13:22:33Z</time></trkpt><trkpt lat="42.237732422" lon="-1.490921862"><ele>293.339400</ele><time>2010-09-10T13:22:44Z</time></trkpt><trkpt lat="42.237710965" lon="-1.491007693"><ele>292.858800</ele><time>2010-09-10T13:23:00Z</time></trkpt><trkpt lat="42.237668049" lon="-1.491029151"><ele>293.820100</ele><time>2010-09-10T13:29:34Z</time></trkpt><trkpt lat="42.237646592" lon="-1.491029151"><ele>293.820100</ele><time>2010-09-10T13:29:36Z</time></trkpt><trkpt lat="42.237668049" lon="-1.491007693"><ele>294.300800</ele><time>2010-09-10T13:30:18Z</time></trkpt><trkpt lat="42.237710965" lon="-1.491007693"><ele>293.820100</ele><time>2010-09-10T13:32:51Z</time></trkpt><trkpt lat="42.237710965" lon="-1.491007693"><ele>294.781400</ele><time>2010-09-10T13:45:57Z</time></trkpt><trkpt lat="42.237710965" lon="-1.490986235"><ele>295.262000</ele><time>2010-09-10T13:46:02Z</time></trkpt><trkpt lat="42.237710965" lon="-1.490986235"><ele>295.262000</ele><time>2010-09-10T13:46:18Z</time></trkpt><trkpt lat="42.237796795" lon="-1.491050608"><ele>295.262000</ele><time>2010-09-10T13:46:23Z</time></trkpt><trkpt lat="42.237818253" lon="-1.491050608"><ele>295.262000</ele><time>2010-09-10T13:46:24Z</time></trkpt><trkpt lat="42.237882626" lon="-1.491222270"><ele>295.742700</ele><time>2010-09-10T13:46:34Z</time></trkpt><trkpt lat="42.237904084" lon="-1.491243727"><ele>295.742700</ele><time>2010-09-10T13:46:35Z</time></trkpt><trkpt lat="42.237904084" lon="-1.491329558"><ele>296.223500</ele><time>2010-09-10T13:46:38Z</time></trkpt><trkpt lat="42.237882626" lon="-1.491393931"><ele>294.781400</ele><time>2010-09-10T13:46:41Z</time></trkpt><trkpt lat="42.237946999" lon="-1.491672881"><ele>295.742700</ele><time>2010-09-10T13:46:52Z</time></trkpt><trkpt lat="42.237946999" lon="-1.491737254"><ele>296.704100</ele><time>2010-09-10T13:46:55Z</time></trkpt><trkpt lat="42.237946999" lon="-1.491758711"><ele>297.184700</ele><time>2010-09-10T13:46:56Z</time></trkpt><trkpt lat="42.237925541" lon="-1.491930373"><ele>297.184700</ele><time>2010-09-10T13:47:03Z</time></trkpt><trkpt lat="42.237925541" lon="-1.491951830"><ele>296.704100</ele><time>2010-09-10T13:47:04Z</time></trkpt><trkpt lat="42.237882626" lon="-1.492016203"><ele>297.184700</ele><time>2010-09-10T13:47:07Z</time></trkpt><trkpt lat="42.237882626" lon="-1.492037661"><ele>297.184700</ele><time>2010-09-10T13:47:08Z</time></trkpt><trkpt lat="42.237839711" lon="-1.492123492"><ele>296.704100</ele><time>2010-09-10T13:47:12Z</time></trkpt><trkpt lat="42.237818253" lon="-1.492187865"><ele>297.665400</ele><time>2010-09-10T13:47:14Z</time></trkpt><trkpt lat="42.237668049" lon="-1.492574103"><ele>297.665400</ele><time>2010-09-10T13:47:27Z</time></trkpt><trkpt lat="42.237646592" lon="-1.492617018"><ele>297.184700</ele><time>2010-09-10T13:47:29Z</time></trkpt><trkpt lat="42.237582219" lon="-1.492745764"><ele>297.184700</ele><time>2010-09-10T13:47:33Z</time></trkpt><trkpt lat="42.237517846" lon="-1.492938883"><ele>299.107300</ele><time>2010-09-10T13:47:39Z</time></trkpt><trkpt lat="42.237453473" lon="-1.493046172"><ele>297.665400</ele><time>2010-09-10T13:47:43Z</time></trkpt><trkpt lat="42.237432015" lon="-1.493153460"><ele>297.665400</ele><time>2010-09-10T13:47:46Z</time></trkpt><trkpt lat="42.237410557" lon="-1.493282206"><ele>297.665400</ele><time>2010-09-10T13:47:50Z</time></trkpt><trkpt lat="42.237389100" lon="-1.493432410"><ele>296.704100</ele><time>2010-09-10T13:47:54Z</time></trkpt><trkpt lat="42.237389100" lon="-1.493518241"><ele>297.184700</ele><time>2010-09-10T13:47:56Z</time></trkpt><trkpt lat="42.237367642" lon="-1.493646987"><ele>298.626700</ele><time>2010-09-10T13:47:59Z</time></trkpt><trkpt lat="42.237367642" lon="-1.493668444"><ele>292.378200</ele><time>2010-09-10T13:48:31Z</time></trkpt><trkpt lat="42.237367642" lon="-1.493668444"><ele>294.781400</ele><time>2010-09-10T13:48:32Z</time></trkpt><trkpt lat="42.237367642" lon="-1.493668444"><ele>294.781400</ele><time>2010-09-10T13:48:33Z</time></trkpt><trkpt lat="42.237496388" lon="-1.494247801"><ele>295.742700</ele><time>2010-09-10T13:48:43Z</time></trkpt><trkpt lat="42.237496388" lon="-1.494204886"><ele>295.262000</ele><time>2010-09-10T13:48:46Z</time></trkpt><trkpt lat="42.237496388" lon="-1.494183428"><ele>295.742700</ele><time>2010-09-10T13:48:51Z</time></trkpt><trkpt lat="42.237496388" lon="-1.494204886"><ele>295.742700</ele><time>2010-09-10T13:48:52Z</time></trkpt><trkpt lat="42.237496388" lon="-1.494269259"><ele>296.223500</ele><time>2010-09-10T13:48:54Z</time></trkpt><trkpt lat="42.237517846" lon="-1.494440920"><ele>295.742700</ele><time>2010-09-10T13:49:00Z</time></trkpt><trkpt lat="42.237560761" lon="-1.494526751"><ele>295.742700</ele><time>2010-09-10T13:49:03Z</time></trkpt><trkpt lat="42.237603676" lon="-1.494698412"><ele>294.781400</ele><time>2010-09-10T13:49:08Z</time></trkpt><trkpt lat="42.237732422" lon="-1.495170481"><ele>292.858800</ele><time>2010-09-10T13:49:19Z</time></trkpt><trkpt lat="42.237775338" lon="-1.495385058"><ele>294.781400</ele><time>2010-09-10T13:49:24Z</time></trkpt><trkpt lat="42.237775338" lon="-1.495470889"><ele>294.781400</ele><time>2010-09-10T13:49:26Z</time></trkpt><trkpt lat="42.237796795" lon="-1.495599635"><ele>293.820100</ele><time>2010-09-10T13:49:30Z</time></trkpt><trkpt lat="42.237732422" lon="-1.495771296"><ele>293.339400</ele><time>2010-09-10T13:49:36Z</time></trkpt><trkpt lat="42.237689507" lon="-1.495814211"><ele>294.300800</ele><time>2010-09-10T13:49:38Z</time></trkpt><trkpt lat="42.237625134" lon="-1.496007330"><ele>294.781400</ele><time>2010-09-10T13:49:45Z</time></trkpt><trkpt lat="42.237625134" lon="-1.496071703"><ele>294.781400</ele><time>2010-09-10T13:49:47Z</time></trkpt><trkpt lat="42.237539303" lon="-1.496329196"><ele>294.300800</ele><time>2010-09-10T13:49:55Z</time></trkpt><trkpt lat="42.237474930" lon="-1.496393569"><ele>295.262000</ele><time>2010-09-10T13:49:58Z</time></trkpt><trkpt lat="42.237410557" lon="-1.496457942"><ele>294.781400</ele><time>2010-09-10T13:50:02Z</time></trkpt><trkpt lat="42.237303269" lon="-1.496543772"><ele>293.820100</ele><time>2010-09-10T13:50:07Z</time></trkpt><trkpt lat="42.237281811" lon="-1.496565230"><ele>294.781400</ele><time>2010-09-10T13:50:08Z</time></trkpt><trkpt lat="42.237153065" lon="-1.496693976"><ele>295.262000</ele><time>2010-09-10T13:50:15Z</time></trkpt><trkpt lat="42.237131608" lon="-1.496693976"><ele>295.262000</ele><time>2010-09-10T13:50:16Z</time></trkpt><trkpt lat="42.237110150" lon="-1.496758349"><ele>295.742700</ele><time>2010-09-10T13:50:27Z</time></trkpt><trkpt lat="42.236959946" lon="-1.496908553"><ele>294.781400</ele><time>2010-09-10T13:50:33Z</time></trkpt><trkpt lat="42.236874116" lon="-1.496972926"><ele>294.300800</ele><time>2010-09-10T13:50:36Z</time></trkpt><trkpt lat="42.236831200" lon="-1.497015841"><ele>294.781400</ele><time>2010-09-10T13:50:38Z</time></trkpt><trkpt lat="42.236745370" lon="-1.497080214"><ele>294.300800</ele><time>2010-09-10T13:50:42Z</time></trkpt><trkpt lat="42.236723912" lon="-1.497123129"><ele>294.300800</ele><time>2010-09-10T13:50:43Z</time></trkpt><trkpt lat="42.236638081" lon="-1.497187502"><ele>293.820100</ele><time>2010-09-10T13:50:46Z</time></trkpt><trkpt lat="42.236595166" lon="-1.497230418"><ele>293.820100</ele><time>2010-09-10T13:50:48Z</time></trkpt><trkpt lat="42.236466420" lon="-1.497316248"><ele>293.820100</ele><time>2010-09-10T13:50:52Z</time></trkpt><trkpt lat="42.236359131" lon="-1.497402079"><ele>293.339400</ele><time>2010-09-10T13:50:56Z</time></trkpt><trkpt lat="42.236251843" lon="-1.497595198"><ele>292.378200</ele><time>2010-09-10T13:51:02Z</time></trkpt><trkpt lat="42.236230385" lon="-1.497638114"><ele>292.858800</ele><time>2010-09-10T13:51:03Z</time></trkpt><trkpt lat="42.236123097" lon="-1.497702487"><ele>292.378200</ele><time>2010-09-10T13:51:07Z</time></trkpt><trkpt lat="42.236037266" lon="-1.497788317"><ele>292.378200</ele><time>2010-09-10T13:51:10Z</time></trkpt><trkpt lat="42.235972893" lon="-1.497852690"><ele>292.378200</ele><time>2010-09-10T13:51:13Z</time></trkpt><trkpt lat="42.235887063" lon="-1.497959979"><ele>291.897500</ele><time>2010-09-10T13:51:18Z</time></trkpt><trkpt lat="42.235865605" lon="-1.498002894"><ele>291.897500</ele><time>2010-09-10T13:51:20Z</time></trkpt><trkpt lat="42.235801232" lon="-1.498045809"><ele>292.378200</ele><time>2010-09-10T13:51:24Z</time></trkpt><trkpt lat="42.235779774" lon="-1.498067267"><ele>292.378200</ele><time>2010-09-10T13:51:27Z</time></trkpt><trkpt lat="42.235779774" lon="-1.498067267"><ele>292.378200</ele><time>2010-09-10T13:51:34Z</time></trkpt><trkpt lat="42.235779774" lon="-1.498067267"><ele>292.858800</ele><time>2010-09-10T13:51:56Z</time></trkpt><trkpt lat="42.235758317" lon="-1.498088725"><ele>293.339400</ele><time>2010-09-10T13:51:59Z</time></trkpt><trkpt lat="42.235758317" lon="-1.498067267"><ele>292.378200</ele><time>2010-09-10T13:52:04Z</time></trkpt><trkpt lat="42.235736859" lon="-1.498067267"><ele>292.858800</ele><time>2010-09-10T13:52:06Z</time></trkpt><trkpt lat="42.235736859" lon="-1.498088725"><ele>292.378200</ele><time>2010-09-10T13:52:08Z</time></trkpt><trkpt lat="42.235715401" lon="-1.498088725"><ele>292.378200</ele><time>2010-09-10T13:52:10Z</time></trkpt><trkpt lat="42.235672486" lon="-1.498067267"><ele>292.378200</ele><time>2010-09-10T13:52:14Z</time></trkpt><trkpt lat="42.235672486" lon="-1.498067267"><ele>292.378200</ele><time>2010-09-10T13:52:15Z</time></trkpt><trkpt lat="42.235672486" lon="-1.498067267"><ele>292.858800</ele><time>2010-09-10T13:52:23Z</time></trkpt><trkpt lat="42.235629571" lon="-1.498110182"><ele>292.858800</ele><time>2010-09-10T13:52:27Z</time></trkpt><trkpt lat="42.235608113" lon="-1.498153098"><ele>292.378200</ele><time>2010-09-10T13:52:31Z</time></trkpt><trkpt lat="42.235565198" lon="-1.498217471"><ele>292.378200</ele><time>2010-09-10T13:52:35Z</time></trkpt><trkpt lat="42.235522282" lon="-1.498260386"><ele>291.897500</ele><time>2010-09-10T13:52:37Z</time></trkpt><trkpt lat="42.235500825" lon="-1.498324759"><ele>293.339400</ele><time>2010-09-10T13:52:40Z</time></trkpt><trkpt lat="42.235436452" lon="-1.498517878"><ele>294.781400</ele><time>2010-09-10T13:52:50Z</time></trkpt><trkpt lat="42.235436452" lon="-1.498539336"><ele>294.781400</ele><time>2010-09-10T13:52:51Z</time></trkpt><trkpt lat="42.235350621" lon="-1.498603709"><ele>294.300800</ele><time>2010-09-10T13:52:55Z</time></trkpt><trkpt lat="42.235329163" lon="-1.498646624"><ele>294.300800</ele><time>2010-09-10T13:52:57Z</time></trkpt><trkpt lat="42.235243332" lon="-1.498753913"><ele>293.820100</ele><time>2010-09-10T13:53:02Z</time></trkpt><trkpt lat="42.235157502" lon="-1.498839743"><ele>293.339400</ele><time>2010-09-10T13:53:06Z</time></trkpt><trkpt lat="42.235050213" lon="-1.499032862"><ele>291.897500</ele><time>2010-09-10T13:53:13Z</time></trkpt><trkpt lat="42.235028756" lon="-1.499054320"><ele>292.378200</ele><time>2010-09-10T13:53:14Z</time></trkpt><trkpt lat="42.234985840" lon="-1.499097235"><ele>291.897500</ele><time>2010-09-10T13:53:18Z</time></trkpt><trkpt lat="42.234985840" lon="-1.499118693"><ele>291.897500</ele><time>2010-09-10T13:53:19Z</time></trkpt><trkpt lat="42.234900010" lon="-1.499118693"><ele>290.455600</ele><time>2010-09-10T13:53:27Z</time></trkpt><trkpt lat="42.234900010" lon="-1.499140151"><ele>290.455600</ele><time>2010-09-10T13:53:32Z</time></trkpt><trkpt lat="42.234964383" lon="-1.499161608"><ele>291.897500</ele><time>2010-09-10T13:53:42Z</time></trkpt><trkpt lat="42.234985840" lon="-1.499161608"><ele>292.378200</ele><time>2010-09-10T13:53:43Z</time></trkpt><trkpt lat="42.235028756" lon="-1.499161608"><ele>292.378200</ele><time>2010-09-10T13:53:48Z</time></trkpt><trkpt lat="42.235028756" lon="-1.499161608"><ele>292.378200</ele><time>2010-09-10T13:53:49Z</time></trkpt><trkpt lat="42.235071671" lon="-1.499118693"><ele>293.339400</ele><time>2010-09-10T13:53:54Z</time></trkpt><trkpt lat="42.235071671" lon="-1.499118693"><ele>294.300800</ele><time>2010-09-10T13:53:55Z</time></trkpt><trkpt lat="42.235114586" lon="-1.499118693"><ele>293.820100</ele><time>2010-09-10T13:53:58Z</time></trkpt><trkpt lat="42.235114586" lon="-1.499118693"><ele>293.820100</ele><time>2010-09-10T13:53:59Z</time></trkpt><trkpt lat="42.235136044" lon="-1.499118693"><ele>294.781400</ele><time>2010-09-10T13:54:01Z</time></trkpt><trkpt lat="42.235093129" lon="-1.499333270"><ele>294.781400</ele><time>2010-09-10T13:54:15Z</time></trkpt><trkpt lat="42.234814179" lon="-1.499698050"><ele>295.262000</ele><time>2010-09-10T13:54:28Z</time></trkpt><trkpt lat="42.234749806" lon="-1.499891169"><ele>294.781400</ele><time>2010-09-10T13:54:33Z</time></trkpt><trkpt lat="42.234728348" lon="-1.499912627"><ele>294.781400</ele><time>2010-09-10T13:54:34Z</time></trkpt><trkpt lat="42.234685433" lon="-1.500019915"><ele>294.781400</ele><time>2010-09-10T13:54:37Z</time></trkpt><trkpt lat="42.234556687" lon="-1.500277407"><ele>294.300800</ele><time>2010-09-10T13:54:45Z</time></trkpt><trkpt lat="42.234513772" lon="-1.500341780"><ele>294.300800</ele><time>2010-09-10T13:54:47Z</time></trkpt><trkpt lat="42.234449399" lon="-1.500427611"><ele>293.339400</ele><time>2010-09-10T13:54:50Z</time></trkpt><trkpt lat="42.234427941" lon="-1.500470526"><ele>292.858800</ele><time>2010-09-10T13:54:51Z</time></trkpt><trkpt lat="42.234385026" lon="-1.500599272"><ele>293.339400</ele><time>2010-09-10T13:54:54Z</time></trkpt><trkpt lat="42.234363568" lon="-1.500642188"><ele>292.858800</ele><time>2010-09-10T13:54:55Z</time></trkpt><trkpt lat="42.234256280" lon="-1.500770934"><ele>291.897500</ele><time>2010-09-10T13:55:00Z</time></trkpt><trkpt lat="42.234191907" lon="-1.500835307"><ele>291.897500</ele><time>2010-09-10T13:55:04Z</time></trkpt><trkpt lat="42.234148991" lon="-1.500921137"><ele>291.897500</ele><time>2010-09-10T13:55:07Z</time></trkpt><trkpt lat="42.234084618" lon="-1.500985510"><ele>291.897500</ele><time>2010-09-10T13:55:10Z</time></trkpt><trkpt lat="42.233998787" lon="-1.501114256"><ele>292.378200</ele><time>2010-09-10T13:55:15Z</time></trkpt><trkpt lat="42.233998787" lon="-1.501157172"><ele>292.378200</ele><time>2010-09-10T13:55:16Z</time></trkpt><trkpt lat="42.233870041" lon="-1.501328833"><ele>291.897500</ele><time>2010-09-10T13:55:22Z</time></trkpt><trkpt lat="42.233698380" lon="-1.501521952"><ele>292.858800</ele><time>2010-09-10T13:55:29Z</time></trkpt><trkpt lat="42.233612549" lon="-1.501629241"><ele>291.897500</ele><time>2010-09-10T13:55:33Z</time></trkpt><trkpt lat="42.233591092" lon="-1.501736529"><ele>291.416700</ele><time>2010-09-10T13:55:37Z</time></trkpt><trkpt lat="42.233569634" lon="-1.501779444"><ele>291.416700</ele><time>2010-09-10T13:55:38Z</time></trkpt><trkpt lat="42.233505261" lon="-1.501865275"><ele>290.936200</ele><time>2010-09-10T13:55:42Z</time></trkpt><trkpt lat="42.233440888" lon="-1.501951106"><ele>290.936200</ele><time>2010-09-10T13:55:46Z</time></trkpt><trkpt lat="42.233355057" lon="-1.502122767"><ele>291.897500</ele><time>2010-09-10T13:55:52Z</time></trkpt><trkpt lat="42.233226311" lon="-1.502315886"><ele>291.416700</ele><time>2010-09-10T13:55:59Z</time></trkpt><trkpt lat="42.233183396" lon="-1.502358801"><ele>291.897500</ele><time>2010-09-10T13:56:01Z</time></trkpt><trkpt lat="42.233119023" lon="-1.502466090"><ele>291.897500</ele><time>2010-09-10T13:56:05Z</time></trkpt><trkpt lat="42.233119023" lon="-1.502509005"><ele>291.897500</ele><time>2010-09-10T13:56:06Z</time></trkpt><trkpt lat="42.233054650" lon="-1.502594836"><ele>291.897500</ele><time>2010-09-10T13:56:09Z</time></trkpt><trkpt lat="42.233011735" lon="-1.502723582"><ele>290.936200</ele><time>2010-09-10T13:56:12Z</time></trkpt><trkpt lat="42.232968819" lon="-1.502852328"><ele>291.416700</ele><time>2010-09-10T13:56:17Z</time></trkpt><trkpt lat="42.232947362" lon="-1.502873786"><ele>291.416700</ele><time>2010-09-10T13:56:18Z</time></trkpt><trkpt lat="42.232861531" lon="-1.502938159"><ele>290.455600</ele><time>2010-09-10T13:56:23Z</time></trkpt><trkpt lat="42.232840073" lon="-1.502981074"><ele>290.455600</ele><time>2010-09-10T13:56:25Z</time></trkpt><trkpt lat="42.232797158" lon="-1.503066905"><ele>289.974900</ele><time>2010-09-10T13:56:30Z</time></trkpt><trkpt lat="42.232775700" lon="-1.503088362"><ele>289.974900</ele><time>2010-09-10T13:56:31Z</time></trkpt><trkpt lat="42.232604039" lon="-1.503260024"><ele>290.455600</ele><time>2010-09-10T13:56:43Z</time></trkpt><trkpt lat="42.232582581" lon="-1.503281481"><ele>289.974900</ele><time>2010-09-10T13:56:45Z</time></trkpt><trkpt lat="42.232539666" lon="-1.503345854"><ele>289.974900</ele><time>2010-09-10T13:56:48Z</time></trkpt><trkpt lat="42.232496750" lon="-1.503431685"><ele>289.974900</ele><time>2010-09-10T13:56:51Z</time></trkpt><trkpt lat="42.232432377" lon="-1.503474600"><ele>289.974900</ele><time>2010-09-10T13:56:54Z</time></trkpt><trkpt lat="42.232368004" lon="-1.503538973"><ele>289.974900</ele><time>2010-09-10T13:56:58Z</time></trkpt><trkpt lat="42.232282174" lon="-1.503581889"><ele>290.455600</ele><time>2010-09-10T13:57:01Z</time></trkpt><trkpt lat="42.232174885" lon="-1.503624804"><ele>291.416700</ele><time>2010-09-10T13:57:06Z</time></trkpt><trkpt lat="42.232153428" lon="-1.503624804"><ele>291.416700</ele><time>2010-09-10T13:57:07Z</time></trkpt><trkpt lat="42.232067597" lon="-1.503560431"><ele>291.416700</ele><time>2010-09-10T13:57:11Z</time></trkpt><trkpt lat="42.232046139" lon="-1.503538973"><ele>291.897500</ele><time>2010-09-10T13:57:12Z</time></trkpt><trkpt lat="42.231895936" lon="-1.503538973"><ele>291.897500</ele><time>2010-09-10T13:57:18Z</time></trkpt><trkpt lat="42.231853020" lon="-1.503538973"><ele>291.897500</ele><time>2010-09-10T13:57:19Z</time></trkpt><trkpt lat="42.231724274" lon="-1.503474600"><ele>290.455600</ele><time>2010-09-10T13:57:23Z</time></trkpt><trkpt lat="42.231659901" lon="-1.503431685"><ele>291.416700</ele><time>2010-09-10T13:57:25Z</time></trkpt><trkpt lat="42.231552613" lon="-1.503410227"><ele>290.455600</ele><time>2010-09-10T13:57:28Z</time></trkpt><trkpt lat="42.231338036" lon="-1.503109820"><ele>289.013500</ele><time>2010-09-10T13:57:37Z</time></trkpt><trkpt lat="42.231166375" lon="-1.503088362"><ele>290.936200</ele><time>2010-09-10T13:57:44Z</time></trkpt><trkpt lat="42.231144917" lon="-1.503109820"><ele>290.936200</ele><time>2010-09-10T13:57:45Z</time></trkpt><trkpt lat="42.231037629" lon="-1.503109820"><ele>291.416700</ele><time>2010-09-10T13:57:49Z</time></trkpt><trkpt lat="42.230973256" lon="-1.503152735"><ele>290.936200</ele><time>2010-09-10T13:57:52Z</time></trkpt><trkpt lat="42.230801594" lon="-1.503281481"><ele>290.936200</ele><time>2010-09-10T13:58:00Z</time></trkpt><trkpt lat="42.230780137" lon="-1.503324397"><ele>290.936200</ele><time>2010-09-10T13:58:01Z</time></trkpt><trkpt lat="42.230737221" lon="-1.503388770"><ele>290.936200</ele><time>2010-09-10T13:58:04Z</time></trkpt><trkpt lat="42.230608475" lon="-1.503410227"><ele>290.455600</ele><time>2010-09-10T13:58:09Z</time></trkpt><trkpt lat="42.230544102" lon="-1.503431685"><ele>288.533000</ele><time>2010-09-10T13:58:11Z</time></trkpt><trkpt lat="42.230522645" lon="-1.503453143"><ele>288.533000</ele><time>2010-09-10T13:58:12Z</time></trkpt><trkpt lat="42.230393899" lon="-1.503538973"><ele>288.533000</ele><time>2010-09-10T13:58:17Z</time></trkpt><trkpt lat="42.230308068" lon="-1.503538973"><ele>288.533000</ele><time>2010-09-10T13:58:20Z</time></trkpt><trkpt lat="42.230093491" lon="-1.503496058"><ele>289.013500</ele><time>2010-09-10T13:58:29Z</time></trkpt><trkpt lat="42.230050576" lon="-1.503496058"><ele>289.494100</ele><time>2010-09-10T13:58:31Z</time></trkpt><trkpt lat="42.229900372" lon="-1.503431685"><ele>289.494100</ele><time>2010-09-10T13:58:37Z</time></trkpt><trkpt lat="42.229599965" lon="-1.503345854"><ele>288.533000</ele><time>2010-09-10T13:58:46Z</time></trkpt><trkpt lat="42.229492676" lon="-1.503410227"><ele>287.090800</ele><time>2010-09-10T13:58:49Z</time></trkpt><trkpt lat="42.229471219" lon="-1.503431685"><ele>287.571400</ele><time>2010-09-10T13:58:50Z</time></trkpt><trkpt lat="42.229385388" lon="-1.503538973"><ele>289.494100</ele><time>2010-09-10T13:58:55Z</time></trkpt><trkpt lat="42.229363930" lon="-1.503603346"><ele>290.455600</ele><time>2010-09-10T13:58:57Z</time></trkpt><trkpt lat="42.229299557" lon="-1.503689177"><ele>289.974900</ele><time>2010-09-10T13:59:01Z</time></trkpt><trkpt lat="42.229192269" lon="-1.503775008"><ele>289.494100</ele><time>2010-09-10T13:59:05Z</time></trkpt><trkpt lat="42.228999150" lon="-1.504032500"><ele>289.494100</ele><time>2010-09-10T13:59:15Z</time></trkpt><trkpt lat="42.228913319" lon="-1.504075415"><ele>289.013500</ele><time>2010-09-10T13:59:18Z</time></trkpt><trkpt lat="42.228870404" lon="-1.504182704"><ele>289.494100</ele><time>2010-09-10T13:59:21Z</time></trkpt><trkpt lat="42.228848946" lon="-1.504204161"><ele>289.494100</ele><time>2010-09-10T13:59:22Z</time></trkpt><trkpt lat="42.228763115" lon="-1.504268534"><ele>289.974900</ele><time>2010-09-10T13:59:25Z</time></trkpt><trkpt lat="42.228591454" lon="-1.504418738"><ele>287.090800</ele><time>2010-09-10T13:59:31Z</time></trkpt><trkpt lat="42.228462708" lon="-1.504568942"><ele>286.129500</ele><time>2010-09-10T13:59:35Z</time></trkpt><trkpt lat="42.228376877" lon="-1.504654772"><ele>286.610200</ele><time>2010-09-10T13:59:38Z</time></trkpt><trkpt lat="42.228248131" lon="-1.504654772"><ele>286.610200</ele><time>2010-09-10T13:59:47Z</time></trkpt><trkpt lat="42.228248131" lon="-1.504654772"><ele>286.610200</ele><time>2010-09-10T13:59:48Z</time></trkpt><trkpt lat="42.228248131" lon="-1.504654772"><ele>286.610200</ele><time>2010-09-10T13:59:50Z</time></trkpt><trkpt lat="42.228269589" lon="-1.504633315"><ele>286.610200</ele><time>2010-09-10T13:59:53Z</time></trkpt><trkpt lat="42.228269589" lon="-1.504633315"><ele>286.129500</ele><time>2010-09-10T13:59:54Z</time></trkpt><trkpt lat="42.228269589" lon="-1.504633315"><ele>286.610200</ele><time>2010-09-10T13:59:57Z</time></trkpt><trkpt lat="42.228269589" lon="-1.504611857"><ele>286.610200</ele><time>2010-09-10T14:00:00Z</time></trkpt><trkpt lat="42.228291047" lon="-1.504590399"><ele>286.129500</ele><time>2010-09-10T14:00:04Z</time></trkpt><trkpt lat="42.228291047" lon="-1.504568942"><ele>286.129500</ele><time>2010-09-10T14:00:05Z</time></trkpt><trkpt lat="42.228291047" lon="-1.504568942"><ele>286.129500</ele><time>2010-09-10T14:00:07Z</time></trkpt><trkpt lat="42.228269589" lon="-1.504440196"><ele>287.571400</ele><time>2010-09-10T14:00:20Z</time></trkpt><trkpt lat="42.228248131" lon="-1.504397280"><ele>287.090800</ele><time>2010-09-10T14:00:25Z</time></trkpt><trkpt lat="42.228140843" lon="-1.504289992"><ele>287.571400</ele><time>2010-09-10T14:00:30Z</time></trkpt><trkpt lat="42.228033555" lon="-1.504247077"><ele>287.090800</ele><time>2010-09-10T14:00:33Z</time></trkpt><trkpt lat="42.227969182" lon="-1.504225619"><ele>286.129500</ele><time>2010-09-10T14:00:35Z</time></trkpt><trkpt lat="42.227797520" lon="-1.504182704"><ele>285.168200</ele><time>2010-09-10T14:00:39Z</time></trkpt><trkpt lat="42.227561486" lon="-1.504440196"><ele>285.168200</ele><time>2010-09-10T14:00:47Z</time></trkpt><trkpt lat="42.227561486" lon="-1.504483111"><ele>285.648800</ele><time>2010-09-10T14:00:48Z</time></trkpt><trkpt lat="42.227389824" lon="-1.504933722"><ele>286.129500</ele><time>2010-09-10T14:00:58Z</time></trkpt><trkpt lat="42.227346909" lon="-1.505105383"><ele>286.129500</ele><time>2010-09-10T14:01:02Z</time></trkpt><trkpt lat="42.227303994" lon="-1.505169756"><ele>286.129500</ele><time>2010-09-10T14:01:04Z</time></trkpt><trkpt lat="42.227175248" lon="-1.505405791"><ele>285.168200</ele><time>2010-09-10T14:01:10Z</time></trkpt><trkpt lat="42.227067959" lon="-1.505663283"><ele>285.648800</ele><time>2010-09-10T14:01:18Z</time></trkpt><trkpt lat="42.227025044" lon="-1.505684741"><ele>284.687600</ele><time>2010-09-10T14:01:20Z</time></trkpt><trkpt lat="42.226917756" lon="-1.505770571"><ele>285.648800</ele><time>2010-09-10T14:01:24Z</time></trkpt><trkpt lat="42.226510060" lon="-1.505985148"><ele>286.129500</ele><time>2010-09-10T14:01:38Z</time></trkpt><trkpt lat="42.226424229" lon="-1.506092436"><ele>285.648800</ele><time>2010-09-10T14:01:41Z</time></trkpt><trkpt lat="42.226402772" lon="-1.506135352"><ele>285.168200</ele><time>2010-09-10T14:01:42Z</time></trkpt><trkpt lat="42.226295483" lon="-1.506199725"><ele>284.687600</ele><time>2010-09-10T14:01:45Z</time></trkpt><trkpt lat="42.226123822" lon="-1.506414301"><ele>285.168200</ele><time>2010-09-10T14:01:52Z</time></trkpt><trkpt lat="42.226059449" lon="-1.506585963"><ele>285.648800</ele><time>2010-09-10T14:01:56Z</time></trkpt><trkpt lat="42.226037991" lon="-1.506693251"><ele>285.648800</ele><time>2010-09-10T14:01:59Z</time></trkpt><trkpt lat="42.225995076" lon="-1.506800540"><ele>285.648800</ele><time>2010-09-10T14:02:02Z</time></trkpt><trkpt lat="42.225952160" lon="-1.506864913"><ele>285.648800</ele><time>2010-09-10T14:02:04Z</time></trkpt><trkpt lat="42.225887787" lon="-1.506972201"><ele>285.168200</ele><time>2010-09-10T14:02:07Z</time></trkpt><trkpt lat="42.225608838" lon="-1.506907828"><ele>284.687600</ele><time>2010-09-10T14:02:17Z</time></trkpt><trkpt lat="42.225544465" lon="-1.506779082"><ele>285.648800</ele><time>2010-09-10T14:02:21Z</time></trkpt><trkpt lat="42.225458634" lon="-1.506628878"><ele>285.168200</ele><time>2010-09-10T14:02:26Z</time></trkpt><trkpt lat="42.225415719" lon="-1.506585963"><ele>285.168200</ele><time>2010-09-10T14:02:28Z</time></trkpt><trkpt lat="42.225308430" lon="-1.506521590"><ele>284.687600</ele><time>2010-09-10T14:02:31Z</time></trkpt><trkpt lat="42.225265515" lon="-1.506478674"><ele>285.168200</ele><time>2010-09-10T14:02:33Z</time></trkpt><trkpt lat="42.225115311" lon="-1.506435759"><ele>284.687600</ele><time>2010-09-10T14:02:38Z</time></trkpt><trkpt lat="42.225072396" lon="-1.506457217"><ele>284.687600</ele><time>2010-09-10T14:02:39Z</time></trkpt><trkpt lat="42.224707615" lon="-1.506543047"><ele>284.687600</ele><time>2010-09-10T14:02:50Z</time></trkpt><trkpt lat="42.224621785" lon="-1.506628878"><ele>284.687600</ele><time>2010-09-10T14:02:53Z</time></trkpt><trkpt lat="42.224578869" lon="-1.506736167"><ele>285.168200</ele><time>2010-09-10T14:02:56Z</time></trkpt><trkpt lat="42.224535954" lon="-1.506886370"><ele>285.168200</ele><time>2010-09-10T14:02:59Z</time></trkpt><trkpt lat="42.224514496" lon="-1.506972201"><ele>285.168200</ele><time>2010-09-10T14:03:01Z</time></trkpt><trkpt lat="42.224471581" lon="-1.507229693"><ele>284.687600</ele><time>2010-09-10T14:03:06Z</time></trkpt><trkpt lat="42.224342835" lon="-1.507508643"><ele>284.206900</ele><time>2010-09-10T14:03:14Z</time></trkpt><trkpt lat="42.224321377" lon="-1.507615931"><ele>284.206900</ele><time>2010-09-10T14:03:17Z</time></trkpt><trkpt lat="42.224299920" lon="-1.507701762"><ele>284.687600</ele><time>2010-09-10T14:03:19Z</time></trkpt><trkpt lat="42.224257004" lon="-1.507873423"><ele>284.206900</ele><time>2010-09-10T14:03:23Z</time></trkpt><trkpt lat="42.224214089" lon="-1.507959254"><ele>283.726200</ele><time>2010-09-10T14:03:25Z</time></trkpt><trkpt lat="42.224192631" lon="-1.508109458"><ele>283.726200</ele><time>2010-09-10T14:03:28Z</time></trkpt><trkpt lat="42.224149716" lon="-1.508216746"><ele>284.206900</ele><time>2010-09-10T14:03:31Z</time></trkpt><trkpt lat="42.224128258" lon="-1.508281119"><ele>283.726200</ele><time>2010-09-10T14:03:33Z</time></trkpt><trkpt lat="42.224085343" lon="-1.508388407"><ele>284.206900</ele><time>2010-09-10T14:03:36Z</time></trkpt><trkpt lat="42.224063885" lon="-1.508409865"><ele>284.687600</ele><time>2010-09-10T14:03:37Z</time></trkpt><trkpt lat="42.224020970" lon="-1.508538611"><ele>284.206900</ele><time>2010-09-10T14:03:41Z</time></trkpt><trkpt lat="42.223999512" lon="-1.508560069"><ele>284.687600</ele><time>2010-09-10T14:03:42Z</time></trkpt><trkpt lat="42.223892224" lon="-1.508796103"><ele>284.687600</ele><time>2010-09-10T14:03:48Z</time></trkpt><trkpt lat="42.223827851" lon="-1.508903391"><ele>284.687600</ele><time>2010-09-10T14:03:51Z</time></trkpt><trkpt lat="42.223720563" lon="-1.509075053"><ele>283.726200</ele><time>2010-09-10T14:03:56Z</time></trkpt><trkpt lat="42.223677647" lon="-1.509182341"><ele>284.206900</ele><time>2010-09-10T14:03:59Z</time></trkpt><trkpt lat="42.223613274" lon="-1.509268172"><ele>285.168200</ele><time>2010-09-10T14:04:02Z</time></trkpt><trkpt lat="42.223527443" lon="-1.509482749"><ele>285.648800</ele><time>2010-09-10T14:04:10Z</time></trkpt><trkpt lat="42.223505986" lon="-1.509504206"><ele>285.648800</ele><time>2010-09-10T14:04:11Z</time></trkpt><trkpt lat="42.223377240" lon="-1.509654410"><ele>283.726200</ele><time>2010-09-10T14:04:19Z</time></trkpt><trkpt lat="42.223355782" lon="-1.509675868"><ele>283.726200</ele><time>2010-09-10T14:04:20Z</time></trkpt><trkpt lat="42.223227036" lon="-1.509783156"><ele>284.206900</ele><time>2010-09-10T14:04:26Z</time></trkpt><trkpt lat="42.223098290" lon="-1.509718783"><ele>284.687600</ele><time>2010-09-10T14:04:32Z</time></trkpt><trkpt lat="42.223055375" lon="-1.509675868"><ele>285.168200</ele><time>2010-09-10T14:04:34Z</time></trkpt><trkpt lat="42.223012459" lon="-1.509654410"><ele>285.168200</ele><time>2010-09-10T14:04:36Z</time></trkpt><trkpt lat="42.222926629" lon="-1.509590037"><ele>285.648800</ele><time>2010-09-10T14:04:39Z</time></trkpt><trkpt lat="42.222819340" lon="-1.509504206"><ele>285.648800</ele><time>2010-09-10T14:04:44Z</time></trkpt><trkpt lat="42.222819340" lon="-1.509482749"><ele>285.168200</ele><time>2010-09-10T14:04:45Z</time></trkpt><trkpt lat="42.222754967" lon="-1.509461291"><ele>284.687600</ele><time>2010-09-10T14:04:48Z</time></trkpt><trkpt lat="42.222669137" lon="-1.509461291"><ele>284.206900</ele><time>2010-09-10T14:04:50Z</time></trkpt><trkpt lat="42.222647679" lon="-1.509461291"><ele>283.726200</ele><time>2010-09-10T14:04:51Z</time></trkpt><trkpt lat="42.222583306" lon="-1.509461291"><ele>284.206900</ele><time>2010-09-10T14:04:54Z</time></trkpt><trkpt lat="42.222518933" lon="-1.509439833"><ele>284.206900</ele><time>2010-09-10T14:04:57Z</time></trkpt><trkpt lat="42.222390187" lon="-1.509461291"><ele>286.610200</ele><time>2010-09-10T14:05:03Z</time></trkpt><trkpt lat="42.222368729" lon="-1.509482749"><ele>286.610200</ele><time>2010-09-10T14:05:04Z</time></trkpt><trkpt lat="42.222261441" lon="-1.509590037"><ele>286.610200</ele><time>2010-09-10T14:05:08Z</time></trkpt><trkpt lat="42.222197068" lon="-1.509718783"><ele>286.610200</ele><time>2010-09-10T14:05:11Z</time></trkpt><trkpt lat="42.222003949" lon="-1.509804614"><ele>285.168200</ele><time>2010-09-10T14:05:16Z</time></trkpt><trkpt lat="42.221961033" lon="-1.509826071"><ele>286.129500</ele><time>2010-09-10T14:05:17Z</time></trkpt><trkpt lat="42.221853745" lon="-1.509868987"><ele>284.687600</ele><time>2010-09-10T14:05:23Z</time></trkpt><trkpt lat="42.221832287" lon="-1.509868987"><ele>284.687600</ele><time>2010-09-10T14:05:25Z</time></trkpt><trkpt lat="42.221767914" lon="-1.509911902"><ele>283.726200</ele><time>2010-09-10T14:05:29Z</time></trkpt><trkpt lat="42.221746457" lon="-1.509933360"><ele>282.284300</ele><time>2010-09-10T14:05:30Z</time></trkpt><trkpt lat="42.221724999" lon="-1.509954817"><ele>286.129500</ele><time>2010-09-10T14:05:32Z</time></trkpt><trkpt lat="42.221724999" lon="-1.509954817"><ele>281.323000</ele><time>2010-09-10T14:05:33Z</time></trkpt><trkpt lat="42.221724999" lon="-1.509954817"><ele>283.245600</ele><time>2010-09-10T14:05:34Z</time></trkpt><trkpt lat="42.221724999" lon="-1.509954817"><ele>283.245600</ele><time>2010-09-10T14:05:43Z</time></trkpt><trkpt lat="42.221724999" lon="-1.509954817"><ele>283.726200</ele><time>2010-09-10T14:05:46Z</time></trkpt><trkpt lat="42.221724999" lon="-1.509954817"><ele>283.726200</ele><time>2010-09-10T14:05:50Z</time></trkpt><trkpt lat="42.221682084" lon="-1.509954817"><ele>284.206900</ele><time>2010-09-10T14:05:57Z</time></trkpt><trkpt lat="42.221682084" lon="-1.509954817"><ele>284.206900</ele><time>2010-09-10T14:05:58Z</time></trkpt><trkpt lat="42.221617711" lon="-1.509911902"><ele>284.206900</ele><time>2010-09-10T14:06:07Z</time></trkpt><trkpt lat="42.221617711" lon="-1.509911902"><ele>284.206900</ele><time>2010-09-10T14:06:43Z</time></trkpt><trkpt lat="42.221617711" lon="-1.509911902"><ele>284.687600</ele><time>2010-09-10T14:06:53Z</time></trkpt><trkpt lat="42.221617711" lon="-1.509890444"><ele>284.687600</ele><time>2010-09-10T14:06:58Z</time></trkpt><trkpt lat="42.221596253" lon="-1.509890444"><ele>283.726200</ele><time>2010-09-10T14:12:07Z</time></trkpt><trkpt lat="42.221617711" lon="-1.509890444"><ele>285.168200</ele><time>2010-09-10T14:12:09Z</time></trkpt><trkpt lat="42.221617711" lon="-1.509890444"><ele>285.168200</ele><time>2010-09-10T14:12:10Z</time></trkpt><trkpt lat="42.221553338" lon="-1.509847529"><ele>285.168200</ele><time>2010-09-10T14:12:18Z</time></trkpt><trkpt lat="42.221531880" lon="-1.509847529"><ele>285.648800</ele><time>2010-09-10T14:12:19Z</time></trkpt><trkpt lat="42.221467507" lon="-1.509783156"><ele>286.129500</ele><time>2010-09-10T14:12:23Z</time></trkpt><trkpt lat="42.221446049" lon="-1.509761698"><ele>286.129500</ele><time>2010-09-10T14:12:24Z</time></trkpt><trkpt lat="42.221381676" lon="-1.509675868"><ele>286.610200</ele><time>2010-09-10T14:12:28Z</time></trkpt><trkpt lat="42.221381676" lon="-1.509654410"><ele>286.129500</ele><time>2010-09-10T14:12:29Z</time></trkpt><trkpt lat="42.221317303" lon="-1.509611495"><ele>286.610200</ele><time>2010-09-10T14:12:32Z</time></trkpt><trkpt lat="42.221102727" lon="-1.509439833"><ele>286.129500</ele><time>2010-09-10T14:12:41Z</time></trkpt><trkpt lat="42.221059811" lon="-1.509418376"><ele>285.648800</ele><time>2010-09-10T14:12:43Z</time></trkpt><trkpt lat="42.221016896" lon="-1.509375460"><ele>285.168200</ele><time>2010-09-10T14:12:45Z</time></trkpt><trkpt lat="42.220973981" lon="-1.509332545"><ele>285.168200</ele><time>2010-09-10T14:12:47Z</time></trkpt><trkpt lat="42.220952523" lon="-1.509289630"><ele>285.168200</ele><time>2010-09-10T14:12:49Z</time></trkpt><trkpt lat="42.220909607" lon="-1.509246714"><ele>284.687600</ele><time>2010-09-10T14:12:54Z</time></trkpt><trkpt lat="42.220909607" lon="-1.509203799"><ele>285.648800</ele><time>2010-09-10T14:13:07Z</time></trkpt><trkpt lat="42.220909607" lon="-1.509203799"><ele>286.610200</ele><time>2010-09-10T14:13:13Z</time></trkpt><trkpt lat="42.220866692" lon="-1.509160883"><ele>286.129500</ele><time>2010-09-10T14:13:16Z</time></trkpt><trkpt lat="42.220823777" lon="-1.509139426"><ele>286.129500</ele><time>2010-09-10T14:13:19Z</time></trkpt><trkpt lat="42.220759404" lon="-1.509117968"><ele>285.648800</ele><time>2010-09-10T14:13:26Z</time></trkpt><trkpt lat="42.220759404" lon="-1.509117968"><ele>285.648800</ele><time>2010-09-10T14:13:28Z</time></trkpt><trkpt lat="42.220759404" lon="-1.509117968"><ele>285.648800</ele><time>2010-09-10T14:13:30Z</time></trkpt><trkpt lat="42.220737946" lon="-1.509139426"><ele>285.168200</ele><time>2010-09-10T14:13:33Z</time></trkpt><trkpt lat="42.220737946" lon="-1.509182341"><ele>283.726200</ele><time>2010-09-10T14:13:36Z</time></trkpt><trkpt lat="42.220695031" lon="-1.509268172"><ele>285.168200</ele><time>2010-09-10T14:13:44Z</time></trkpt><trkpt lat="42.220673573" lon="-1.509268172"><ele>285.648800</ele><time>2010-09-10T14:13:48Z</time></trkpt><trkpt lat="42.220673573" lon="-1.509268172"><ele>286.129500</ele><time>2010-09-10T14:13:49Z</time></trkpt><trkpt lat="42.220587742" lon="-1.509289630"><ele>286.610200</ele><time>2010-09-10T14:13:56Z</time></trkpt><trkpt lat="42.220566285" lon="-1.509311087"><ele>286.129500</ele><time>2010-09-10T14:13:57Z</time></trkpt><trkpt lat="42.220458996" lon="-1.509311087"><ele>286.129500</ele><time>2010-09-10T14:14:01Z</time></trkpt><trkpt lat="42.220416081" lon="-1.509311087"><ele>286.129500</ele><time>2010-09-10T14:14:02Z</time></trkpt><trkpt lat="42.220287335" lon="-1.509311087"><ele>285.168200</ele><time>2010-09-10T14:14:07Z</time></trkpt><trkpt lat="42.219750893" lon="-1.509396918"><ele>285.168200</ele><time>2010-09-10T14:14:24Z</time></trkpt><trkpt lat="42.219707978" lon="-1.509396918"><ele>285.168200</ele><time>2010-09-10T14:14:25Z</time></trkpt><trkpt lat="42.219600689" lon="-1.509418376"><ele>285.168200</ele><time>2010-09-10T14:14:29Z</time></trkpt><trkpt lat="42.219514859" lon="-1.509482749"><ele>285.648800</ele><time>2010-09-10T14:14:32Z</time></trkpt><trkpt lat="42.219429028" lon="-1.509568579"><ele>285.168200</ele><time>2010-09-10T14:14:35Z</time></trkpt><trkpt lat="42.219364655" lon="-1.509675868"><ele>284.687600</ele><time>2010-09-10T14:14:39Z</time></trkpt><trkpt lat="42.219321740" lon="-1.509783156"><ele>285.648800</ele><time>2010-09-10T14:14:42Z</time></trkpt><trkpt lat="42.219321740" lon="-1.509847529"><ele>285.168200</ele><time>2010-09-10T14:14:44Z</time></trkpt><trkpt lat="42.219343197" lon="-1.509997733"><ele>285.648800</ele><time>2010-09-10T14:14:48Z</time></trkpt><trkpt lat="42.219364655" lon="-1.510126479"><ele>285.648800</ele><time>2010-09-10T14:14:51Z</time></trkpt><trkpt lat="42.219364655" lon="-1.510255225"><ele>285.168200</ele><time>2010-09-10T14:14:54Z</time></trkpt><trkpt lat="42.219364655" lon="-1.510298140"><ele>285.168200</ele><time>2010-09-10T14:14:55Z</time></trkpt><trkpt lat="42.219321740" lon="-1.510512717"><ele>285.648800</ele><time>2010-09-10T14:15:01Z</time></trkpt><trkpt lat="42.219321740" lon="-1.510555632"><ele>285.168200</ele><time>2010-09-10T14:15:02Z</time></trkpt><trkpt lat="42.219343197" lon="-1.510684378"><ele>285.168200</ele><time>2010-09-10T14:15:05Z</time></trkpt><trkpt lat="42.219364655" lon="-1.510813124"><ele>284.687600</ele><time>2010-09-10T14:15:08Z</time></trkpt><trkpt lat="42.219321740" lon="-1.511628516"><ele>284.687600</ele><time>2010-09-10T14:15:28Z</time></trkpt><trkpt lat="42.219235909" lon="-1.511821635"><ele>286.129500</ele><time>2010-09-10T14:15:33Z</time></trkpt><trkpt lat="42.219171536" lon="-1.511886008"><ele>286.610200</ele><time>2010-09-10T14:15:36Z</time></trkpt><trkpt lat="42.219107163" lon="-1.511993296"><ele>286.129500</ele><time>2010-09-10T14:15:40Z</time></trkpt><trkpt lat="42.218892586" lon="-1.512057669"><ele>286.129500</ele><time>2010-09-10T14:15:48Z</time></trkpt><trkpt lat="42.218592179" lon="-1.512036212"><ele>284.206900</ele><time>2010-09-10T14:15:56Z</time></trkpt><trkpt lat="42.218463433" lon="-1.512057669"><ele>285.168200</ele><time>2010-09-10T14:16:00Z</time></trkpt><trkpt lat="42.218377602" lon="-1.512143500"><ele>284.687600</ele><time>2010-09-10T14:16:04Z</time></trkpt><trkpt lat="42.218356145" lon="-1.512143500"><ele>285.168200</ele><time>2010-09-10T14:16:05Z</time></trkpt><trkpt lat="42.218248856" lon="-1.512079127"><ele>285.168200</ele><time>2010-09-10T14:16:14Z</time></trkpt><trkpt lat="42.218248856" lon="-1.512057669"><ele>286.129500</ele><time>2010-09-10T14:16:15Z</time></trkpt><trkpt lat="42.218248856" lon="-1.512036212"><ele>285.648800</ele><time>2010-09-10T14:16:16Z</time></trkpt><trkpt lat="42.218227398" lon="-1.511993296"><ele>285.168200</ele><time>2010-09-10T14:16:18Z</time></trkpt><trkpt lat="42.218205941" lon="-1.511907466"><ele>283.245600</ele><time>2010-09-10T14:16:22Z</time></trkpt><trkpt lat="42.218205941" lon="-1.511907466"><ele>282.765000</ele><time>2010-09-10T14:16:24Z</time></trkpt><trkpt lat="42.218205941" lon="-1.511886008"><ele>282.765000</ele><time>2010-09-10T14:16:27Z</time></trkpt><trkpt lat="42.218205941" lon="-1.511886008"><ele>282.765000</ele><time>2010-09-10T14:16:28Z</time></trkpt><trkpt lat="42.218205941" lon="-1.511864550"><ele>283.245600</ele><time>2010-09-10T14:16:33Z</time></trkpt><trkpt lat="42.218205941" lon="-1.511864550"><ele>283.245600</ele><time>2010-09-10T14:16:34Z</time></trkpt><trkpt lat="42.218205941" lon="-1.511864550"><ele>283.245600</ele><time>2010-09-10T14:16:36Z</time></trkpt><trkpt lat="42.218270314" lon="-1.511821635"><ele>284.206900</ele><time>2010-09-10T14:16:44Z</time></trkpt><trkpt lat="42.218291771" lon="-1.511821635"><ele>283.245600</ele><time>2010-09-10T14:16:48Z</time></trkpt><trkpt lat="42.218313229" lon="-1.511800177"><ele>283.726200</ele><time>2010-09-10T14:16:50Z</time></trkpt><trkpt lat="42.218377602" lon="-1.511778719"><ele>284.687600</ele><time>2010-09-10T14:17:00Z</time></trkpt><trkpt lat="42.218356145" lon="-1.511757262"><ele>286.129500</ele><time>2010-09-10T14:18:57Z</time></trkpt><trkpt lat="42.218377602" lon="-1.511735804"><ele>285.168200</ele><time>2010-09-10T14:19:01Z</time></trkpt><trkpt lat="42.218377602" lon="-1.511735804"><ele>286.129500</ele><time>2010-09-10T14:19:04Z</time></trkpt><trkpt lat="42.218399060" lon="-1.511692889"><ele>286.610200</ele><time>2010-09-10T14:19:07Z</time></trkpt><trkpt lat="42.218849671" lon="-1.511285193"><ele>287.090800</ele><time>2010-09-10T14:19:28Z</time></trkpt><trkpt lat="42.218935502" lon="-1.511177905"><ele>287.090800</ele><time>2010-09-10T14:19:33Z</time></trkpt><trkpt lat="42.218978417" lon="-1.511092074"><ele>287.090800</ele><time>2010-09-10T14:19:37Z</time></trkpt><trkpt lat="42.218978417" lon="-1.511070616"><ele>287.571400</ele><time>2010-09-10T14:19:38Z</time></trkpt><trkpt lat="42.218999875" lon="-1.510963328"><ele>288.533000</ele><time>2010-09-10T14:19:42Z</time></trkpt><trkpt lat="42.218999875" lon="-1.510877497"><ele>289.974900</ele><time>2010-09-10T14:19:45Z</time></trkpt><trkpt lat="42.218999875" lon="-1.510834582"><ele>290.936200</ele><time>2010-09-10T14:19:48Z</time></trkpt><trkpt lat="42.218999875" lon="-1.510834582"><ele>290.936200</ele><time>2010-09-10T14:19:53Z</time></trkpt><trkpt lat="42.218999875" lon="-1.510770209"><ele>293.339400</ele><time>2010-09-10T14:20:01Z</time></trkpt><trkpt lat="42.218999875" lon="-1.510684378"><ele>293.339400</ele><time>2010-09-10T14:20:04Z</time></trkpt><trkpt lat="42.218978417" lon="-1.510598548"><ele>294.300800</ele><time>2010-09-10T14:20:08Z</time></trkpt><trkpt lat="42.218956959" lon="-1.510534174"><ele>294.300800</ele><time>2010-09-10T14:20:11Z</time></trkpt><trkpt lat="42.218956959" lon="-1.510469801"><ele>294.781400</ele><time>2010-09-10T14:20:14Z</time></trkpt><trkpt lat="42.218935502" lon="-1.510426886"><ele>295.262000</ele><time>2010-09-10T14:20:16Z</time></trkpt><trkpt lat="42.218914044" lon="-1.510362513"><ele>295.262000</ele><time>2010-09-10T14:20:19Z</time></trkpt><trkpt lat="42.218892586" lon="-1.510298140"><ele>295.262000</ele><time>2010-09-10T14:20:21Z</time></trkpt><trkpt lat="42.218871129" lon="-1.510255225"><ele>295.262000</ele><time>2010-09-10T14:20:23Z</time></trkpt><trkpt lat="42.218849671" lon="-1.510083563"><ele>295.742700</ele><time>2010-09-10T14:20:28Z</time></trkpt><trkpt lat="42.218806756" lon="-1.509826071"><ele>295.742700</ele><time>2010-09-10T14:20:35Z</time></trkpt><trkpt lat="42.218914044" lon="-1.508731730"><ele>296.223500</ele><time>2010-09-10T14:20:59Z</time></trkpt><trkpt lat="42.218849671" lon="-1.508045085"><ele>295.742700</ele><time>2010-09-10T14:21:15Z</time></trkpt><trkpt lat="42.218678010" lon="-1.508088000"><ele>295.262000</ele><time>2010-09-10T14:21:22Z</time></trkpt><trkpt lat="42.218377602" lon="-1.508431323"><ele>295.262000</ele><time>2010-09-10T14:21:32Z</time></trkpt><trkpt lat="42.217690957" lon="-1.509203799"><ele>295.262000</ele><time>2010-09-10T14:21:54Z</time></trkpt><trkpt lat="42.217154515" lon="-1.509783156"><ele>294.781400</ele><time>2010-09-10T14:22:12Z</time></trkpt><trkpt lat="42.216339123" lon="-1.510705836"><ele>294.781400</ele><time>2010-09-10T14:22:36Z</time></trkpt><trkpt lat="42.215480816" lon="-1.511692889"><ele>294.300800</ele><time>2010-09-10T14:22:59Z</time></trkpt><trkpt lat="42.214686883" lon="-1.512572653"><ele>294.300800</ele><time>2010-09-10T14:23:22Z</time></trkpt><trkpt lat="42.214472306" lon="-1.512722857"><ele>293.339400</ele><time>2010-09-10T14:23:28Z</time></trkpt><trkpt lat="42.214086068" lon="-1.512808688"><ele>291.897500</ele><time>2010-09-10T14:23:38Z</time></trkpt><trkpt lat="42.213528168" lon="-1.512894518"><ele>288.533000</ele><time>2010-09-10T14:23:47Z</time></trkpt><trkpt lat="42.213377965" lon="-1.512958891"><ele>287.090800</ele><time>2010-09-10T14:23:49Z</time></trkpt><trkpt lat="42.212584031" lon="-1.513066180"><ele>288.052200</ele><time>2010-09-10T14:24:02Z</time></trkpt><trkpt lat="42.212262166" lon="-1.512980349"><ele>290.936200</ele><time>2010-09-10T14:24:10Z</time></trkpt><trkpt lat="42.212176335" lon="-1.512958891"><ele>291.416700</ele><time>2010-09-10T14:24:12Z</time></trkpt><trkpt lat="42.211854470" lon="-1.512830145"><ele>293.339400</ele><time>2010-09-10T14:24:23Z</time></trkpt><trkpt lat="42.211554062" lon="-1.512765772"><ele>294.300800</ele><time>2010-09-10T14:24:34Z</time></trkpt><trkpt lat="42.211232197" lon="-1.512808688"><ele>296.704100</ele><time>2010-09-10T14:24:44Z</time></trkpt><trkpt lat="42.211039078" lon="-1.512958891"><ele>297.184700</ele><time>2010-09-10T14:24:51Z</time></trkpt><trkpt lat="42.210953248" lon="-1.513066180"><ele>297.184700</ele><time>2010-09-10T14:24:54Z</time></trkpt><trkpt lat="42.210824502" lon="-1.513280757"><ele>296.223500</ele><time>2010-09-10T14:25:00Z</time></trkpt><trkpt lat="42.210803044" lon="-1.513323672"><ele>295.742700</ele><time>2010-09-10T14:25:02Z</time></trkpt><trkpt lat="42.210803044" lon="-1.513345130"><ele>296.223500</ele><time>2010-09-10T14:25:21Z</time></trkpt><trkpt lat="42.210781586" lon="-1.513345130"><ele>296.223500</ele><time>2010-09-10T14:25:42Z</time></trkpt><trkpt lat="42.210695756" lon="-1.513452418"><ele>296.223500</ele><time>2010-09-10T14:25:46Z</time></trkpt><trkpt lat="42.210674298" lon="-1.513495333"><ele>296.223500</ele><time>2010-09-10T14:25:47Z</time></trkpt><trkpt lat="42.210180771" lon="-1.514353640"><ele>296.223500</ele><time>2010-09-10T14:26:10Z</time></trkpt><trkpt lat="42.209794533" lon="-1.514954455"><ele>296.223500</ele><time>2010-09-10T14:26:26Z</time></trkpt><trkpt lat="42.209751618" lon="-1.515018828"><ele>296.223500</ele><time>2010-09-10T14:26:28Z</time></trkpt><trkpt lat="42.209622872" lon="-1.515147574"><ele>296.223500</ele><time>2010-09-10T14:26:32Z</time></trkpt><trkpt lat="42.209408295" lon="-1.515362151"><ele>294.781400</ele><time>2010-09-10T14:26:39Z</time></trkpt></trkseg></trk></gpx>
